ECMWFNIL_925_spd_000.txt.gz
Wind_Speed
38 38 38 37 36 35 35 34 32 31 29 28 26 24 21 19 17 16 15 15 15 15 15 14 13 13 12 12 13 13 13 13 14 13 13 14 15 16 17 19 20 21
39 38 37 37 36 35 35 34 33 32 30 28 26 24 22 21 20 19 17 16 16 16 15 14 13 12 12 12 12 13 13 13 14 13 13 15 16 17 19 20 21 22
40 40 39 39 38 37 36 34 33 32 30 29 27 26 24 23 21 19 18 17 17 16 15 14 13 12 12 13 13 13 13 14 14 13 14 16 17 19 20 22 22 23
41 41 41 40 39 39 37 36 34 32 31 30 29 27 25 23 21 20 19 18 17 16 15 14 13 13 13 12 12 12 13 13 14 14 15 17 18 20 21 22 23 24
42 42 41 41 40 39 38 38 37 35 34 32 30 28 26 24 22 21 20 18 17 16 15 14 14 13 13 12 12 12 13 13 14 14 16 18 19 20 22 22 23 24
41 41 41 41 40 40 39 39 38 37 36 34 31 29 27 25 23 21 20 19 17 16 15 15 15 14 13 12 12 12 13 14 14 15 17 19 21 21 21 22 23 24
42 42 41 41 40 40 40 39 38 37 36 34 31 29 27 25 23 22 20 18 17 17 17 16 15 14 13 12 13 14 15 15 16 17 19 20 21 22 22 22 23 24
41 41 41 40 40 40 39 38 37 36 34 33 31 29 27 25 23 22 20 19 19 18 18 17 16 15 14 14 15 16 16 16 17 18 20 21 21 22 22 21 22 24
39 39 40 40 40 40 39 38 37 35 34 32 30 28 26 24 23 22 21 20 19 19 18 17 16 15 14 15 16 17 17 17 18 18 19 21 21 21 21 21 22 24
38 39 39 40 40 39 38 38 37 35 33 32 30 27 26 24 23 22 21 20 19 19 18 17 16 15 15 16 16 17 17 17 18 19 20 20 20 20 20 19 20 21
39 39 40 41 40 39 38 38 37 35 33 31 29 27 25 24 23 22 21 20 20 19 18 16 16 15 15 16 17 17 17 18 18 19 20 20 19 20 19 18 18 18
40 40 41 41 40 39 39 38 37 36 34 32 29 28 26 24 23 22 21 20 19 18 17 16 16 16 16 17 17 17 17 17 18 19 19 19 18 18 19 20 19 17
40 41 40 40 39 38 38 38 37 36 34 32 29 28 26 25 23 22 21 19 18 17 16 16 16 16 16 16 16 16 16 16 18 18 18 18 18 17 18 20 20 21
38 37 37 37 36 37 37 37 36 36 34 32 29 27 26 24 23 22 20 18 17 16 16 16 16 15 15 15 14 15 15 16 16 16 17 18 18 19 21 22 24 25
34 34 34 35 35 36 37 36 36 35 33 31 29 27 25 23 22 20 19 18 17 16 16 16 15 14 13 13 13 13 14 15 15 16 16 18 18 20 22 24 26 28
32 33 33 34 35 36 37 36 36 35 33 31 28 26 25 23 21 19 18 17 17 16 16 14 13 12 11 11 12 13 13 13 14 15 16 18 20 22 22 24 25 26
34 34 34 35 35 36 36 36 36 35 33 30 28 26 24 22 20 19 17 17 16 15 14 12 11 10 9 11 13 13 13 14 14 16 18 20 21 21 21 22 22 23
36 36 36 36 36 37 37 37 36 35 33 30 28 26 23 21 19 18 17 16 15 14 13 12 11 10 9 12 13 13 13 15 16 18 19 20 20 20 21 22 21 22
37 38 38 37 37 37 37 37 36 34 32 30 27 25 23 20 19 17 16 15 14 13 12 11 10 10 10 12 13 13 13 14 17 19 20 20 21 20 21 21 21 24
37 37 37 36 36 36 36 35 34 32 30 28 26 24 22 20 18 17 16 14 14 13 12 11 11 10 10 11 12 12 12 14 16 19 19 20 20 19 19 21 23 25
36 35 35 35 35 36 35 34 32 30 28 26 24 23 22 20 18 17 16 15 14 13 12 12 11 9 9 11 11 11 12 14 16 18 18 19 18 18 20 22 24 27
37 37 37 37 38 37 35 34 32 30 28 27 25 23 21 19 18 17 16 15 14 13 13 11 10 9 9 10 11 11 12 14 16 17 17 18 18 19 21 23 25 28
42 42 42 42 42 41 39 37 34 32 30 28 26 24 22 21 19 17 15 14 13 13 12 10 9 9 8 9 9 10 11 14 16 17 18 19 20 21 22 24 26 28
45 46 46 46 45 44 42 39 36 34 32 30 28 26 24 22 19 17 15 13 12 11 10 10 10 7 6 7 9 10 11 13 15 17 19 20 21 22 23 24 25 27
46 48 48 47 45 44 43 40 37 34 32 30 28 26 24 21 18 17 14 12 10 9 9 9 9 6 3 6 9 9 11 13 15 17 19 20 22 22 21 22 24 25
45 46 47 46 45 44 42 39 37 34 32 30 27 24 22 20 18 15 13 11 10 9 8 8 8 4 2 5 9 10 10 12 14 18 20 21 21 21 21 22 23 23

ECMWFNIL_925_spd_003.txt.gz
Wind_Speed
41 41 41 41 41 41 42 43 43 44 44 44 43 42 40 37 33 30 28 25 21 20 18 16 14 12 11 10 9 10 11 12 13 13 13 14 15 17 19 19 19 20
41 40 40 40 40 40 42 43 44 44 44 43 42 41 39 36 33 30 28 25 22 21 19 17 15 13 11 10 10 11 12 13 13 13 13 14 15 17 19 20 20 20
42 42 42 43 43 42 42 42 42 43 43 42 41 40 38 36 33 30 27 25 23 22 19 17 15 13 12 11 11 12 12 13 13 13 14 15 16 18 19 20 20 20
45 45 45 44 43 42 41 41 42 42 42 42 41 39 38 36 33 31 28 26 24 22 20 18 16 15 13 12 12 13 13 13 13 13 15 16 17 19 20 20 21 21
46 45 45 44 42 41 41 42 43 43 42 42 41 39 38 36 35 32 30 28 25 23 21 19 17 15 14 13 13 13 13 14 14 14 16 17 17 18 20 20 20 20
44 44 43 43 42 42 42 43 43 43 43 42 41 40 39 38 36 34 32 30 27 25 22 20 18 16 14 14 14 13 14 14 14 14 15 17 18 18 19 19 19 19
43 42 41 41 41 42 42 42 42 42 43 42 41 41 41 39 38 35 33 30 28 25 23 20 18 17 15 15 14 14 14 14 14 15 16 17 18 19 19 19 20 19
40 39 39 39 39 40 41 41 41 42 43 42 42 42 42 41 39 37 34 31 28 25 23 21 19 17 16 15 15 14 15 15 15 15 17 18 19 20 20 20 19 19
38 38 38 38 38 38 38 39 39 40 41 42 43 42 42 41 40 37 34 31 28 26 24 22 20 18 17 16 15 15 15 15 16 16 17 18 19 19 20 20 19 18
37 37 38 38 38 38 37 37 37 37 39 41 42 42 41 40 38 36 34 32 29 27 25 23 21 19 17 16 16 16 15 16 16 17 18 18 18 19 19 19 18 18
38 38 39 39 40 39 38 38 37 37 38 39 40 41 40 39 37 35 34 32 30 29 26 24 21 19 18 17 16 16 16 16 16 17 17 17 18 19 18 18 18 18
38 39 40 41 41 40 39 38 38 39 39 39 39 40 39 39 37 35 34 32 31 29 26 23 21 20 18 17 17 16 16 16 16 17 17 17 17 17 17 17 17 17
40 41 41 41 41 40 38 38 39 39 40 40 39 39 39 39 37 36 34 32 30 28 25 23 21 20 18 17 17 17 16 16 16 16 16 16 16 16 15 16 16 16
41 40 40 40 39 38 37 38 39 40 40 40 40 40 40 39 38 36 33 31 29 26 24 22 20 19 18 17 17 16 16 16 16 16 15 15 14 15 15 14 15 16
38 37 37 37 37 37 37 38 39 39 39 39 40 39 39 38 37 35 33 30 27 25 23 21 20 19 18 17 17 16 16 16 16 15 14 14 14 13 14 13 14 15
35 36 36 36 37 37 37 38 38 38 38 39 39 39 38 37 36 34 32 30 28 25 23 22 20 19 18 17 17 16 16 16 15 15 14 13 13 12 13 13 14 15
35 35 35 36 37 37 37 37 38 38 39 39 39 39 38 37 36 34 32 30 29 26 25 23 21 19 18 18 17 16 16 15 14 13 13 12 13 12 13 14 13 14
35 35 36 36 37 37 38 38 39 39 40 40 40 40 39 38 37 36 34 31 29 26 24 23 21 20 19 19 17 16 16 14 13 13 13 12 12 13 13 13 13 13
36 36 37 37 38 39 39 40 41 42 42 43 42 41 40 38 37 35 33 31 29 27 25 24 22 21 21 19 17 17 17 15 15 14 14 14 13 13 14 13 13 13
37 37 37 37 38 39 40 41 42 42 42 42 41 40 39 38 37 35 33 31 29 28 26 24 23 23 21 19 17 17 17 17 17 16 15 15 14 13 13 13 12 13
37 37 37 37 38 39 40 41 41 41 41 41 41 41 40 38 37 36 33 31 29 27 26 25 24 23 21 19 17 16 16 16 17 17 16 15 15 14 13 13 13 14
38 38 37 38 39 40 40 41 41 41 42 43 41 40 39 37 36 35 34 32 30 29 28 26 24 22 21 19 17 16 16 16 17 16 16 15 15 13 13 12 13 15
39 39 39 39 40 41 41 41 41 41 42 43 41 39 38 38 37 36 34 33 32 31 29 27 25 23 21 19 16 15 15 16 17 16 15 14 12 11 11 12 15 17
40 40 40 40 41 41 41 41 40 41 41 41 41 40 39 39 38 36 34 34 33 32 29 27 26 24 22 19 17 15 15 16 16 14 13 12 11 11 12 14 16 16
40 41 41 41 41 41 41 41 41 41 40 39 38 38 38 37 36 35 34 32 31 30 28 26 25 24 22 21 17 15 15 15 14 13 12 11 11 11 13 14 14 13
39 40 41 41 41 40 39 40 40 39 39 38 35 34 33 33 33 33 31 30 29 28 26 25 25 24 23 21 18 15 14 14 13 13 11 10 11 13 14 13 12 11

ECMWFNIL_925_spd_006.txt.gz
Wind_Speed
41 41 41 41 41 41 41 41 42 43 44 44 45 46 46 46 45 43 41 39 36 34 31 28 26 24 23 22 21 19 17 15 13 11 9 8 7 8 8 9 9 10
43 43 42 42 42 42 42 43 43 44 45 45 45 45 45 45 45 44 43 41 38 36 33 30 28 26 25 24 22 20 18 16 14 12 10 9 9 9 9 10 10 10
46 45 45 45 45 44 43 42 42 43 43 43 43 43 44 45 45 45 44 42 40 37 34 32 30 28 27 25 23 21 19 17 15 13 12 11 10 10 10 11 11 11
47 47 48 47 45 43 42 41 41 42 42 42 42 42 42 42 43 44 44 43 41 39 36 34 32 30 28 26 24 22 20 18 16 15 14 12 12 12 12 13 12 12
48 48 47 46 44 42 41 42 43 42 41 41 41 41 41 41 42 42 43 42 41 39 37 36 34 32 30 28 26 24 22 21 19 17 16 14 13 13 14 14 13 13
46 47 47 46 43 42 42 43 43 42 41 41 40 41 41 41 42 43 43 42 41 39 38 37 36 34 32 30 28 26 24 23 21 19 17 16 15 14 15 15 15 14
46 46 45 44 42 42 43 42 42 41 41 41 41 41 42 42 42 43 43 43 41 40 39 38 37 36 34 31 30 28 26 24 22 20 18 17 16 16 16 16 15 14
45 43 42 42 42 42 42 42 42 42 41 41 41 42 42 43 43 43 43 43 42 41 40 39 38 37 35 33 31 30 27 25 23 21 20 18 18 18 17 17 16 15
43 41 41 42 42 43 43 43 42 42 42 42 42 42 42 43 44 44 43 43 43 42 41 40 38 37 35 33 32 30 28 26 24 22 21 20 19 19 18 18 17 17
41 40 40 41 43 44 44 43 43 42 42 42 42 42 42 42 43 43 44 44 43 43 41 40 39 37 35 33 31 29 27 25 24 22 21 20 20 20 19 19 18 18
40 40 41 42 44 44 44 43 42 42 42 42 42 42 42 42 42 42 43 44 44 44 42 41 39 37 35 33 31 28 26 24 23 22 21 21 20 20 19 19 19 19
40 40 42 44 45 44 43 43 42 42 42 42 42 42 41 42 43 43 44 45 45 44 43 42 40 38 36 34 31 28 26 24 23 22 21 21 20 19 19 19 18 18
41 44 46 46 45 44 43 42 42 42 42 42 42 42 42 43 43 44 45 45 45 44 43 42 40 38 36 34 31 28 27 25 24 22 22 20 19 19 18 18 19 18
44 46 45 44 43 41 40 40 41 41 41 41 42 42 43 44 45 45 45 45 45 44 43 42 40 39 36 34 31 29 28 26 24 23 22 21 20 19 19 18 19 18
43 42 40 39 39 39 39 40 41 41 41 41 42 43 44 44 45 46 45 45 44 43 43 42 40 39 37 35 33 30 29 27 25 24 23 22 21 20 19 18 18 17
38 37 37 38 39 39 40 40 40 40 41 41 42 43 43 44 45 45 45 46 45 43 42 41 41 40 38 35 33 31 29 28 26 25 24 23 21 20 19 18 17 15
35 37 38 38 39 40 40 40 40 40 41 41 41 42 42 43 44 44 45 45 44 44 43 42 41 40 37 34 32 31 30 29 28 27 25 24 22 20 19 18 16 14
36 36 37 38 38 38 39 39 39 39 40 40 41 41 42 42 43 44 44 43 42 42 43 42 42 40 37 35 33 32 31 30 29 28 26 25 23 22 20 18 15 13
36 35 36 37 37 38 38 38 38 39 40 41 40 40 41 41 42 42 42 41 42 42 42 42 41 39 37 34 32 31 31 30 29 28 27 25 24 21 19 16 15 14
35 36 36 36 36 36 37 38 39 39 39 39 39 39 40 40 41 41 41 41 41 41 41 41 40 39 36 32 29 29 30 30 28 26 25 23 20 18 16 16 16 16
35 35 35 34 35 36 37 38 38 38 38 38 39 40 41 41 41 41 41 41 40 40 40 39 39 38 33 29 27 27 27 27 26 24 22 19 17 15 16 16 16 15
35 35 34 35 36 36 37 37 38 38 38 38 38 38 38 38 38 39 40 40 39 39 39 38 38 36 30 27 27 27 26 25 24 22 21 19 18 17 18 18 17 16
34 34 34 35 36 37 37 37 36 36 36 37 37 36 36 36 36 36 37 38 38 38 38 37 37 35 29 27 27 27 27 26 25 24 23 22 21 21 20 19 18 16
33 34 35 35 36 37 36 35 35 35 36 37 38 37 36 36 36 35 36 37 38 38 38 37 37 34 28 27 27 27 28 29 27 26 25 23 22 21 20 19 16 13
32 33 33 34 35 35 35 35 34 34 35 35 36 35 34 34 35 34 34 35 36 37 36 36 37 34 28 27 27 27 28 29 28 26 26 24 22 20 18 16 14 12
31 32 34 34 35 34 33 34 34 33 34 34 34 33 33 33 34 34 34 34 35 35 34 35 37 36 30 28 28 27 27 29 29 27 26 25 22 19 18 17 14 13

ECMWFNIL_925_spd_009.txt.gz
Wind_Speed
42 42 41 40 40 40 40 41 41 42 43 44 45 46 46 46 46 47 47 46 45 44 43 40 38 36 34 33 32 30 29 27 25 24 22 21 20 19 18 17 17 16
43 42 41 40 41 41 41 42 42 43 43 44 44 43 43 43 44 46 47 47 46 45 44 42 40 38 36 35 33 32 31 29 27 25 24 23 22 21 19 18 18 17
44 43 43 43 44 43 42 41 41 42 42 42 42 42 42 42 43 44 46 47 47 46 44 43 41 39 37 36 35 34 33 31 29 28 26 24 23 22 20 20 19 18
45 46 47 47 46 45 43 41 41 42 42 42 42 42 41 41 42 43 45 46 46 46 45 44 42 40 38 37 36 35 34 32 30 29 27 26 24 22 21 21 20 19
46 47 47 48 47 44 42 43 44 44 43 43 42 41 41 41 41 43 44 45 45 45 45 44 43 41 40 38 37 36 35 33 32 30 29 27 25 24 23 22 22 21
44 46 47 47 45 43 43 44 45 44 43 43 42 41 41 41 42 43 44 45 45 45 45 44 43 42 41 39 38 37 36 35 33 32 30 29 27 25 24 23 23 22
44 45 45 44 42 42 43 43 42 43 43 43 42 42 42 42 43 43 44 45 45 45 46 45 45 44 42 41 40 39 38 36 35 33 31 30 28 27 26 25 24 23
45 44 43 42 40 41 42 42 42 43 43 42 42 42 43 43 43 44 44 44 45 45 45 45 45 45 44 43 42 41 39 37 36 34 33 31 30 29 28 27 25 24
43 41 41 41 42 43 44 44 44 43 43 42 42 42 43 43 44 44 44 44 45 45 45 45 45 45 45 45 44 43 41 39 38 36 35 33 32 31 30 28 27 25
40 40 39 40 42 44 46 46 45 43 43 43 42 42 43 43 43 43 44 44 45 45 46 46 46 46 45 45 45 44 43 41 39 37 36 35 34 33 31 30 28 27
40 39 40 41 43 45 46 45 43 42 42 42 42 43 43 43 43 43 44 45 46 47 47 47 47 47 46 45 45 44 43 42 40 39 37 36 34 33 31 30 29 28
40 40 41 43 46 46 45 43 42 41 41 41 42 43 43 42 43 44 45 46 47 47 47 48 47 47 47 46 45 44 43 41 40 39 37 36 34 32 31 30 29 28
41 42 44 46 47 45 43 41 40 40 41 41 42 42 42 42 43 44 45 46 46 46 47 47 47 47 47 46 46 45 44 42 40 38 37 36 34 32 30 30 29 28
42 43 45 45 43 41 40 39 40 41 42 42 41 42 42 43 44 44 44 44 44 45 45 45 45 46 46 46 45 45 43 42 40 39 37 35 33 32 31 30 29 28
42 42 42 40 38 38 39 40 41 42 42 41 42 43 43 43 43 43 43 42 42 43 43 44 44 46 46 47 46 44 43 41 40 39 37 35 34 32 31 31 29 28
40 39 38 37 38 39 40 41 41 41 41 42 42 42 42 42 42 42 43 43 43 43 43 44 45 46 47 48 48 46 44 42 40 38 37 36 35 34 32 31 29 27
37 37 36 37 39 40 40 41 41 41 42 42 41 41 41 41 42 43 43 44 44 44 44 44 45 45 46 47 47 46 45 43 41 40 38 37 36 35 33 32 29 26
35 35 36 38 39 40 40 40 40 40 41 41 41 42 41 41 42 44 44 44 44 43 44 44 44 45 46 46 46 45 45 44 42 41 39 38 36 35 33 31 29 26
33 33 35 37 38 38 38 37 38 39 41 41 42 41 41 41 42 43 43 43 43 43 43 43 43 44 45 46 45 45 45 43 42 41 40 38 37 35 33 31 29 27
31 33 35 35 34 34 34 35 37 39 39 39 39 39 40 41 42 42 42 43 43 43 43 42 42 44 45 45 45 44 44 43 42 39 39 38 36 35 33 31 30 28
29 31 31 30 30 31 32 34 36 36 36 37 37 38 40 40 40 41 41 41 41 41 40 40 41 42 43 43 42 39 39 41 40 38 37 36 34 33 32 30 29 27
26 26 26 26 26 28 31 33 34 35 35 36 35 36 36 36 37 39 39 40 40 40 40 38 39 41 42 41 38 35 34 37 39 37 36 34 32 32 30 29 28 26
23 24 25 25 26 29 31 32 33 34 34 35 34 34 34 35 36 37 38 39 39 39 39 37 37 41 41 38 36 34 34 36 38 36 34 33 31 30 29 28 26 25
23 24 25 26 27 30 31 30 31 32 33 35 35 35 34 35 35 35 35 37 39 39 40 38 38 41 40 37 35 35 35 37 37 35 33 32 30 28 27 26 24 23
23 24 26 26 28 29 29 29 30 30 31 32 34 34 33 33 34 34 34 35 37 38 39 39 39 40 40 38 37 37 37 38 38 35 33 31 30 28 26 25 23 21
23 24 26 26 27 27 27 27 28 28 29 30 30 30 31 31 32 33 32 33 34 36 37 38 39 40 40 39 38 38 38 39 39 36 34 33 31 30 28 26 25 23

ECMWFNIL_925_spd_012.txt.gz
Wind_Speed
38 38 38 39 40 40 41 42 42 42 43 44 45 47 48 48 49 49 50 49 49 48 48 47 46 44 43 42 41 40 38 37 35 33 31 30 29 27 26 25 24 23
39 38 37 37 37 38 38 40 42 43 44 45 45 45 45 45 45 47 48 48 48 48 47 46 46 45 44 43 42 41 39 38 36 34 33 31 30 28 27 25 24 24
40 39 39 38 37 36 37 38 40 42 43 43 44 43 42 42 43 44 46 47 47 46 46 46 46 45 44 44 43 41 40 39 38 36 34 32 31 29 27 26 25 24
39 41 41 41 39 37 36 36 38 40 41 41 41 40 40 40 41 42 43 44 45 45 45 45 45 45 45 44 43 42 41 40 38 37 35 33 31 29 28 27 26 25
39 40 41 41 40 39 37 38 39 40 39 40 40 39 40 40 40 41 42 43 44 44 45 44 44 45 45 44 44 43 42 40 39 37 36 34 33 31 29 28 27 26
37 39 39 38 38 38 38 39 40 39 39 39 39 40 41 41 41 42 43 44 44 45 45 44 44 44 44 44 44 43 43 41 40 39 37 36 34 32 30 30 29 28
37 37 37 37 37 37 38 39 39 40 40 39 39 40 41 41 41 42 43 44 45 45 46 46 46 46 45 45 44 44 43 42 41 40 39 37 35 33 32 31 30 30
34 34 35 36 37 37 38 38 39 40 40 39 40 40 40 41 41 42 42 43 44 45 46 46 47 47 47 47 46 45 44 43 43 42 40 38 37 36 35 33 32 31
33 34 34 35 36 38 40 40 40 41 41 41 41 40 40 41 42 42 42 43 44 44 45 46 47 47 48 48 48 47 46 45 44 44 43 41 40 39 38 36 34 34
35 36 35 35 38 40 42 43 43 42 42 43 42 42 42 42 41 42 42 42 43 44 45 46 47 47 47 48 48 48 48 47 46 45 45 44 44 42 41 39 38 37
36 36 36 38 40 41 43 44 43 42 42 42 42 42 42 42 42 43 43 43 45 46 47 47 47 47 48 48 48 48 48 48 47 47 47 46 45 45 44 43 41 40
35 35 37 40 42 44 44 42 41 41 41 41 42 42 42 42 43 44 45 46 46 46 47 47 46 47 48 48 49 48 48 48 48 48 48 48 47 46 45 45 43 42
34 35 38 41 43 44 44 41 40 40 41 42 43 43 43 43 44 45 46 47 47 46 46 46 46 46 47 48 49 49 49 49 49 48 48 48 47 47 46 45 45 43
35 37 39 41 43 43 41 40 39 40 42 43 42 43 45 46 46 46 45 45 46 46 47 47 46 47 48 48 49 50 50 50 50 49 48 47 46 46 46 46 45 43
35 37 39 40 42 41 40 40 40 40 41 42 43 44 45 45 45 45 44 43 44 45 46 47 48 49 51 51 51 51 50 50 49 49 48 47 46 45 45 45 44 43
33 35 37 39 40 40 40 40 39 39 39 41 43 44 43 42 41 41 42 43 43 44 44 46 48 50 52 53 53 52 50 48 47 47 47 46 45 44 43 43 43 43
34 33 35 37 38 38 39 39 38 38 39 40 41 41 40 39 39 41 43 43 43 43 44 46 48 49 51 52 53 53 51 48 47 46 45 45 44 44 44 43 43 43
36 35 33 34 36 37 37 37 37 37 37 38 38 38 38 37 39 41 42 41 41 42 44 45 46 47 49 51 52 53 52 49 47 45 45 44 44 43 43 43 44 42
39 37 34 33 34 35 35 34 33 35 36 36 36 36 35 37 39 39 39 39 39 40 42 43 42 43 46 48 50 51 52 49 46 44 45 44 44 43 43 44 44 43
39 38 36 35 33 32 31 30 31 33 33 33 33 32 33 36 37 37 37 38 39 40 40 40 40 42 44 46 48 49 50 49 46 43 43 43 43 44 44 45 46 45
37 37 37 37 35 31 28 28 29 30 31 30 30 31 34 35 36 37 38 38 39 39 38 38 40 41 42 44 47 47 48 47 44 41 39 39 40 43 44 44 45 45
36 36 36 37 36 32 28 27 28 29 29 29 29 30 31 32 34 35 37 37 38 38 38 38 38 39 40 42 45 45 44 43 42 39 37 36 37 40 41 42 42 42
37 36 36 35 35 32 29 29 28 27 27 26 27 28 29 30 32 33 34 35 36 37 38 37 35 37 39 40 42 42 40 39 39 37 35 34 35 38 40 39 39 40
37 36 35 34 33 31 30 29 27 26 25 25 26 27 28 29 30 30 31 33 35 37 38 37 36 36 38 40 40 40 39 39 39 37 34 33 33 34 36 37 36 37
34 34 34 33 32 31 30 28 27 25 24 24 25 26 26 26 27 28 29 30 32 35 36 36 36 36 38 39 39 39 40 40 39 37 34 32 32 33 34 34 33 33
33 33 34 34 33 32 31 28 26 24 23 23 25 26 26 25 25 26 27 28 29 31 33 35 35 35 37 38 38 38 40 40 40 38 35 32 32 34 34 33 33 32

ECMWFNIL_925_spd_015.txt.gz
Wind_Speed
26 26 27 28 29 29 29 30 32 33 34 37 39 42 44 45 45 46 48 49 48 48 48 48 48 48 48 48 47 47 46 46 46 45 44 42 40 38 35 34 33 31
26 27 27 27 28 28 28 29 30 32 34 37 38 39 40 40 41 43 46 47 46 47 47 47 47 47 47 48 48 47 47 47 47 46 45 44 42 40 38 36 35 33
26 27 28 29 29 29 29 29 29 31 33 34 36 37 38 38 38 40 42 44 45 46 46 45 46 46 46 46 47 47 48 49 49 47 46 45 44 42 40 38 36 35
26 27 28 29 29 29 29 29 30 32 33 34 35 36 37 37 37 38 39 42 43 43 44 44 45 45 46 46 46 47 48 48 49 48 47 46 45 44 42 40 38 36
26 27 28 30 30 30 30 30 32 33 34 35 36 36 36 37 37 38 39 41 42 43 44 44 45 46 46 46 47 47 48 47 47 47 47 46 45 44 43 41 40 38
24 26 28 30 31 32 32 33 34 35 36 37 37 37 37 37 38 39 40 41 42 43 44 45 46 46 46 46 47 47 48 47 47 47 46 47 46 44 43 42 41 40
24 25 26 28 31 32 34 36 37 37 36 36 37 37 38 38 39 39 40 41 42 44 45 46 46 47 47 47 47 48 47 46 46 46 46 47 46 45 44 44 43 42
27 26 26 27 28 30 33 35 37 38 38 36 36 37 38 38 39 40 40 41 42 44 46 47 47 48 48 48 48 49 47 46 46 47 48 47 47 47 47 46 44 44
32 29 26 26 27 29 31 33 35 37 38 37 37 37 37 38 38 39 40 41 43 44 45 46 47 48 48 49 50 50 50 48 48 50 50 49 49 50 49 48 46 46
36 33 29 27 26 28 30 31 33 34 35 36 37 36 36 37 38 39 40 41 43 44 44 46 47 48 49 50 51 51 51 51 51 52 52 52 53 53 52 51 50 49
37 36 33 30 28 28 29 30 31 31 32 34 35 35 36 37 38 39 40 41 43 44 45 46 47 48 49 51 51 51 50 50 51 52 54 54 54 54 54 55 54 53
36 36 36 35 32 30 29 29 29 29 30 31 32 34 36 37 38 38 40 42 44 44 45 46 47 47 49 51 52 51 50 49 49 51 53 54 54 54 55 56 56 55
34 34 35 36 35 33 31 29 28 28 29 30 31 33 35 36 37 38 40 42 44 44 44 45 45 46 48 49 50 51 51 50 49 49 50 51 52 53 53 54 55 54
35 34 34 35 35 35 34 32 29 28 28 29 30 32 34 35 37 39 40 41 42 43 43 43 43 45 48 48 48 49 49 49 49 49 49 48 48 49 51 52 54 53
35 36 37 38 38 37 37 35 33 30 29 28 29 31 33 35 36 37 39 40 40 41 41 41 43 45 47 48 48 48 47 48 48 48 48 47 45 46 48 50 52 52
31 33 36 38 39 38 38 37 36 33 30 29 28 30 32 34 35 36 38 39 38 39 40 41 43 45 46 47 48 49 48 47 46 46 46 45 44 45 46 48 49 50
29 30 32 34 35 36 37 37 37 35 32 30 29 29 30 32 34 35 36 37 38 38 40 41 43 44 44 45 48 50 49 47 45 45 44 44 43 43 44 46 47 47
30 30 31 31 31 32 33 34 35 35 33 31 29 29 29 30 32 34 35 36 36 37 39 41 42 43 44 45 47 49 50 48 45 44 43 43 43 42 42 43 44 44
31 32 32 32 32 32 33 33 33 33 32 31 30 29 28 28 30 32 33 34 35 37 39 40 42 42 43 45 46 48 50 49 46 44 44 44 44 44 43 43 43 43
32 33 33 33 33 33 33 33 32 32 32 31 30 28 27 28 29 30 32 33 34 36 38 39 41 42 42 43 45 47 49 50 48 46 45 46 47 47 46 45 46 46
34 34 33 32 33 33 33 33 33 33 33 32 30 28 27 28 28 29 30 31 33 35 37 38 39 40 40 42 44 46 47 48 48 46 45 44 45 46 46 46 47 48
36 36 34 32 32 33 33 32 32 33 34 33 31 30 29 28 28 29 30 31 32 33 35 37 38 37 39 40 42 43 44 44 45 45 44 42 41 42 44 45 46 47
34 35 33 32 32 32 32 32 32 32 33 33 31 31 30 28 29 29 30 31 32 32 33 36 37 36 37 39 40 41 41 41 42 43 42 41 39 40 42 43 44 47
32 31 30 31 32 32 32 33 33 32 32 31 31 30 30 29 29 29 30 30 31 32 33 35 37 36 35 37 38 39 40 41 40 39 40 39 37 37 39 41 43 44
31 28 28 30 32 33 34 35 35 34 33 32 31 30 30 30 28 28 29 30 30 32 33 34 35 35 34 35 36 37 39 40 39 37 37 35 33 33 35 37 40 41
32 29 28 29 31 34 36 36 35 35 35 34 32 31 31 29 28 27 29 30 30 30 32 33 34 34 34 34 34 35 38 40 39 37 35 33 30 31 32 34 37 39

ECMWFNIL_925_spd_021.txt.gz
Wind_Speed
18 15 13 12 10 10 10 9 9 9 9 10 11 11 12 12 12 11 15 18 19 21 23 23 24 26 27 29 31 32 33 35 36 38 39 41 41 41 41 40 37 34
23 20 17 15 13 12 12 11 10 10 10 10 11 12 12 12 12 11 14 18 20 21 23 23 23 24 25 28 30 31 33 34 35 36 38 40 41 42 43 42 41 39
23 21 19 17 15 15 14 12 11 10 10 10 10 11 12 12 13 12 14 17 19 20 21 22 23 24 25 27 28 30 33 34 34 35 37 39 40 40 42 42 42 43
18 18 18 18 18 18 17 15 14 13 11 12 11 12 13 13 13 14 15 17 18 19 20 21 22 23 25 26 27 29 31 33 34 34 35 38 39 39 40 40 41 42
16 17 18 20 21 21 20 20 19 17 16 15 14 13 13 13 14 15 16 16 17 19 20 21 22 23 24 26 27 29 30 31 32 33 34 35 37 38 39 39 39 40
20 20 20 20 20 20 22 22 22 22 21 20 18 16 15 15 15 15 16 16 17 18 19 20 21 22 24 25 26 28 29 30 31 32 34 35 35 36 37 38 38 39
24 23 22 21 20 20 21 23 23 24 24 23 22 20 18 17 16 15 15 15 16 17 18 19 21 22 23 24 25 27 28 29 30 31 32 34 34 35 36 37 38 38
22 24 24 24 23 22 22 23 22 23 23 24 23 23 22 20 18 17 16 16 16 17 18 19 20 21 22 23 25 27 28 29 30 30 31 33 34 35 36 35 36 38
17 21 24 26 27 26 25 23 22 22 22 22 22 23 23 23 22 20 19 17 17 17 18 19 19 20 21 22 24 26 27 28 29 30 32 32 33 34 35 35 35 38
15 18 20 23 24 26 26 26 24 22 21 21 21 22 23 23 23 23 21 20 19 18 18 19 19 20 21 22 24 25 27 28 28 30 32 33 34 34 34 35 35 37
14 15 16 18 19 21 23 26 26 25 25 24 22 22 22 22 22 22 21 21 21 20 20 20 20 20 21 22 23 25 26 28 28 29 30 32 34 35 35 35 36 38
15 15 15 15 17 20 22 24 25 27 29 28 26 25 22 21 21 21 20 20 21 21 21 21 21 21 21 23 24 25 26 28 29 30 31 31 33 34 35 36 37 40
16 16 16 18 19 21 23 24 24 26 28 28 28 28 26 23 22 20 20 20 20 20 21 21 22 22 22 23 24 25 27 28 30 31 32 33 34 34 34 35 37 40
15 16 17 20 24 26 27 28 28 30 30 28 27 28 27 27 26 23 22 21 20 20 20 20 20 22 23 23 24 25 26 27 29 30 32 34 35 36 36 36 37 39
16 16 15 19 26 29 30 31 32 33 32 29 30 30 28 29 28 26 25 24 22 21 20 19 19 20 22 23 24 26 27 28 28 28 30 32 34 35 36 37 38 39
19 18 17 21 26 28 30 32 33 33 30 28 31 33 30 29 27 27 27 26 25 24 22 21 20 20 20 21 22 24 27 30 31 30 30 31 32 33 34 35 37 38
25 23 23 28 31 30 30 32 33 32 29 28 30 31 31 29 28 28 28 26 25 24 24 23 22 21 21 21 22 22 24 27 31 33 32 32 32 33 34 34 35 35
30 27 27 31 34 34 33 34 34 31 29 29 29 30 31 31 30 29 28 28 27 26 25 24 25 24 23 23 23 22 22 24 28 31 32 33 33 33 34 34 33 34
27 26 27 30 33 35 35 36 37 35 33 31 30 31 32 32 31 30 29 30 28 27 27 27 27 28 27 26 26 25 24 24 26 29 31 33 35 35 35 34 34 34
24 25 27 28 31 33 34 35 35 36 36 34 32 33 34 33 34 34 32 31 29 28 29 30 29 31 32 31 29 28 26 24 26 29 31 33 35 36 36 36 36 35
25 26 26 28 30 31 32 34 34 35 36 34 31 32 33 34 35 35 35 34 33 31 32 33 33 34 37 37 33 30 28 25 25 28 30 32 35 36 37 38 37 36
25 26 27 27 29 29 31 33 35 36 36 33 30 30 31 33 35 34 34 36 36 34 33 35 36 36 35 36 34 32 30 27 26 28 29 31 33 35 36 38 38 38
25 26 28 28 28 29 31 33 35 36 37 35 33 32 32 33 34 34 34 35 36 36 35 35 38 37 34 33 35 34 31 29 28 28 28 31 33 33 34 35 37 39
25 26 28 29 30 31 32 33 34 34 36 36 34 33 34 33 32 34 37 36 35 37 37 36 39 41 38 34 36 37 34 30 29 28 28 30 32 32 33 34 36 38
26 28 29 30 32 33 34 35 35 35 35 36 34 32 33 32 29 31 38 39 38 39 39 37 39 43 42 37 36 37 36 32 29 27 27 29 31 31 31 33 35 36
28 30 32 33 34 35 35 36 36 35 34 34 32 31 33 33 31 32 37 41 41 41 41 41 41 44 46 43 38 36 36 34 30 28 28 29 30 30 30 31 33 34

ECMWFNIL_925_spd_024.txt.gz
Wind_Speed
24 24 23 22 22 21 19 18 16 15 14 13 13 13 13 13 13 13 14 15 15 15 15 16 15 16 17 18 20 22 24 26 28 29 30 31 34 36 37 37 36 34
23 23 23 24 23 22 21 20 19 18 17 15 14 14 14 14 13 13 14 14 15 16 17 17 17 16 16 17 19 21 23 25 27 28 29 30 32 34 37 38 38 37
23 23 23 23 23 22 22 21 21 21 20 18 17 16 15 15 15 14 13 14 16 18 19 18 18 17 17 17 18 20 22 23 25 27 29 30 30 32 34 36 38 39
24 23 23 22 22 22 22 22 23 23 22 22 20 19 19 17 16 15 14 14 16 18 19 19 19 18 17 18 18 20 22 23 24 25 28 30 31 32 33 33 35 38
23 23 23 23 23 23 23 24 24 24 24 23 22 22 21 21 19 18 16 15 15 18 19 19 19 18 18 18 18 20 21 23 24 25 27 29 30 31 32 33 34 36
20 21 21 21 21 22 22 23 23 23 24 24 23 23 23 22 22 22 20 18 17 17 18 19 20 20 19 18 18 20 21 23 24 25 27 29 30 31 32 32 33 34
17 18 19 18 18 19 20 21 21 21 22 22 22 23 23 23 23 23 22 21 20 19 19 19 20 20 20 20 20 20 21 22 24 25 26 28 29 31 31 32 33 34
14 14 15 16 16 18 19 19 20 20 20 21 22 22 22 22 22 22 21 21 21 20 20 19 19 19 20 20 21 22 22 23 23 24 26 28 28 30 31 31 33 34
12 12 14 15 15 16 17 18 19 19 20 21 21 22 22 22 22 22 22 21 21 20 20 20 20 19 19 19 20 22 23 24 24 25 26 28 29 30 31 31 32 33
14 14 15 16 16 16 17 18 18 18 18 20 20 20 21 21 21 22 22 23 22 22 21 21 21 20 19 18 18 20 22 24 25 25 27 28 29 30 30 31 32 33
17 18 19 19 19 19 20 21 21 20 19 21 20 20 20 20 20 21 22 23 23 24 23 22 22 21 20 20 19 19 20 22 24 25 27 28 29 29 30 30 32 33
19 21 22 22 22 23 24 26 26 26 26 26 25 24 25 24 23 23 23 23 24 24 24 24 23 22 21 21 21 20 20 21 23 24 26 27 29 29 30 31 32 33
22 24 25 25 24 24 25 27 28 29 30 31 30 29 29 29 28 28 27 26 26 25 25 26 26 25 23 23 22 21 22 23 24 25 26 27 28 29 30 31 32 32
26 28 29 30 30 29 29 30 30 30 31 32 32 31 31 30 30 31 30 29 28 27 27 26 26 27 27 26 24 23 23 24 25 26 27 28 28 29 29 30 31 32
26 28 30 32 33 33 34 34 34 34 34 33 33 32 31 31 31 31 31 31 30 30 29 27 26 27 28 28 27 25 25 25 26 28 29 30 31 30 29 29 30 31
26 28 29 31 32 32 34 35 36 37 37 37 36 34 32 31 31 31 31 32 32 32 31 29 28 29 29 28 27 27 27 28 28 29 30 32 33 33 32 31 30 30
26 27 29 30 31 31 32 34 35 37 38 39 39 38 36 34 33 33 33 33 32 32 32 32 32 32 31 29 28 28 29 30 30 31 32 32 34 34 34 33 32 31
26 28 29 30 31 31 32 34 34 35 37 39 39 39 39 38 38 37 36 36 34 33 34 34 35 35 34 31 29 29 31 31 32 33 33 33 34 35 36 35 34 33
27 28 29 30 31 32 32 33 33 34 36 37 38 38 39 40 41 41 40 40 38 36 37 37 37 37 36 32 31 32 32 33 34 35 35 35 35 35 36 36 35 34
28 28 29 30 31 31 32 33 33 34 35 35 35 35 37 39 40 41 42 42 41 40 41 42 42 43 40 34 32 34 34 34 35 37 37 37 36 36 36 37 37 36
27 27 29 30 32 32 32 32 32 33 34 35 34 34 36 37 38 40 41 42 43 43 43 45 48 50 47 39 33 32 33 34 36 37 38 38 38 38 37 37 38 37
26 28 30 32 32 31 31 31 31 33 34 35 35 36 38 38 39 40 40 42 43 43 43 45 50 54 53 49 42 35 32 34 36 37 38 38 39 39 38 38 38 38
27 28 30 31 31 31 32 32 33 35 35 35 35 37 38 39 40 41 41 42 44 44 44 45 49 52 54 54 50 42 36 36 36 37 38 39 39 40 39 38 39 39
27 28 29 30 31 32 33 34 35 36 36 35 35 36 38 40 40 41 43 44 44 45 45 44 47 52 52 51 50 46 42 41 39 37 37 38 39 40 40 39 40 41
27 28 29 30 31 33 33 35 36 36 36 35 35 36 38 40 40 40 42 44 43 44 45 44 46 50 50 47 46 45 44 43 40 37 37 38 39 39 39 39 39 41
29 29 30 31 32 34 35 35 34 34 34 35 35 36 37 38 39 39 41 44 44 44 45 46 46 49 50 48 46 46 46 45 42 40 39 40 40 39 38 38 38 39

ECMWFNIL_925_spd_027.txt.gz
Wind_Speed
26 26 26 25 25 24 23 23 23 22 22 22 22 22 21 21 20 18 17 15 14 13 13 14 15 16 17 18 18 19 20 21 22 23 25 26 27 28 29 31 33 35
27 27 26 26 25 24 24 24 23 23 22 22 22 22 22 23 22 21 20 18 16 15 15 16 16 16 17 17 18 19 20 21 22 22 23 25 27 28 29 30 31 33
26 26 26 26 25 24 23 23 23 23 22 22 22 22 22 22 23 23 22 22 20 19 17 16 16 16 16 17 18 19 20 21 22 22 24 25 25 27 29 30 30 31
23 23 23 23 23 22 22 22 23 23 22 23 23 22 22 22 22 22 22 22 22 22 21 20 18 17 17 17 17 19 20 21 22 22 24 25 26 27 28 29 31 32
18 19 19 19 20 20 20 20 21 21 21 22 22 23 23 23 24 24 23 23 22 22 22 21 21 20 19 17 17 18 19 20 20 21 24 26 26 26 28 29 30 32
14 15 16 16 17 17 18 19 19 19 20 19 21 21 21 21 23 24 25 25 25 24 23 23 22 21 20 19 18 18 19 20 20 20 23 25 26 26 27 28 30 32
12 12 13 14 15 16 16 18 19 19 20 20 21 21 20 20 20 20 22 23 25 25 26 26 25 24 23 21 20 20 19 20 21 21 22 24 25 27 27 28 30 32
10 11 12 13 14 15 15 17 18 19 20 20 22 23 23 22 22 21 21 21 22 23 24 26 27 27 26 25 24 23 22 21 20 21 23 24 25 27 27 28 30 32
11 13 15 16 17 17 17 19 20 21 22 22 23 24 24 24 24 24 24 24 24 24 24 24 25 26 27 28 27 27 26 25 23 22 23 24 25 26 27 28 30 32
14 15 17 19 20 20 21 22 23 24 25 25 26 27 28 27 27 26 26 26 26 26 26 26 25 25 25 27 28 29 29 28 28 26 26 26 26 26 27 27 29 31
18 18 20 22 22 24 24 24 24 26 27 28 28 30 31 31 30 29 28 28 28 28 28 29 28 27 26 26 27 28 29 30 30 29 29 29 29 28 28 27 28 30
24 24 25 26 27 28 28 28 28 29 29 30 30 32 33 34 34 33 32 31 30 30 30 30 30 29 29 29 29 28 28 29 30 31 31 31 31 31 30 29 29 30
27 28 29 30 31 32 33 33 33 33 33 33 33 33 34 35 35 35 35 34 33 33 33 33 33 32 32 32 32 31 30 30 31 31 32 33 34 33 32 31 31 31
26 28 29 31 33 34 35 36 36 36 36 36 36 36 36 36 36 36 36 35 35 34 34 34 34 35 35 34 34 33 32 32 33 33 33 34 35 36 36 35 35 34
26 28 29 31 33 35 36 37 37 38 38 38 38 38 38 38 37 37 37 36 36 35 35 35 35 35 36 35 34 34 34 35 35 35 35 35 35 36 37 37 37 37
26 29 31 32 34 35 36 37 38 39 39 39 39 39 39 39 39 38 37 36 37 37 37 37 37 37 38 37 35 34 35 36 36 36 37 36 36 37 37 38 38 38
27 30 31 32 34 35 36 37 38 38 39 40 40 41 40 39 39 39 38 38 38 38 39 39 39 40 41 39 35 33 33 35 36 37 38 38 38 38 38 39 39 38
28 30 30 31 32 33 34 34 35 36 37 38 39 40 40 40 40 40 41 41 40 40 41 42 42 43 42 38 35 34 34 35 37 37 38 38 38 38 39 40 39 39
28 28 29 30 30 30 31 32 33 35 36 37 37 38 38 39 40 41 42 42 41 41 43 44 45 47 45 39 36 35 34 35 36 38 38 39 40 39 40 40 40 40
27 26 27 28 28 29 31 33 34 35 35 35 35 36 38 39 40 41 41 42 42 42 42 44 47 49 45 40 37 37 36 36 37 38 39 40 41 41 41 41 41 40
24 25 26 28 29 30 31 32 32 33 34 34 34 36 37 38 39 40 41 42 42 42 42 44 47 47 43 40 39 38 38 38 38 39 39 39 40 41 41 41 41 41
23 25 27 29 30 30 31 31 32 32 33 33 33 36 37 37 38 38 39 41 42 41 40 43 47 46 42 40 40 39 39 38 38 38 38 39 41 42 42 42 41 41
23 25 27 28 29 30 31 32 32 33 33 32 33 35 36 35 36 37 38 40 41 42 40 42 46 46 42 41 40 39 39 38 37 37 37 39 41 43 42 42 42 42
23 24 26 28 30 31 32 33 33 33 34 32 31 33 35 35 35 37 40 41 41 41 40 41 45 46 42 41 41 40 39 39 38 37 38 39 42 43 43 43 44 44
23 25 26 28 30 31 32 32 33 33 33 32 31 32 35 37 37 37 41 42 40 39 39 39 42 45 42 40 40 39 37 37 37 36 37 37 38 39 41 44 45 46
24 26 27 28 29 31 31 31 31 32 32 32 33 34 36 38 37 37 40 42 40 38 39 39 40 42 41 37 36 36 35 35 35 35 34 35 36 36 37 40 42 43

ECMWFNIL_925_spd_030.txt.gz
Wind_Speed
27 26 25 25 24 24 23 23 23 24 24 24 24 23 23 23 23 23 23 23 22 22 22 21 20 20 19 17 17 16 16 16 17 17 18 19 19 20 21 22 22 23
24 23 22 22 22 22 22 22 22 22 23 23 22 22 21 22 22 22 22 22 22 22 21 21 21 21 21 21 20 19 18 18 17 17 17 18 19 20 21 22 23 24
21 21 21 21 21 21 21 21 22 23 23 23 23 23 23 23 23 23 23 23 23 23 22 22 22 22 22 22 21 21 21 20 20 19 18 18 19 20 21 22 23 23
19 19 19 19 19 20 21 21 22 23 23 24 24 24 25 25 25 24 24 24 24 24 24 24 24 24 24 24 23 22 22 21 21 21 21 20 20 20 21 21 23 23
17 17 18 19 19 19 20 21 21 22 23 23 24 24 25 25 26 26 26 26 26 26 26 25 25 25 25 26 26 26 25 24 23 22 22 23 22 22 22 22 23 24
14 15 15 16 17 17 19 20 21 22 23 23 23 24 24 24 24 25 26 27 27 28 28 28 28 27 27 26 26 26 26 27 27 26 25 25 24 24 24 24 25 26
10 12 13 14 15 16 17 19 19 20 22 22 23 23 23 24 24 24 25 26 26 27 27 28 29 29 30 29 29 28 27 27 28 28 29 29 27 27 26 25 26 27
9 11 12 13 15 16 17 18 19 20 20 21 22 22 23 24 25 25 26 26 26 27 27 27 28 28 29 31 31 32 32 31 30 29 30 30 30 31 30 28 27 28
10 11 13 14 15 17 18 19 19 20 20 21 22 23 24 25 26 27 27 28 28 28 28 28 29 29 29 30 30 32 33 34 35 34 33 32 32 32 32 31 31 31
11 12 14 16 17 18 20 20 21 22 22 22 23 24 25 26 27 28 28 29 29 30 30 30 30 31 31 31 31 32 33 34 35 36 36 36 36 35 34 33 32 33
12 14 16 18 19 21 22 23 24 24 24 25 25 26 27 28 29 30 30 30 30 30 31 31 31 32 32 33 33 33 34 35 35 36 37 38 39 39 38 36 34 35
14 16 18 20 22 24 25 25 26 26 27 27 28 28 30 30 31 32 31 32 32 32 31 32 32 32 32 32 33 33 33 34 34 35 36 37 38 39 40 40 38 38
14 16 18 21 23 26 27 28 27 28 28 29 29 30 32 33 33 33 33 33 33 33 33 32 32 33 33 32 32 31 31 32 33 34 35 36 37 38 39 40 40 41
15 17 19 22 25 28 29 30 29 30 30 31 31 31 32 33 34 35 36 35 34 34 33 33 34 34 34 32 31 30 30 31 33 34 35 36 36 38 38 39 40 41
16 19 21 25 27 29 30 31 31 32 33 34 35 35 35 35 36 36 35 36 36 35 35 35 34 35 35 31 30 30 31 31 32 32 33 34 35 37 38 39 40 40
18 21 24 27 29 30 31 31 32 34 36 37 38 39 39 39 39 38 36 36 36 37 37 36 36 37 35 30 28 29 30 31 32 33 33 34 35 37 38 39 40 40
20 23 26 28 29 30 31 32 33 35 36 37 39 39 40 39 39 39 39 37 36 37 38 39 39 39 34 30 29 30 30 31 33 35 35 36 36 37 39 40 40 40
22 25 26 27 28 29 30 32 34 35 36 37 37 37 38 39 39 39 39 38 36 37 38 39 40 39 33 31 32 32 31 31 33 35 36 36 36 37 38 40 41 41
23 24 25 26 27 29 31 32 33 35 35 35 36 36 36 37 38 38 38 37 35 35 37 39 39 37 32 31 33 33 33 33 34 36 38 39 40 40 40 41 41 40
22 23 24 26 27 29 30 31 32 33 34 34 35 36 36 37 38 37 37 35 33 34 36 39 39 35 32 33 34 34 34 34 34 36 38 39 40 41 41 41 41 41
21 22 24 26 27 28 29 30 31 32 33 33 34 35 35 36 36 36 36 35 34 34 36 40 40 34 32 33 34 33 33 33 32 33 34 35 37 38 38 39 41 42
20 22 24 25 26 27 28 29 30 30 31 32 34 35 34 34 35 35 35 36 36 35 36 41 41 34 31 32 32 31 32 31 31 31 32 34 35 36 36 36 37 38
20 22 23 24 25 27 28 28 29 30 30 30 32 34 34 34 35 36 35 34 36 36 36 39 40 34 30 31 31 31 31 31 30 31 31 32 33 33 33 33 33 33
20 21 22 24 24 25 27 28 28 30 30 29 30 33 35 35 35 36 35 33 34 36 35 36 39 35 30 31 32 30 30 31 30 30 31 31 32 32 31 31 31 31
19 20 21 22 24 25 26 27 28 29 30 30 30 32 34 35 34 35 36 34 34 36 34 34 37 37 32 31 32 30 29 31 31 31 31 32 32 33 32 32 32 33
18 19 20 21 23 25 25 26 27 29 30 31 32 32 33 34 33 33 36 36 34 35 35 34 36 37 33 30 31 30 29 31 31 32 33 33 33 34 35 34 34 34

ECMWFNIL_925_spd_033.txt.gz
Wind_Speed
21 21 22 22 22 22 22 22 22 22 22 21 21 21 21 20 20 20 20 20 20 20 20 20 20 21 21 21 21 21 20 20 19 18 18 18 18 18 18 18 18 18
19 19 19 20 20 20 20 20 20 20 20 20 19 19 18 18 19 19 20 20 20 20 20 20 21 21 21 21 21 21 21 21 20 20 20 19 19 19 18 18 18 18
17 17 18 18 19 19 19 19 19 19 19 19 19 19 19 19 19 19 20 20 20 20 20 20 21 21 22 22 22 22 22 22 22 22 22 21 21 21 20 19 19 19
16 16 17 17 18 18 18 17 18 18 18 18 19 19 19 20 20 21 21 22 22 22 22 22 22 22 22 22 22 22 23 23 24 25 25 24 24 24 23 23 22 22
15 15 15 16 16 17 17 17 18 18 17 17 18 18 19 19 20 21 22 23 23 24 25 25 25 25 26 26 26 25 25 24 24 26 27 27 27 27 27 27 27 27
13 14 14 15 15 15 16 17 17 17 17 17 17 18 19 20 21 21 22 23 23 24 24 25 25 26 27 28 29 29 29 29 28 28 28 29 29 30 30 30 30 30
12 12 13 13 15 16 17 18 18 17 17 17 18 19 20 21 22 23 24 24 24 25 26 26 27 27 28 29 29 30 30 31 31 31 31 31 31 31 31 31 31 32
9 10 11 13 15 17 18 19 19 19 19 19 20 21 22 23 24 25 26 26 27 27 28 28 29 30 30 31 31 31 32 32 32 32 33 33 33 33 32 31 31 32
6 8 10 12 15 17 19 20 20 20 20 21 22 23 24 24 25 26 27 28 28 29 29 30 31 31 31 31 31 31 32 33 33 33 33 33 34 35 35 33 32 33
5 8 10 13 15 17 19 20 21 21 21 21 22 23 25 25 26 27 28 28 29 29 30 30 30 30 29 29 28 29 29 31 32 32 32 32 33 34 35 34 34 35
5 8 10 12 14 16 18 20 21 21 21 22 23 25 26 27 28 28 28 29 29 29 30 29 29 28 28 28 27 26 27 28 29 30 31 31 32 33 34 33 33 35
5 7 10 12 14 16 18 20 21 22 22 23 24 26 28 29 29 29 29 29 30 29 29 29 28 27 27 27 26 26 25 27 28 29 30 31 32 33 33 33 33 34
5 7 9 11 14 16 19 21 22 23 24 25 26 28 29 29 30 30 29 29 30 30 29 28 28 27 26 26 25 25 25 27 28 29 30 31 32 33 33 34 34 35
6 8 11 13 16 18 21 23 24 25 26 28 29 29 30 30 30 30 31 31 30 30 29 28 28 27 26 25 25 25 26 28 29 30 31 33 34 35 36 36 37 37
8 10 13 15 18 21 23 25 27 28 29 30 31 31 30 31 31 31 32 33 33 32 31 30 29 28 26 24 25 27 28 29 31 32 33 35 37 38 38 38 38 38
10 12 15 17 20 23 25 27 28 29 31 32 32 32 32 32 32 32 32 32 34 34 34 32 30 29 27 25 24 26 29 31 33 35 35 35 37 38 39 39 38 38
12 14 17 19 22 24 26 27 29 30 31 32 32 33 33 33 33 33 33 33 34 35 34 33 32 30 29 28 26 25 27 30 33 36 36 36 37 37 39 39 38 38
15 17 19 21 23 25 26 27 28 29 30 31 31 32 33 33 33 33 33 33 34 35 34 33 33 32 30 29 28 26 26 27 30 33 34 34 34 33 33 33 32 33
17 19 20 22 23 24 26 27 28 28 29 30 30 31 32 32 32 32 33 33 33 34 35 35 34 34 32 29 28 27 27 27 28 29 30 30 30 28 28 28 28 29
18 19 20 22 22 24 25 26 26 27 27 28 29 30 31 32 32 32 32 31 31 32 34 35 35 35 33 30 29 28 28 28 28 28 28 28 28 27 27 28 28 28
19 20 21 22 23 24 25 25 25 26 27 27 28 29 30 31 32 32 32 32 31 32 34 36 35 34 33 31 29 28 28 29 28 27 27 27 27 26 26 26 26 26
19 20 21 22 23 24 24 24 25 26 26 27 28 28 29 30 30 31 32 32 32 32 33 36 36 34 32 30 29 28 29 28 27 27 27 27 27 26 26 26 26 25
17 19 21 21 22 23 24 24 24 25 25 25 27 28 29 30 30 31 31 31 32 32 33 36 38 35 31 30 29 28 29 29 28 27 27 27 27 26 26 26 25 25
16 18 19 20 21 22 23 23 24 24 24 24 25 27 29 29 30 31 31 30 31 32 32 34 37 35 31 30 29 28 28 29 28 28 28 29 28 27 26 26 26 27
15 16 17 18 20 21 21 23 23 23 23 23 24 25 28 29 29 30 31 31 31 32 32 33 36 36 33 31 29 27 27 28 30 29 30 30 29 28 28 28 29 31
15 16 17 18 19 20 21 21 22 22 23 23 24 25 27 28 28 28 31 32 32 32 32 32 34 36 33 30 29 28 27 28 30 30 31 32 32 32 32 32 33 35

ECMWFNIL_925_spd_036.txt.gz
Wind_Speed
24 23 24 24 23 22 21 20 20 19 20 19 19 20 19 19 19 18 19 19 19 19 19 19 19 19 18 18 18 18 18 18 18 17 16 16 16 16 16 15 15 14
22 22 22 22 21 21 20 19 18 18 18 18 18 18 18 18 18 18 18 18 18 18 18 18 19 19 18 19 19 19 20 20 20 20 20 20 20 20 19 19 18 17
20 20 20 20 20 19 18 18 17 17 17 17 17 18 19 19 20 20 20 20 20 20 20 20 20 20 20 20 20 21 21 21 22 22 22 22 23 23 23 23 22 21
19 19 19 19 19 18 17 16 16 17 16 17 17 18 19 19 20 20 21 21 22 22 22 23 23 23 23 23 23 23 23 23 23 24 24 24 24 25 25 25 25 25
17 17 16 16 16 15 14 14 15 15 15 15 16 17 17 18 19 20 21 21 22 23 23 24 24 25 26 26 26 26 26 26 26 27 27 27 27 27 26 26 27 27
14 13 13 13 13 12 13 13 14 14 15 16 16 17 18 19 20 21 21 22 22 23 24 24 25 26 27 27 28 28 28 29 29 29 30 30 30 30 29 28 28 29
11 10 11 11 11 11 12 13 14 14 15 16 16 17 18 19 21 22 23 23 23 24 24 24 25 25 26 26 27 28 28 28 29 29 30 31 31 32 31 30 30 31
8 8 8 8 9 10 11 12 13 14 15 16 16 17 18 19 21 22 23 23 24 25 25 25 26 25 25 26 26 27 28 28 28 28 29 30 31 32 32 31 32 33
5 5 5 6 7 8 10 11 13 15 16 17 18 19 20 21 22 23 24 24 25 25 26 26 26 26 26 26 26 27 27 28 28 27 28 29 30 31 32 31 31 33
2 1 3 4 6 7 9 11 13 15 17 19 20 21 22 23 24 24 25 26 26 27 27 27 26 26 26 26 26 26 27 27 28 28 28 28 29 30 30 30 30 32
1 2 2 4 5 7 9 11 14 17 19 21 22 24 25 25 26 26 27 27 28 28 27 27 26 26 26 26 26 25 26 27 28 28 28 28 29 29 29 29 29 31
5 5 5 5 6 8 10 13 16 19 21 23 24 25 26 27 27 27 27 28 28 27 27 27 26 26 26 26 26 27 27 28 28 28 29 29 30 30 30 30 30 31
9 8 7 7 7 9 12 15 17 20 22 23 25 25 26 27 27 27 27 27 27 27 27 26 27 27 26 26 27 28 29 29 30 30 30 31 31 32 31 32 32 31
12 10 9 8 9 11 13 16 18 20 22 23 24 25 25 26 27 27 27 27 27 27 26 27 27 27 27 27 28 29 29 30 30 30 31 33 33 33 32 32 32 31
13 11 10 9 11 13 15 17 19 21 22 23 24 25 25 26 26 26 27 27 27 27 27 27 27 27 27 27 28 28 28 29 30 30 31 32 34 34 33 31 30 30
13 11 11 11 12 15 17 19 20 22 22 23 24 25 25 26 26 26 27 27 28 28 28 28 28 28 28 27 25 25 26 27 28 27 26 27 29 31 32 30 28 27
14 12 12 13 14 16 18 20 21 22 23 24 24 25 26 26 27 27 27 28 28 29 29 29 29 29 29 28 26 23 22 23 23 23 22 22 23 25 27 26 25 23
14 13 13 14 16 18 20 21 22 23 24 25 25 26 26 27 27 27 28 28 29 29 29 30 30 30 29 28 26 22 20 21 22 22 22 22 22 22 23 24 24 23
14 14 14 15 17 19 20 21 22 23 24 25 26 26 27 27 27 27 28 28 29 29 31 31 31 31 30 28 26 23 21 21 22 22 22 23 23 22 22 22 23 24
14 14 15 16 18 19 20 21 22 23 24 24 25 26 26 27 27 28 28 28 29 29 31 32 32 31 30 28 26 25 23 22 22 22 23 23 22 21 22 21 21 22
14 15 16 17 18 20 21 22 23 24 24 24 25 25 26 26 27 27 28 28 29 30 31 33 32 30 29 28 27 25 24 22 22 22 22 22 22 21 21 21 21 22
14 15 16 18 19 20 22 22 23 23 23 24 25 25 25 26 26 27 28 29 29 29 31 33 32 30 29 29 26 25 24 23 22 22 22 23 23 22 22 21 21 22
14 15 17 18 20 21 21 22 22 23 23 23 25 26 26 26 27 28 28 29 29 29 30 32 33 31 29 28 26 23 23 24 24 24 24 24 25 24 23 22 21 21
14 16 18 19 20 20 20 21 22 22 22 22 23 26 27 26 27 28 28 28 28 28 28 30 32 30 28 27 25 22 22 24 25 27 28 28 27 26 23 21 22 24
15 16 18 18 19 19 19 21 21 21 22 22 23 25 26 27 27 28 29 29 27 27 27 28 30 30 27 25 25 22 22 24 26 28 30 30 30 30 27 25 27 30
15 17 17 17 18 19 19 20 20 21 21 22 23 24 25 26 26 27 29 30 28 27 27 26 28 29 27 25 24 23 23 24 26 28 30 32 33 32 31 30 32 35

ECMWFNIL_925_spd_039.txt.gz
Wind_Speed
23 23 23 24 23 22 21 21 20 20 20 19 19 19 18 18 17 16 16 16 16 16 16 16 16 16 16 17 17 17 17 17 18 18 18 18 18 18 18 17 17 16
22 22 22 23 22 21 20 20 19 18 19 18 18 17 17 16 16 17 17 17 17 17 17 18 18 18 18 19 19 19 19 19 19 20 20 20 20 20 19 20 19 19
22 21 21 21 21 20 19 18 18 18 18 17 17 17 17 17 18 18 18 19 19 19 19 20 20 20 20 21 21 21 22 22 22 23 23 23 23 23 22 22 22 22
21 20 20 20 19 19 18 17 18 18 17 17 17 17 17 17 17 18 18 18 19 19 19 20 20 21 21 22 22 23 23 24 24 25 25 25 25 25 25 25 25 25
19 19 19 18 18 17 16 16 17 16 16 16 16 16 16 16 17 17 17 17 17 18 18 19 20 20 21 21 22 23 24 24 25 25 26 26 26 27 27 27 27 27
18 17 17 16 15 14 14 15 15 14 14 15 15 15 15 16 16 16 16 16 16 17 18 18 19 20 20 21 22 22 23 23 24 24 25 26 26 26 26 27 28 28
16 15 14 13 12 11 11 12 12 12 13 13 13 13 14 15 15 15 15 16 16 17 18 19 19 20 21 21 22 23 23 23 24 25 25 26 27 27 27 27 28 29
13 12 11 10 9 9 8 9 9 10 11 12 13 14 15 16 17 17 17 18 18 19 19 19 20 20 21 21 22 23 23 23 24 25 26 27 27 28 28 28 28 29
11 10 8 7 6 5 5 6 7 8 10 12 14 15 16 17 18 18 18 19 19 20 20 20 20 21 21 21 22 22 23 24 24 25 25 26 27 27 28 28 28 28
9 8 6 4 3 2 3 4 6 8 10 12 14 16 17 17 18 18 19 19 20 20 21 21 21 22 22 22 22 22 23 24 24 24 25 25 26 26 26 26 26 27
8 7 5 3 2 0 2 4 6 8 10 13 15 16 17 18 18 19 19 20 20 21 21 21 21 21 22 22 22 22 23 23 24 25 25 25 25 25 25 25 25 26
8 7 5 4 3 2 3 4 6 8 11 13 15 16 17 18 18 19 20 20 20 20 21 21 21 21 21 22 22 22 23 23 24 25 25 26 26 26 25 25 25 25
9 8 7 6 5 5 5 5 7 9 11 13 15 16 17 18 19 20 20 20 20 20 20 20 21 21 21 21 22 22 23 24 25 25 26 26 26 26 26 25 25 25
11 10 9 8 8 7 7 7 8 10 12 13 15 16 18 19 20 20 20 21 21 21 20 21 20 20 21 22 22 23 23 24 25 25 26 27 26 25 25 25 26 25
13 12 11 11 10 9 9 9 9 11 13 14 15 17 18 19 20 20 21 21 21 21 21 21 21 21 21 21 21 22 22 23 25 25 25 26 26 26 25 24 24 23
15 14 13 13 12 11 11 10 11 12 13 14 16 17 19 20 20 21 21 21 21 21 21 21 21 20 20 20 19 19 20 21 22 22 21 22 24 25 24 21 19 18
17 16 15 15 14 13 12 11 12 13 13 15 16 18 19 20 20 21 21 21 21 21 22 21 20 20 19 19 17 16 17 18 19 18 18 19 19 20 19 18 17 16
19 19 18 17 16 14 13 12 12 13 14 16 17 19 19 20 20 21 21 21 21 21 21 21 20 19 19 18 18 16 15 16 17 16 17 18 17 16 17 17 17 17
21 20 19 18 16 15 13 13 13 13 14 17 18 19 20 20 20 21 20 21 21 21 22 22 21 20 19 18 18 17 15 15 16 16 18 19 16 15 16 16 16 17
23 22 20 19 17 15 14 13 13 13 15 17 19 19 20 20 20 21 21 21 21 22 23 23 21 20 20 19 18 18 16 15 16 17 20 22 18 15 15 15 15 15
24 22 20 18 16 14 14 13 13 14 16 18 19 19 20 20 21 21 21 21 22 22 24 23 21 20 20 19 18 18 16 15 17 19 20 20 17 15 15 15 15 15
24 22 20 17 15 14 14 13 14 15 17 18 19 19 20 20 21 21 22 22 22 23 24 24 22 20 19 19 19 17 16 16 17 17 17 17 16 16 16 15 15 16
23 21 18 16 15 14 14 14 15 16 17 19 19 20 20 20 22 22 22 23 23 23 24 25 23 20 19 19 18 17 16 17 16 17 17 18 18 17 17 17 18 21
22 19 17 15 15 15 14 15 15 16 17 18 19 20 21 21 22 23 22 23 23 22 23 24 23 20 18 19 18 16 16 16 17 19 22 21 20 19 19 22 26 27
20 18 16 15 15 15 14 15 16 16 17 18 18 20 21 22 22 23 23 23 22 22 21 21 22 20 18 18 18 16 15 16 17 20 22 22 21 24 27 30 30 29
19 17 16 15 15 15 15 15 15 16 17 18 19 20 21 22 22 23 24 24 22 22 21 20 21 21 19 18 18 16 15 17 18 19 22 24 27 30 32 30 28 28

ECMWFNIL_925_spd_042.txt.gz
Wind_Speed
25 24 24 24 23 22 21 20 19 19 19 18 17 17 16 16 15 15 15 14 14 14 14 14 14 14 14 14 14 14 14 14 15 15 15 15 15 15 15 15 15 15
23 23 23 23 22 21 19 19 18 18 18 18 17 17 16 15 15 15 15 15 15 15 15 15 15 16 16 16 16 16 16 16 16 16 16 16 16 17 17 16 16 17
22 21 21 21 21 20 19 18 18 17 18 17 17 17 17 17 17 16 16 16 16 16 16 17 17 17 17 17 18 18 18 18 18 19 19 18 18 19 18 18 18 18
22 21 20 20 20 19 18 18 17 17 17 17 17 17 17 17 17 17 16 16 16 16 16 16 17 17 17 17 17 17 18 18 19 19 19 19 19 20 20 19 19 20
21 21 20 20 19 18 17 17 17 16 16 16 16 16 16 16 15 15 14 14 14 14 14 14 15 15 15 16 16 16 16 17 18 18 18 18 19 19 20 20 20 20
21 21 20 20 18 17 16 16 15 14 14 14 13 13 13 13 13 12 12 12 12 12 12 13 13 14 14 14 15 15 15 16 16 17 18 18 18 19 19 20 20 19
22 21 20 19 17 16 15 14 13 12 11 11 10 10 11 11 11 11 11 12 12 12 13 13 14 14 14 14 14 15 15 15 16 17 17 17 18 18 19 19 19 19
22 21 19 18 16 14 12 11 10 9 9 8 8 8 9 10 11 12 13 13 14 14 14 14 15 15 15 15 14 15 15 15 16 16 17 17 17 18 18 18 18 17
21 19 18 16 14 12 11 9 8 7 6 6 6 7 9 10 12 13 14 14 14 15 15 15 15 15 15 15 15 15 15 15 16 16 16 16 17 17 17 16 16 15
20 18 17 15 13 11 9 7 6 5 4 4 6 7 9 10 12 13 14 15 15 15 15 15 15 15 15 15 15 15 15 15 15 16 16 16 16 16 16 15 14 14
20 18 16 14 12 9 8 7 5 3 3 4 5 7 9 10 12 13 14 14 15 15 15 15 15 14 14 14 14 15 15 15 16 16 17 17 17 17 16 14 13 14
20 18 16 13 11 9 8 6 4 2 1 3 5 7 8 10 11 13 14 14 14 14 14 14 14 14 14 14 14 15 15 16 16 16 17 17 17 17 15 14 14 14
20 18 16 13 12 10 8 6 4 2 1 3 5 7 8 10 11 13 13 14 14 14 14 13 13 13 13 14 14 15 16 16 16 16 17 17 16 15 14 14 15 14
20 18 16 14 13 11 9 7 6 4 3 4 6 7 8 9 11 13 13 14 14 14 13 13 13 13 13 14 14 14 15 15 16 16 16 16 16 15 15 15 16 15
21 19 17 16 14 12 10 9 7 6 5 6 7 8 9 10 11 13 14 14 14 14 13 12 12 13 13 13 14 14 14 15 16 16 15 15 15 15 16 15 15 14
22 20 18 17 15 14 12 11 9 7 7 7 8 9 9 10 12 13 14 14 14 14 13 12 12 12 12 12 12 13 14 14 15 16 15 13 12 13 15 15 14 14
23 21 20 19 17 16 14 12 11 9 9 9 9 10 10 11 12 13 14 14 14 14 13 12 12 12 12 12 11 11 12 13 14 14 13 12 11 11 13 15 15 15
25 24 22 21 19 18 16 14 12 11 10 10 11 11 11 12 13 14 14 14 14 14 13 12 12 12 12 12 11 11 11 11 12 13 12 11 11 12 14 16 15 16
27 26 24 23 21 20 18 15 14 12 12 12 13 13 12 12 13 14 14 14 14 14 13 12 12 12 12 12 11 11 10 10 12 13 11 12 14 15 16 16 15 16
29 27 26 25 23 22 19 17 15 14 14 14 14 13 13 13 14 15 15 14 14 15 14 13 12 12 12 11 11 11 9 9 12 13 13 16 17 16 14 14 14 15
30 29 28 27 25 23 20 18 16 15 15 15 15 14 14 14 15 15 15 15 15 15 15 13 12 12 12 11 11 11 9 10 13 14 15 16 15 13 12 12 13 14
31 30 30 29 27 24 21 19 18 17 17 16 16 15 14 15 16 16 16 16 15 15 15 14 12 11 12 11 11 11 10 12 14 14 14 14 12 12 11 11 12 13
32 32 32 30 28 25 22 20 19 18 17 17 16 16 15 16 17 17 16 16 15 15 16 15 12 11 12 12 12 11 11 12 13 12 12 12 12 12 13 12 12 13
34 33 32 30 28 25 23 21 20 19 18 17 16 16 16 17 17 18 17 16 16 15 16 16 14 12 12 12 12 11 11 11 12 11 11 12 13 13 12 12 13 16
34 33 31 29 28 25 23 22 21 19 18 17 17 17 18 17 17 18 18 17 16 15 15 16 16 13 12 13 13 12 10 10 10 10 11 12 12 13 14 15 17 18
32 31 30 29 27 25 24 22 20 19 18 18 18 18 18 18 18 18 19 18 17 16 15 15 16 14 13 13 13 12 9 9 9 10 12 13 13 15 19 19 18 17

ECMWFNIL_925_spd_045.txt.gz
Wind_Speed
26 26 25 24 23 22 22 21 20 21 20 19 19 17 16 15 14 13 13 13 12 12 12 12 12 12 12 12 12 12 12 12 13 13 12 12 12 13 13 13 12 13
25 25 25 24 24 23 22 22 21 21 20 19 18 17 16 15 14 13 13 13 13 13 13 13 13 14 14 13 13 13 13 13 14 15 14 13 13 13 14 13 13 13
25 25 25 25 24 23 22 22 21 20 20 19 17 16 15 14 14 14 14 14 14 14 14 14 14 14 14 14 13 13 13 13 14 15 14 13 13 14 15 14 13 14
25 25 25 24 24 23 22 21 21 20 19 18 16 15 14 14 14 14 14 14 13 13 13 12 12 12 12 13 12 12 12 12 13 14 13 12 12 13 15 15 14 15
25 25 25 24 23 22 21 21 20 19 18 16 15 14 14 14 14 13 12 12 12 11 11 10 10 10 11 11 11 11 10 10 11 13 13 12 12 13 15 15 15 14
26 25 24 24 23 22 21 20 18 17 16 16 15 14 13 13 12 11 11 10 10 9 9 9 9 9 10 10 10 10 10 10 11 12 12 12 12 13 13 14 14 14
26 25 24 24 22 21 19 19 17 16 15 14 14 13 11 11 10 10 9 9 9 9 8 8 9 9 10 10 10 10 10 11 11 12 12 12 12 12 12 12 13 14
26 25 24 23 21 20 18 18 16 15 14 13 12 11 10 9 9 9 9 9 9 9 9 9 10 10 10 10 10 10 11 11 12 12 12 12 12 12 11 12 12 12
26 25 24 22 20 19 18 17 15 14 13 11 10 9 8 8 8 8 8 8 9 9 9 10 10 10 11 11 11 11 11 11 11 12 12 12 11 11 11 12 12 11
26 25 23 21 19 18 17 16 14 13 11 10 8 7 7 7 6 7 7 8 8 8 9 9 10 10 11 11 11 11 11 11 11 12 11 11 11 11 11 11 11 10
26 25 23 21 19 18 17 15 13 11 10 8 7 6 5 5 5 5 6 6 7 8 8 9 10 11 11 11 11 11 12 12 11 11 11 11 11 11 11 11 10 10
26 25 23 21 20 19 17 15 13 11 9 7 5 4 3 3 3 4 4 5 7 8 9 10 11 11 12 12 12 12 12 12 12 12 12 12 12 12 11 11 11 11
26 25 23 22 21 20 18 15 13 11 8 7 5 3 2 1 1 2 3 4 6 8 9 10 11 12 13 13 13 13 12 12 12 12 13 13 12 12 11 11 11 11
27 24 23 24 23 21 18 16 13 11 9 7 5 4 3 1 1 2 3 4 6 8 10 11 12 13 13 13 13 13 12 13 13 13 13 13 13 13 12 11 12 12
26 24 24 26 24 21 19 16 14 12 10 8 7 5 4 3 3 3 3 5 7 9 10 12 13 13 13 13 13 13 13 13 14 13 13 13 13 13 12 12 12 13
26 26 27 27 25 22 20 17 15 13 12 10 9 7 6 5 5 5 5 6 7 9 11 12 13 13 13 13 13 13 14 14 14 14 14 14 14 13 13 13 12 14
28 29 29 27 26 23 21 19 17 15 14 13 11 10 8 8 8 7 6 7 8 10 11 12 13 14 13 13 13 13 14 15 15 15 15 15 14 13 13 13 13 14
31 31 29 28 27 25 22 20 19 17 16 15 13 12 11 10 9 8 7 8 10 11 12 12 13 14 13 13 13 12 13 14 15 15 15 15 14 14 13 14 15 15
32 32 31 30 28 26 24 22 21 20 19 17 15 14 13 12 11 10 9 10 11 12 12 13 13 13 13 13 13 13 13 14 15 16 15 15 15 13 13 15 16 16
33 33 32 31 29 27 26 24 24 22 20 19 18 17 16 14 12 12 11 12 12 13 13 13 13 13 13 13 13 13 13 14 16 17 16 16 15 14 15 17 17 16
34 34 33 32 31 29 28 27 26 24 23 21 20 19 18 15 14 13 13 13 14 14 14 14 13 12 13 13 13 13 14 14 16 17 17 18 18 16 16 16 15 15
35 35 35 34 33 32 31 30 28 27 25 23 22 21 19 17 15 15 15 15 14 15 15 14 12 12 13 13 13 13 14 15 16 17 16 17 17 16 14 13 13 14
37 37 37 36 35 34 33 32 31 29 27 25 24 23 21 18 17 16 16 16 16 15 16 15 12 11 13 13 13 13 14 15 16 16 15 14 14 14 13 12 12 13
40 39 38 37 37 37 36 34 32 30 28 27 25 24 22 20 18 18 18 17 16 15 15 15 13 11 12 13 13 13 14 15 15 14 12 12 12 12 12 12 12 13
40 39 39 39 39 39 37 35 33 31 29 27 26 24 22 21 19 19 19 18 17 16 15 16 14 11 11 13 13 13 13 14 13 12 11 11 11 11 12 12 13 14
39 39 39 40 40 39 37 34 32 31 29 28 26 25 23 21 21 20 20 19 17 16 16 16 15 12 11 12 13 12 13 13 12 12 12 12 11 11 12 13 14 14

ECMWFNIL_925_spd_048.txt.gz
Wind_Speed
28 29 29 28 27 26 26 25 25 24 23 21 20 19 18 17 16 15 15 14 13 13 13 12 12 12 12 11 11 11 11 11 12 11 10 11 11 11 11 10 10 10
29 29 29 28 27 26 26 25 24 23 22 21 20 19 18 17 16 15 14 13 13 12 12 12 12 12 11 11 11 11 10 11 11 11 10 11 10 11 11 10 9 9
29 28 28 28 28 27 26 25 24 23 22 21 19 18 18 17 15 14 13 12 12 12 11 11 11 11 10 10 9 9 9 10 10 10 10 9 8 9 10 9 9 8
28 28 28 28 28 28 27 25 24 23 22 21 19 18 17 15 14 13 12 12 11 11 10 10 10 9 9 8 8 8 8 8 8 8 8 7 6 7 8 8 9 9
28 28 28 28 28 27 26 25 24 22 21 20 19 17 15 14 13 12 12 11 10 10 10 9 8 8 7 7 6 6 6 6 6 6 6 6 5 6 7 8 9 9
28 28 28 28 27 27 26 25 23 22 21 19 17 15 14 13 13 12 11 10 10 9 9 8 7 7 6 6 5 5 5 5 5 5 5 6 6 6 7 7 8 8
29 29 29 28 28 26 25 24 23 21 19 17 16 15 14 13 12 11 10 9 9 9 8 7 7 6 5 5 5 5 5 5 5 5 6 6 6 6 6 6 7 7
30 30 29 29 28 26 25 24 22 20 18 16 16 15 14 13 11 10 9 8 8 8 7 7 6 6 5 5 5 5 5 5 6 6 6 7 6 6 6 6 7 7
30 30 30 29 28 26 25 24 21 19 18 17 16 16 14 12 10 9 8 7 7 7 7 7 6 6 6 6 6 6 6 6 7 7 7 7 7 7 7 7 8 8
31 31 30 29 28 27 25 23 21 20 19 17 16 15 14 12 10 8 7 6 6 6 6 6 6 6 6 6 7 7 7 7 7 7 7 7 7 8 8 8 8 9
32 31 30 29 28 27 25 23 22 21 20 18 17 15 13 11 9 8 6 5 5 5 5 5 5 6 6 7 8 8 8 8 8 8 8 8 8 8 8 9 9 10
33 32 31 30 29 27 25 24 22 22 21 19 17 15 13 11 9 8 6 5 4 4 3 4 5 6 7 7 8 8 9 9 9 9 9 9 9 9 9 10 10 10
33 33 32 30 29 27 26 25 24 22 21 19 16 14 13 11 10 8 6 4 3 2 2 2 4 6 7 8 9 9 10 10 10 10 11 10 11 11 10 11 11 10
34 33 32 30 29 28 27 26 25 23 20 19 17 15 13 12 10 8 6 5 3 2 1 1 3 6 7 8 9 10 11 11 12 12 12 12 12 12 12 12 11 11
34 33 31 30 29 29 29 27 26 23 21 19 17 15 14 12 10 9 7 6 4 3 2 2 4 6 7 8 9 11 12 12 13 13 13 14 13 13 13 12 12 12
34 33 31 31 30 31 30 29 26 24 22 20 18 16 15 13 11 10 9 7 6 5 4 3 5 6 7 8 10 12 13 14 14 14 14 14 15 14 14 13 12 11
34 33 32 32 32 32 32 30 27 25 23 21 19 18 16 14 12 11 10 9 8 7 6 5 5 6 7 9 11 13 14 15 15 15 15 15 15 15 15 14 13 11
34 34 34 33 33 33 33 31 28 26 24 23 21 20 18 16 14 13 12 11 10 9 8 7 7 8 8 10 11 13 14 15 16 16 16 16 16 15 15 15 14 13
35 35 35 35 35 34 33 31 30 28 26 25 23 21 19 17 16 15 14 13 12 11 9 9 8 9 10 11 12 13 14 15 16 16 16 17 17 16 16 15 14 14
36 37 37 36 36 35 34 33 31 30 28 27 25 23 21 19 18 17 16 15 14 12 11 11 10 10 11 11 13 13 14 15 16 17 17 17 17 17 17 15 14 15
37 37 37 36 36 35 35 34 33 32 30 29 27 24 23 21 20 19 18 17 15 14 14 13 12 11 12 13 13 14 14 15 16 18 18 18 17 17 17 16 15 15
38 38 37 37 36 36 36 36 35 34 33 30 28 26 24 23 22 21 20 19 17 17 16 15 13 13 13 13 14 14 15 16 17 18 18 18 18 18 17 16 15 14
38 38 38 38 38 38 38 38 37 36 34 31 29 28 27 26 25 24 22 20 19 19 19 17 15 14 14 14 14 14 15 17 18 18 19 19 18 18 17 15 14 13
38 39 39 39 39 40 40 39 38 37 35 33 31 30 29 28 27 25 23 22 21 21 20 19 16 15 15 15 15 15 16 18 19 18 19 19 18 17 16 15 14 13
39 40 40 39 40 41 41 40 39 37 35 34 33 31 30 29 27 26 25 25 24 23 22 21 18 16 16 16 15 15 17 18 19 18 19 19 18 17 16 15 14 13
39 39 40 40 41 41 40 39 38 37 35 34 33 32 31 29 29 28 27 26 26 25 24 22 20 17 16 16 16 16 17 18 19 19 20 20 18 17 16 15 14 13

ECMWFNIL_925_spd_051.txt.gz
Wind_Speed
37 37 36 36 35 35 34 33 32 31 30 28 27 26 24 23 21 19 18 17 16 16 16 15 14 13 12 12 11 10 10 9 9 8 7 7 7 7 7 7 7 7
36 35 35 35 35 34 33 32 31 30 29 27 26 25 24 23 20 18 17 17 16 16 15 14 13 12 11 11 10 9 9 8 8 7 6 5 6 6 6 6 6 6
35 35 35 35 35 34 32 31 29 28 28 26 25 24 23 22 20 18 17 16 16 16 14 13 12 11 10 9 9 8 7 6 6 5 4 4 5 5 5 5 4 4
35 35 35 35 35 34 32 31 30 28 27 26 25 24 22 21 19 19 18 16 15 15 13 12 11 9 8 8 7 6 5 5 5 4 3 3 4 4 4 3 3 3
35 35 35 35 34 33 32 32 30 29 27 26 25 23 21 21 20 19 18 16 15 13 12 11 9 8 7 6 5 5 5 4 4 4 3 2 3 2 2 2 1 1
36 35 35 34 34 34 33 32 30 29 27 26 24 23 21 20 19 18 17 16 14 13 11 10 9 8 7 6 5 5 5 5 4 4 3 2 2 1 1 1 0 1
36 36 35 35 34 34 33 32 30 29 27 25 24 23 21 20 19 18 16 15 14 12 11 10 9 8 7 6 6 5 5 4 4 3 2 2 2 1 1 1 1 1
37 36 36 36 35 34 33 32 30 28 27 26 25 23 21 20 19 18 16 15 13 12 10 10 9 8 7 7 6 5 4 3 3 2 2 2 2 1 2 2 3 3
37 37 37 36 36 35 33 32 30 29 27 26 25 23 21 20 18 17 16 14 13 11 10 10 9 8 7 6 5 4 3 2 2 1 1 1 1 2 3 4 4 4
38 38 38 37 36 35 34 32 31 29 28 26 25 24 22 21 18 17 16 14 13 12 11 10 9 8 7 5 4 3 2 1 1 1 2 2 3 4 5 5 5 5
39 39 39 38 37 36 34 33 31 30 28 27 25 24 23 22 19 17 15 14 13 12 11 10 9 7 6 4 3 2 1 1 2 2 3 4 4 5 6 6 6 6
40 40 40 39 37 36 35 33 32 30 29 28 26 25 23 22 20 18 16 14 13 12 11 10 8 7 5 3 2 1 1 2 3 3 4 5 6 6 7 7 7 7
41 41 40 39 38 37 35 34 33 31 30 28 27 25 24 22 20 18 17 15 13 12 11 9 8 6 5 3 2 1 2 3 4 5 5 6 7 7 7 8 8 8
42 41 40 39 38 37 36 34 33 32 30 29 27 25 24 22 20 19 18 16 14 12 11 9 8 6 5 3 2 2 3 4 5 6 7 7 8 9 9 9 10 10
41 40 40 39 38 38 37 35 34 33 31 30 28 26 24 22 21 20 19 17 15 14 12 10 8 7 5 4 3 4 5 5 6 7 8 9 9 10 10 11 10 11
41 40 40 39 39 39 38 37 35 34 32 31 29 27 25 24 23 21 19 18 16 15 14 12 10 8 7 6 5 5 6 7 7 8 9 10 11 11 11 12 11 11
40 40 40 40 40 39 39 38 37 35 34 32 31 29 27 25 24 23 21 19 17 16 14 13 11 10 9 7 7 8 8 8 8 9 10 11 12 13 12 13 12 11
40 40 40 40 40 40 40 39 37 36 35 34 32 30 29 27 26 24 22 20 19 17 16 14 13 12 10 9 9 10 10 10 10 10 11 12 13 14 14 14 14 12
40 40 41 41 41 41 40 39 38 38 37 36 33 31 30 28 27 25 23 22 21 19 17 16 15 13 12 11 11 12 12 12 12 12 13 14 14 15 15 15 15 14
40 41 41 42 41 40 40 40 40 40 39 36 34 32 31 30 28 27 25 24 22 21 19 18 16 15 14 13 13 13 14 14 14 14 14 15 15 16 16 16 16 15
40 41 41 41 40 40 40 41 41 41 40 37 35 34 33 32 30 28 27 25 24 22 21 19 18 17 17 16 16 15 15 16 16 17 17 17 17 17 17 17 16 15
41 41 40 40 40 41 41 41 42 42 40 39 37 36 34 33 31 30 28 27 25 24 23 22 20 19 19 18 17 17 17 18 18 19 19 19 18 18 18 17 17 16
41 41 41 40 41 41 42 42 43 42 41 40 39 38 36 35 33 31 30 28 27 26 25 24 22 22 21 20 19 19 19 20 20 21 21 20 20 19 19 18 18 17
41 41 42 42 42 43 44 44 43 42 42 42 41 40 39 37 35 33 31 30 29 28 27 25 24 23 23 22 21 20 21 22 22 22 22 22 22 21 20 20 19 18
41 42 42 42 43 44 44 44 43 43 43 42 42 41 39 37 36 35 34 33 32 30 28 27 26 25 25 25 23 22 23 23 24 24 24 24 23 23 22 21 20 20
40 41 42 43 43 44 43 43 43 42 42 42 42 40 38 37 37 36 36 35 33 32 31 30 29 27 27 27 25 24 25 25 26 26 26 26 25 24 23 22 22 21

ECMWFNIL_925_spd_054.txt.gz
Wind_Speed
44 45 45 44 44 43 42 41 39 38 37 35 34 32 30 28 27 25 23 22 21 20 19 18 16 15 14 13 11 10 10 9 9 9 8 8 8 8 8 8 8 8
43 44 44 44 43 42 41 40 38 37 36 35 33 32 30 28 27 25 23 22 21 20 19 17 15 14 13 12 10 9 9 8 9 9 8 8 8 8 8 8 8 8
42 43 44 43 43 42 40 39 38 36 35 34 33 31 30 29 27 25 23 22 21 19 18 16 15 13 12 11 10 9 9 8 8 9 8 8 8 8 8 8 8 8
42 43 43 43 42 41 40 39 38 37 35 34 33 31 30 28 27 25 23 22 20 19 17 15 14 13 12 11 10 9 9 8 8 8 8 8 8 8 8 8 8 8
42 42 42 42 42 41 40 40 39 37 36 34 33 31 30 29 27 26 24 22 20 18 17 16 15 14 13 12 10 9 9 9 9 8 8 9 9 8 8 8 8 8
41 41 42 41 41 41 40 40 39 38 36 35 33 31 30 29 27 26 24 22 20 18 18 17 16 15 13 12 11 10 9 9 9 9 9 9 9 9 9 9 9 9
42 41 42 41 41 41 40 40 38 37 36 34 33 31 30 29 27 25 23 21 20 19 18 17 16 15 14 12 11 11 11 10 10 10 10 10 10 9 10 10 10 10
42 42 42 42 42 41 40 40 39 37 36 34 33 31 30 28 27 25 23 21 20 19 18 17 16 15 14 13 12 12 12 12 11 11 10 10 11 11 11 11 10 10
42 42 42 42 42 42 41 40 39 37 36 34 33 31 30 28 26 24 23 22 21 20 19 18 17 16 14 13 13 13 13 12 12 11 11 11 12 12 11 11 11 11
43 42 43 43 43 43 42 41 39 38 36 34 33 32 31 29 26 25 24 23 22 21 20 19 18 17 15 14 14 13 13 13 12 12 12 12 12 12 12 11 11 11
43 44 44 44 44 43 43 42 40 38 37 35 34 33 32 30 28 26 25 24 23 22 21 20 19 17 15 14 15 14 13 12 12 12 12 12 12 11 11 11 11 11
44 45 45 45 44 44 44 42 41 39 38 36 35 34 33 31 30 28 26 25 24 23 22 21 19 17 15 15 15 15 13 13 12 12 11 11 11 11 10 11 11 11
45 45 45 45 44 44 44 43 42 40 39 38 36 35 33 32 30 29 27 26 24 24 22 21 20 17 16 16 16 15 14 13 12 11 11 10 10 10 10 11 11 11
46 45 45 45 44 44 44 44 43 41 40 39 37 36 34 32 31 29 28 27 25 24 23 22 20 18 17 18 17 15 14 12 12 11 11 10 10 10 10 11 11 11
45 44 44 44 44 44 45 44 44 42 41 40 38 37 34 32 31 30 29 28 27 26 25 23 21 19 18 18 17 15 14 13 12 11 11 10 10 11 11 11 11 11
43 43 43 43 44 44 45 45 44 43 42 41 39 37 35 33 32 31 30 30 29 28 27 25 22 20 19 18 17 15 14 13 12 12 11 11 11 11 12 12 12 12
42 42 42 43 44 44 44 44 45 44 43 42 40 38 36 34 33 33 32 31 30 29 28 26 24 22 20 20 18 16 15 14 13 12 12 12 12 12 12 12 13 13
42 42 42 43 44 44 44 44 44 44 43 42 41 39 37 36 35 34 33 32 31 30 29 27 25 23 22 21 19 17 16 15 14 14 13 12 12 12 12 13 14 14
41 41 42 43 43 44 44 43 43 43 44 43 42 40 38 37 37 36 34 33 32 31 30 28 26 24 23 22 20 19 18 18 17 16 15 14 13 13 14 14 15 15
38 40 41 42 42 42 42 42 43 44 43 43 42 41 40 40 39 37 36 35 34 33 31 29 27 26 24 23 22 21 20 20 19 18 17 16 15 15 15 15 16 17
37 38 40 40 40 40 40 41 42 42 42 42 42 42 42 41 40 39 38 37 36 34 33 31 29 27 26 25 24 23 22 22 21 20 20 18 18 17 17 17 17 18
37 38 39 39 39 39 39 40 41 42 42 42 42 42 41 41 41 40 39 38 37 36 35 33 31 29 28 27 26 25 25 24 24 23 22 21 20 20 19 19 19 20
38 38 38 38 37 38 39 41 42 43 43 42 42 42 42 42 42 42 41 39 38 37 36 35 33 31 30 29 29 28 27 27 27 27 26 25 23 22 22 22 21 22
37 38 38 37 38 40 41 42 42 42 42 42 43 43 43 44 43 42 41 40 39 39 38 37 35 33 31 32 31 30 29 30 30 29 29 28 27 26 25 24 24 25
36 37 38 38 39 41 42 42 41 41 41 42 42 43 43 43 43 42 42 41 41 40 39 38 37 35 33 33 33 32 31 32 32 32 32 32 30 30 29 27 27 27
36 37 38 39 40 41 41 40 39 39 39 40 41 41 41 41 41 41 42 42 42 41 41 40 40 37 36 35 35 34 33 34 34 35 35 35 34 33 32 31 31 30

ECMWFNIL_925_spd_057.txt.gz
Wind_Speed
36 36 38 40 42 45 46 45 43 43 42 41 40 38 37 35 34 32 30 29 27 26 25 23 21 20 19 18 16 14 13 11 10 10 9 9 8 7 7 7 6 5
36 37 39 41 43 45 45 45 44 43 42 40 39 38 37 36 34 33 31 30 28 26 25 23 21 19 18 17 15 13 12 11 10 10 10 9 8 8 7 7 6 6
36 37 39 41 44 45 45 44 43 42 42 40 39 38 37 36 35 33 31 30 28 27 25 23 21 20 18 16 15 12 11 11 11 12 11 10 9 9 8 8 8 8
36 37 39 42 44 46 45 45 43 42 42 41 39 38 37 36 35 34 32 30 28 27 25 23 22 20 18 16 14 13 12 12 12 12 12 12 10 10 10 9 9 10
37 38 40 43 44 46 46 45 44 43 42 41 40 39 38 37 36 34 33 31 29 27 26 24 22 20 18 16 15 14 14 13 13 13 12 12 12 11 11 11 11 11
38 40 42 44 44 45 46 45 44 44 42 41 40 39 38 37 36 35 33 32 29 27 26 25 23 21 19 17 16 15 14 14 15 14 13 13 13 12 12 12 12 12
40 41 43 44 44 44 45 45 44 44 43 42 41 40 39 37 36 35 33 32 30 28 27 25 24 22 20 18 17 16 16 15 15 15 14 13 13 13 13 13 13 13
41 43 44 43 43 44 44 45 44 44 43 42 41 40 39 37 36 35 33 32 30 28 27 25 24 22 20 19 18 18 17 16 16 16 15 15 15 14 14 14 14 14
42 43 44 44 44 44 45 45 45 44 43 43 42 40 39 37 36 35 34 32 30 28 27 26 24 22 21 20 19 18 17 17 16 16 15 15 16 16 15 15 15 15
43 44 45 45 45 46 45 45 45 44 44 43 41 40 39 38 36 35 34 32 30 29 28 26 25 23 21 20 19 18 17 16 16 16 16 16 16 16 16 16 16 16
43 45 46 47 46 46 46 45 45 45 44 43 42 40 39 38 37 35 34 33 31 30 29 27 25 23 22 21 19 18 17 16 16 16 17 17 17 16 16 16 16 16
44 45 47 47 46 46 46 45 45 45 44 43 42 41 40 39 38 36 35 33 31 30 29 27 25 23 22 21 20 19 18 17 17 17 17 17 17 17 17 17 17 16
45 46 46 46 46 46 45 45 45 45 44 43 42 41 40 40 39 37 35 33 32 31 29 27 25 24 23 22 21 20 19 19 19 18 18 18 18 18 18 17 17 17
44 44 45 45 45 45 45 45 45 45 44 44 43 42 41 41 39 37 35 33 32 31 29 27 26 25 24 23 22 21 20 20 19 19 19 20 20 19 19 18 17 17
40 41 42 43 44 44 45 45 45 45 44 44 43 43 42 41 39 37 36 35 34 32 30 28 27 26 25 24 23 22 21 21 20 19 20 21 21 20 19 19 18 18
37 39 40 41 43 44 44 44 44 44 44 44 44 43 42 41 39 38 37 36 35 33 31 30 29 27 26 25 23 21 21 21 20 20 21 22 22 21 20 20 19 18
36 36 37 38 40 42 42 42 43 43 43 44 43 42 41 40 39 39 38 37 35 34 32 31 30 28 26 25 24 22 22 22 21 21 22 23 23 22 21 20 18 18
34 34 35 36 37 38 39 40 40 41 42 43 43 42 41 40 40 40 39 37 36 34 33 32 30 29 27 26 25 24 24 23 22 22 23 24 24 23 21 20 19 18
34 34 34 35 35 35 36 37 38 40 42 43 42 41 40 40 40 39 39 38 37 36 34 33 31 29 28 28 27 26 26 26 25 25 25 25 25 24 22 21 20 19
34 34 34 34 34 34 35 36 38 40 41 41 41 40 39 40 40 39 39 39 38 36 35 34 32 31 30 30 29 29 29 29 27 27 27 27 26 25 24 23 21 20
33 34 34 34 34 34 35 36 37 39 39 40 40 40 40 40 40 40 40 39 38 37 36 35 34 33 32 32 32 32 32 31 30 29 29 29 28 27 26 25 23 22
32 33 33 34 34 34 35 35 36 38 38 38 38 38 38 39 39 40 41 40 39 38 38 37 36 35 35 34 35 34 33 32 32 31 31 32 31 30 29 27 25 25
32 33 33 33 33 34 34 35 36 37 37 36 37 37 38 39 40 41 41 41 40 40 40 39 39 38 37 37 37 36 34 33 34 34 34 34 34 33 31 30 29 28
31 32 32 33 33 34 35 36 36 35 36 36 37 38 39 40 41 40 40 40 41 41 42 42 42 41 40 39 38 37 35 35 36 36 36 36 36 35 34 33 32 32
30 31 32 32 33 35 36 36 35 35 35 35 36 37 38 38 38 38 39 41 42 43 44 45 45 43 41 39 38 37 36 36 36 36 37 39 39 38 37 36 36 36
30 31 32 32 34 35 35 35 34 33 33 33 34 35 35 36 36 38 40 42 43 44 45 45 45 44 42 40 39 38 37 36 37 38 40 41 41 40 40 40 40 39

ECMWFNIL_925_spd_060.txt.gz
Wind_Speed
34 33 32 32 34 37 39 39 38 39 39 40 41 40 40 39 37 36 34 33 31 30 30 29 28 28 27 26 24 23 22 21 20 19 17 16 15 14 14 14 13 13
33 32 32 33 36 38 39 39 39 40 41 42 42 41 40 39 38 37 35 33 32 31 30 29 29 28 27 26 25 23 22 21 20 19 17 16 15 14 14 14 14 13
32 33 34 35 37 38 38 38 39 41 43 43 43 42 41 40 39 37 35 34 33 32 31 30 29 28 27 26 24 22 21 20 20 19 17 15 14 14 14 13 14 13
33 34 35 36 37 37 36 38 40 42 44 44 44 43 42 41 40 38 36 35 34 33 32 30 29 28 26 25 24 22 21 19 19 18 16 15 13 12 13 13 13 13
34 35 36 37 38 37 37 39 42 44 44 45 44 44 43 42 41 39 38 36 35 33 32 31 29 28 27 25 24 22 21 20 19 17 15 14 14 12 12 13 13 13
35 36 38 38 38 37 38 40 44 46 46 45 45 44 43 42 41 40 38 37 36 34 33 32 30 29 27 26 24 22 21 20 19 17 14 14 14 13 13 13 13 13
37 38 39 39 38 38 39 41 45 47 47 46 45 44 44 43 42 40 39 37 36 35 33 32 31 29 28 26 25 23 22 20 19 17 15 14 14 14 14 14 14 14
38 39 39 39 39 38 39 42 45 47 47 46 45 45 45 44 42 41 39 38 37 35 34 32 31 29 28 27 25 24 22 20 18 17 16 15 15 15 16 16 16 16
37 39 39 39 40 40 40 43 45 47 47 46 46 46 45 44 42 41 40 38 37 36 34 33 31 30 28 27 25 24 22 20 18 17 16 16 16 17 17 17 17 17
38 38 39 40 40 41 41 43 45 47 47 46 46 46 45 44 42 41 40 39 37 36 34 33 31 30 29 27 25 24 22 20 18 17 16 16 16 16 17 18 18 18
37 38 39 39 40 40 41 43 45 46 46 46 45 45 44 43 42 41 40 39 37 36 35 34 32 30 29 27 25 23 21 19 17 16 16 16 16 16 17 18 18 18
36 37 38 38 38 39 40 42 44 45 45 45 44 44 44 43 42 41 40 39 38 36 35 34 32 30 29 27 25 23 21 19 17 16 16 16 16 17 17 18 18 18
36 36 37 37 38 38 39 41 43 44 44 44 43 43 43 43 42 41 40 39 38 36 35 34 32 30 29 27 25 23 22 20 18 17 16 16 17 18 19 19 19 19
35 35 36 37 37 38 38 40 42 42 42 42 41 42 42 43 42 42 40 39 37 36 35 33 32 30 29 28 26 24 23 21 19 18 17 17 17 19 20 20 20 20
34 35 35 36 36 37 37 38 39 39 40 40 40 41 41 42 41 41 39 38 36 35 34 33 32 31 30 28 26 25 24 22 20 18 16 17 18 20 21 21 21 22
33 34 34 34 34 35 36 37 37 37 37 38 39 40 41 41 40 39 38 37 37 36 35 34 33 32 30 29 27 26 25 23 20 18 17 17 19 21 22 22 23 23
32 32 32 32 33 34 35 35 36 36 36 36 38 39 39 40 39 38 37 37 37 37 36 35 34 33 31 29 28 27 25 23 20 18 17 18 20 22 23 23 24 25
31 31 31 32 33 33 34 35 36 36 36 36 37 38 39 38 38 38 38 38 37 37 36 36 34 33 31 30 29 28 26 24 21 18 17 19 21 23 23 24 26 27
30 31 32 33 34 35 36 36 37 37 38 38 38 38 38 38 38 38 37 37 37 37 36 35 34 33 32 31 30 28 26 24 22 20 20 21 23 24 25 27 29 29
31 32 33 34 35 35 36 36 37 37 38 38 38 37 37 37 37 37 36 36 36 36 36 35 35 34 33 32 31 29 27 25 23 22 23 24 26 28 29 30 31 30
31 32 33 33 34 34 34 34 34 35 35 35 35 35 35 35 35 35 36 36 36 36 36 35 35 34 33 33 32 30 28 27 26 26 26 28 30 32 32 33 33 32
31 32 32 31 31 31 31 32 32 32 32 32 33 32 32 32 33 34 35 36 36 35 35 36 36 35 34 34 33 31 30 29 29 30 31 32 35 36 36 36 35 34
29 29 29 28 28 29 29 30 30 30 30 30 30 31 31 32 32 33 33 33 33 34 36 37 37 35 34 34 34 34 33 32 32 34 36 37 39 39 38 38 38 37
27 27 27 27 28 28 29 29 28 28 28 29 29 29 29 30 30 29 29 30 32 34 36 38 38 36 36 36 36 36 35 34 36 38 39 40 41 41 41 40 40 40
26 27 27 27 27 27 28 27 27 26 27 27 27 27 28 28 28 28 29 30 32 34 36 37 38 37 37 37 37 37 36 36 37 38 39 41 41 42 42 42 42 42
25 26 26 26 26 26 25 25 25 25 26 26 27 27 27 28 28 29 31 33 35 36 37 38 38 38 37 37 37 38 38 38 37 38 39 41 41 41 42 43 44 44

ECMWFNIL_925_spd_063.txt.gz
Wind_Speed
33 33 33 33 33 32 32 33 34 34 32 31 32 33 33 33 35 35 35 35 34 34 33 33 33 32 32 32 31 30 29 28 27 26 25 24 23 23 22 21 20 19
33 33 33 33 33 32 32 34 34 34 34 32 33 34 35 35 36 36 36 36 36 35 35 34 33 32 32 32 31 31 30 29 27 26 25 23 23 22 21 20 19 17
33 33 34 34 33 33 34 34 34 34 35 35 35 36 38 38 38 37 37 37 37 36 35 35 34 33 33 32 32 31 30 29 27 26 24 23 22 21 19 19 18 17
33 34 34 34 34 34 34 35 34 35 37 37 37 38 39 39 39 39 39 39 38 37 36 35 34 34 33 32 31 30 29 27 26 25 23 22 20 18 18 18 18 17
33 34 34 34 34 34 34 34 34 36 38 39 38 39 40 40 40 41 41 40 39 37 36 35 35 34 33 32 30 29 28 26 25 23 22 21 19 18 17 17 17 17
34 34 34 34 35 34 34 34 34 36 38 39 38 39 40 40 42 43 42 41 39 38 37 36 35 34 32 31 30 28 27 25 24 23 21 20 19 17 17 17 16 16
35 35 35 35 35 34 33 33 34 36 37 38 37 37 39 41 43 43 42 41 40 38 37 36 35 34 32 31 29 28 26 24 23 22 20 19 18 18 18 17 16 14
34 35 35 35 34 33 33 33 34 35 36 36 35 36 39 42 44 44 42 41 40 39 38 37 35 34 33 31 29 27 26 24 22 21 20 19 18 18 18 18 16 14
34 34 35 35 34 34 34 33 34 36 36 36 35 37 40 43 44 44 43 41 40 39 38 37 36 34 33 31 29 27 25 24 22 21 20 18 18 18 18 17 16 15
34 34 34 34 33 34 34 34 35 36 36 36 36 37 41 44 43 43 43 42 41 40 39 37 36 34 32 30 28 26 24 23 22 21 19 18 17 17 17 16 16 15
34 34 34 34 33 33 34 34 36 36 36 36 37 39 42 44 44 43 43 42 42 40 39 37 35 33 32 30 28 26 24 23 21 20 18 17 17 16 16 15 15 14
33 34 34 34 34 34 33 34 35 36 35 36 37 40 42 44 43 43 42 41 41 39 37 36 35 33 32 30 28 26 24 22 21 19 18 17 17 16 15 15 14 13
34 34 34 34 34 34 34 34 34 35 35 36 37 39 42 43 42 42 41 40 39 38 37 36 35 33 31 30 28 26 24 23 21 19 18 17 16 16 15 15 14 14
34 34 34 33 33 33 33 34 34 34 35 36 37 38 40 41 42 41 40 39 38 37 37 36 34 33 31 30 28 26 24 23 21 19 18 17 17 17 16 16 15 15
32 33 32 32 32 32 33 33 33 33 34 34 35 37 39 40 40 40 40 39 38 37 36 35 34 33 31 30 29 27 25 23 21 19 18 17 18 18 18 17 15 15
31 32 32 32 32 32 32 33 33 33 33 34 35 36 37 38 38 38 39 39 38 37 36 35 33 32 31 30 28 26 24 23 21 19 18 19 20 21 20 17 14 15
31 31 32 32 32 32 32 33 33 33 33 34 35 36 37 37 38 38 39 39 39 38 37 35 34 33 32 30 27 25 24 23 21 19 20 22 24 22 20 16 14 16
32 32 32 32 32 32 32 32 32 33 34 35 36 37 38 38 39 40 40 40 39 39 38 37 36 34 32 30 28 26 25 24 22 21 23 26 25 23 19 16 16 18
32 33 33 32 32 32 32 32 32 33 34 35 36 36 37 37 38 39 39 39 39 38 38 37 36 35 33 30 28 27 26 25 23 24 26 27 25 23 20 18 19 21
32 32 32 32 32 31 31 32 32 32 32 32 32 33 33 34 35 35 36 36 36 36 36 36 35 34 32 30 28 27 27 25 24 25 27 26 25 25 23 22 23 24
30 30 30 30 29 29 29 29 30 30 30 29 29 30 31 31 31 32 32 33 33 33 33 33 32 31 30 29 28 27 26 25 24 26 28 28 28 28 27 26 27 28
29 29 28 28 27 27 27 27 28 28 28 27 27 27 27 27 27 28 29 30 30 30 29 29 29 29 28 27 27 26 25 24 25 28 30 31 32 31 30 30 31 32
29 29 28 27 27 27 28 28 28 27 27 27 26 26 25 25 25 24 25 25 26 26 26 26 26 26 26 26 25 24 24 25 28 30 33 34 34 33 33 35 36 36
28 28 28 28 28 28 28 27 26 25 25 25 25 25 24 24 24 23 23 23 23 23 23 23 23 22 22 23 23 23 24 26 29 31 33 34 35 36 38 39 40 41
26 27 27 27 26 26 25 24 23 23 23 22 22 22 22 22 22 22 22 21 21 20 20 19 19 20 21 22 23 24 25 27 29 30 32 34 37 39 41 43 43 43
25 25 25 25 24 23 23 22 22 21 21 21 20 20 20 20 20 21 21 21 20 20 20 20 20 21 23 25 25 26 27 28 29 31 33 36 38 40 41 42 42 42

ECMWFNIL_925_spd_069.txt.gz
Wind_Speed
22 22 22 24 26 26 26 28 28 28 31 33 33 34 34 34 35 35 33 32 31 31 32 34 33 32 31 33 34 33 33 34 34 33 32 30 29 28 27 26 23 21
21 22 22 24 26 26 26 28 29 29 30 32 33 33 32 32 34 34 33 33 33 32 33 35 35 34 33 33 34 33 31 30 30 31 32 31 31 29 27 25 23 20
21 21 23 25 26 27 27 28 27 28 29 30 33 33 32 32 35 35 33 32 33 34 35 36 36 35 34 33 33 32 31 30 30 32 32 30 30 28 26 23 21 19
21 22 23 27 29 27 26 27 27 28 28 29 31 32 32 33 35 35 33 32 33 34 35 35 35 35 34 33 33 32 30 29 31 32 31 29 27 26 24 22 19 18
21 22 22 25 30 29 26 27 28 28 29 29 29 30 32 33 34 34 33 31 31 33 33 33 33 33 33 32 32 31 29 30 30 31 29 28 26 25 23 21 18 17
21 23 23 24 29 31 29 28 29 29 29 28 28 29 30 32 33 33 33 31 31 31 32 32 32 32 31 31 31 29 28 30 30 29 28 27 26 23 21 19 19 18
23 24 27 28 28 30 30 30 31 30 29 28 27 27 28 29 31 32 32 31 31 31 33 33 32 31 30 30 29 27 27 28 29 27 26 26 24 22 20 19 20 20
24 24 27 30 30 29 29 30 30 29 29 28 27 27 27 28 30 31 31 30 31 32 32 32 31 31 30 29 28 28 27 27 27 26 26 25 24 22 21 21 21 20
24 25 25 27 29 29 28 28 28 28 28 28 28 28 28 29 29 29 29 29 30 31 31 31 31 30 28 28 28 28 28 27 26 26 26 26 24 24 23 23 22 20
24 27 26 26 28 29 28 27 27 28 29 29 28 28 28 29 29 28 27 27 29 30 30 30 29 29 28 26 27 28 28 28 27 27 27 26 25 26 25 24 22 19
25 28 29 28 28 29 28 27 27 28 28 28 28 28 28 28 29 28 27 27 28 29 30 30 29 29 28 26 26 27 28 28 29 28 27 26 26 26 25 24 21 19
25 27 30 30 29 29 29 28 28 28 28 27 27 27 28 28 28 28 27 27 28 29 31 31 30 29 28 27 26 27 27 28 29 28 27 26 26 25 24 21 19 18
25 25 27 29 29 29 29 29 29 28 27 28 28 28 28 29 28 27 27 27 28 29 31 32 31 30 29 28 28 28 29 29 29 28 27 26 25 24 21 19 18 17
25 25 25 27 27 28 28 29 29 28 28 27 27 27 28 28 27 27 27 27 28 29 30 31 30 29 29 30 30 30 30 30 30 29 28 26 24 22 20 19 18 18
25 25 25 26 27 26 27 28 28 28 27 27 27 27 26 26 26 26 25 26 26 27 28 29 28 29 31 32 32 33 32 31 31 30 28 27 25 23 21 20 20 20
24 25 25 26 27 28 28 27 26 26 26 26 26 26 25 25 25 25 25 26 26 26 28 28 29 30 31 33 34 35 34 33 31 30 29 28 27 25 23 22 21 21
24 25 25 26 27 28 28 27 26 25 25 25 24 24 24 24 24 24 25 26 26 26 28 29 30 30 31 32 33 34 34 34 32 31 30 28 26 25 25 24 23 21
25 25 26 26 27 27 27 26 25 25 24 24 23 23 23 23 23 24 24 25 26 26 27 28 29 29 29 30 31 32 33 34 33 32 29 26 25 25 25 25 23 22
25 25 26 26 26 26 26 25 25 24 24 24 23 22 22 22 22 22 22 24 25 26 26 27 27 28 29 29 30 31 31 32 31 30 28 26 26 26 25 24 24 22
23 24 25 25 25 25 25 24 24 24 24 23 22 22 21 21 22 22 22 23 24 25 25 25 26 27 27 28 30 31 30 29 28 28 28 28 27 26 25 24 22 19
23 24 24 24 25 25 24 24 24 23 23 22 22 21 21 21 21 21 22 22 22 23 23 24 25 25 25 26 28 28 27 26 26 27 27 26 26 25 23 20 17 14
22 23 23 24 24 24 24 24 23 23 22 22 21 20 19 19 19 20 21 21 21 21 21 22 23 23 22 23 24 25 26 25 24 24 24 24 25 24 20 16 13 11
21 23 23 23 24 24 24 23 23 22 22 21 20 20 19 18 18 18 19 19 19 20 20 20 20 19 19 20 21 24 25 24 22 22 22 22 23 22 18 13 10 8
20 22 23 23 24 25 24 23 22 22 21 20 20 20 19 18 18 17 17 17 18 19 19 20 18 17 17 18 20 21 22 22 22 21 20 20 20 19 15 11 9 10
19 22 23 24 24 24 23 22 22 21 20 19 18 18 19 18 17 16 16 17 17 17 18 18 17 17 17 19 20 20 20 20 20 20 18 18 18 16 13 11 12 13
19 21 23 23 23 23 22 21 21 20 19 19 18 18 18 17 16 16 16 16 16 16 16 15 15 16 18 19 20 20 19 19 19 19 18 18 18 16 15 14 15 16

ECMWFNIL_925_spd_072.txt.gz
Wind_Speed
27 26 25 26 27 27 26 26 27 28 29 30 31 31 31 29 29 31 33 33 33 33 33 33 33 33 34 36 36 36 36 37 38 39 39 37 35 32 28 26 27 27
26 26 25 26 27 28 27 26 27 28 29 30 31 30 29 28 29 31 33 33 32 32 33 33 33 33 34 35 35 35 35 36 37 38 38 36 32 30 28 26 26 27
26 25 25 26 26 27 27 27 26 27 28 29 30 30 29 28 29 31 33 33 33 33 33 34 33 33 33 33 34 34 35 35 36 37 37 36 32 28 27 27 27 27
26 25 25 25 25 25 26 27 27 27 27 28 29 29 28 28 28 31 33 33 33 34 34 35 34 33 32 32 32 33 33 34 34 34 34 34 32 29 26 26 27 26
25 26 25 25 25 24 25 26 28 28 28 28 28 27 27 28 28 30 31 32 33 34 35 35 34 33 32 31 32 31 31 31 32 32 33 32 31 30 27 26 25 25
25 25 26 25 25 25 25 26 28 29 29 29 28 27 27 27 27 28 30 30 30 32 33 33 32 32 31 31 31 30 29 29 30 31 32 31 30 29 28 27 25 25
25 25 25 25 26 27 26 27 27 28 29 28 27 27 27 26 26 26 27 28 28 29 31 31 30 30 31 31 30 29 28 28 29 29 29 30 29 27 27 27 26 26
25 25 25 26 26 26 26 26 27 27 27 27 27 27 26 25 24 24 25 26 27 29 29 29 29 29 29 30 29 29 29 28 28 28 28 28 28 28 27 27 27 26
25 25 26 27 27 27 25 25 27 28 27 27 27 26 25 25 24 23 24 25 27 27 28 27 27 27 27 28 28 28 29 30 29 29 29 29 29 29 28 28 28 28
27 27 27 28 28 28 26 25 25 27 27 27 27 26 26 25 24 24 23 24 25 26 26 25 25 25 26 26 27 28 28 29 29 29 30 31 31 30 30 30 31 31
28 28 29 29 29 28 27 25 26 27 27 27 26 26 25 25 25 24 24 23 23 23 23 23 24 25 26 27 27 27 27 27 28 28 29 30 30 31 31 32 33 33
29 29 30 30 30 28 27 25 26 27 27 26 26 26 25 25 25 24 23 22 22 22 22 23 24 25 26 27 26 26 25 25 26 27 28 29 30 31 32 33 34 34
30 30 31 30 29 28 26 25 25 26 27 26 26 25 25 26 25 24 23 22 22 23 23 23 23 24 25 25 25 25 26 25 25 27 28 28 29 30 32 33 33 33
30 30 30 29 28 28 27 26 25 25 25 25 25 25 25 25 25 24 22 21 22 22 22 22 22 23 24 24 24 25 26 26 26 27 28 28 29 30 31 31 31 31
29 29 29 28 28 28 28 27 26 25 25 25 24 24 24 24 23 22 21 21 21 21 21 22 22 23 24 24 24 25 26 26 27 29 29 30 30 30 31 31 31 31
28 27 27 27 28 28 28 28 26 25 25 24 24 23 23 23 22 21 20 20 20 20 21 22 22 23 24 24 25 25 25 25 27 29 30 31 32 32 31 31 31 31
27 27 26 27 27 27 27 27 26 25 25 24 24 23 22 22 21 20 19 19 19 19 21 22 22 23 23 24 25 24 24 26 28 29 30 32 33 33 33 33 32 31
28 27 27 27 27 27 26 26 25 25 24 24 24 23 22 21 20 20 19 18 18 19 20 20 21 21 22 23 23 23 24 26 29 31 32 33 34 34 34 34 33 31
27 27 27 27 28 27 26 26 25 25 25 24 23 22 22 21 19 18 18 18 18 19 19 19 19 20 20 20 20 21 23 26 29 31 32 33 34 34 36 36 35 33
27 27 27 27 27 27 27 26 26 25 24 23 23 22 21 20 18 17 17 18 19 19 19 19 19 20 20 19 19 21 23 25 28 30 30 31 32 34 36 36 35 34
26 26 27 27 27 27 27 27 26 25 24 23 22 22 21 20 18 17 17 17 18 19 19 19 19 19 19 19 20 21 23 24 26 27 28 30 31 34 35 35 34 32
26 26 26 26 27 27 27 27 26 25 24 23 22 21 20 19 18 17 17 17 17 17 17 18 18 18 18 18 19 22 23 24 25 26 27 28 29 32 33 33 31 28
26 26 26 26 27 27 27 27 27 25 24 23 22 21 20 19 18 17 17 16 16 16 17 17 17 16 17 18 19 22 23 24 24 25 25 25 27 30 31 29 27 23
25 26 26 26 27 28 28 28 27 26 24 23 22 22 20 19 18 17 16 15 15 15 16 16 16 16 16 18 19 21 23 24 24 24 24 24 26 29 29 27 24 21
24 24 25 26 27 28 28 28 26 25 24 22 21 20 19 18 17 16 16 15 14 14 14 15 15 15 16 18 19 21 23 24 24 24 24 25 28 29 28 25 22 19
23 24 25 26 27 27 27 26 25 24 23 22 20 19 18 18 17 16 16 15 14 15 15 15 16 16 17 18 18 19 22 24 25 24 25 27 29 29 26 23 20 17

ECMWFNIL_925_spd_075.txt.gz
Wind_Speed
32 32 33 33 33 33 33 32 31 31 32 33 33 33 32 32 34 36 38 37 36 36 36 36 36 36 37 40 41 41 41 41 41 41 41 41 42 41 39 39 37 36
31 31 31 31 32 32 32 31 31 31 32 33 32 32 31 30 31 34 37 37 35 35 35 36 36 37 39 40 40 40 40 40 39 39 39 40 41 41 40 39 37 35
31 31 31 32 32 31 31 30 30 30 31 32 32 31 30 28 28 31 34 35 35 35 36 37 37 37 37 37 38 38 38 38 38 38 38 39 39 39 39 37 35 34
31 31 31 31 32 31 30 30 30 30 29 30 30 30 28 26 26 29 32 34 35 36 36 37 37 36 35 35 36 36 37 37 36 36 37 37 37 36 35 34 33 32
30 31 30 30 31 30 30 30 31 30 29 29 29 28 28 26 26 28 29 31 32 33 34 35 37 37 36 35 34 35 36 35 35 35 35 35 34 34 33 33 32 31
30 30 29 29 29 30 30 31 31 31 30 29 28 27 28 27 27 28 28 29 29 29 31 33 35 36 35 35 34 33 34 34 35 35 34 34 33 32 32 33 33 33
30 29 28 28 28 29 30 30 30 30 30 29 28 27 27 27 27 28 29 29 28 28 28 30 32 33 32 32 32 31 31 32 33 33 32 31 30 30 30 31 32 33
30 29 28 28 28 29 30 30 30 29 29 29 29 29 28 27 27 28 28 28 27 27 28 29 30 30 29 29 30 30 30 30 30 30 30 29 28 29 29 29 29 31
30 29 28 28 29 30 31 30 29 28 28 28 28 29 29 29 28 28 29 28 27 27 28 28 28 27 27 28 28 29 29 29 29 29 29 28 29 30 30 30 29 30
30 29 29 29 30 31 31 29 28 28 28 28 27 28 29 29 29 29 29 28 28 27 26 26 26 26 26 26 27 29 29 30 29 29 28 28 30 31 31 31 31 31
31 30 30 31 31 31 30 29 28 28 28 27 26 27 28 28 28 28 28 28 28 26 25 25 25 24 24 25 26 27 29 30 30 29 28 28 29 30 31 31 32 32
32 32 33 33 32 32 31 29 28 28 28 27 26 26 27 28 28 28 27 27 27 25 24 24 23 22 23 24 25 26 27 28 28 28 28 28 29 30 29 30 32 32
35 35 35 34 33 32 31 29 29 28 28 27 26 26 27 28 28 28 27 27 26 25 24 23 22 21 22 23 23 24 25 26 27 27 27 28 29 28 28 29 31 32
38 37 35 34 33 32 31 30 29 29 28 27 26 27 27 28 28 28 27 26 26 25 24 23 22 21 21 22 23 23 25 26 26 26 27 27 27 27 28 29 31 32
39 37 35 34 33 32 31 30 29 29 28 27 27 27 27 28 28 28 27 26 26 25 24 23 22 22 21 22 23 23 25 26 26 26 26 27 27 27 28 30 30 31
37 36 35 34 33 33 32 30 29 28 28 27 27 27 27 28 28 28 28 27 27 25 24 23 22 22 22 22 23 24 25 26 25 25 26 27 28 28 28 29 30 31
36 36 35 34 33 32 31 30 28 28 28 27 27 26 27 27 28 28 28 27 26 25 24 24 23 23 22 23 23 23 24 25 25 25 26 27 28 28 29 29 30 31
35 34 33 32 32 32 31 29 28 28 28 28 28 27 27 27 28 28 27 26 26 25 24 24 24 23 23 23 23 22 22 24 25 26 27 27 28 29 30 30 31 33
32 31 30 31 31 31 30 28 28 29 29 29 28 27 27 28 28 27 27 26 25 24 24 23 23 23 22 22 22 22 22 24 25 27 27 28 29 30 31 32 34 36
30 30 30 31 30 30 29 29 29 30 30 29 28 28 28 28 28 27 26 25 24 23 22 22 22 21 21 21 22 23 24 25 26 26 27 28 29 31 32 34 37 40
30 30 30 30 29 29 29 29 30 30 29 29 28 28 28 28 27 27 26 24 23 22 22 21 21 20 19 21 23 24 25 26 26 26 28 29 30 31 33 36 40 43
30 29 29 28 27 28 28 28 28 28 28 27 27 27 27 27 27 26 25 24 23 22 22 21 20 19 19 20 22 24 25 26 26 27 29 30 31 32 34 37 41 42
29 28 28 27 27 27 28 28 27 27 27 27 26 26 26 26 25 24 24 23 23 22 22 21 20 19 20 21 22 23 25 27 28 29 30 30 31 32 35 38 39 40
27 27 27 27 27 27 28 27 27 27 27 27 27 26 26 25 25 23 22 22 22 22 22 22 22 21 21 22 23 24 26 28 29 29 30 30 31 33 36 38 38 38
25 25 26 26 26 27 27 27 26 27 27 26 26 26 25 25 24 23 21 20 20 20 20 20 21 21 21 22 24 25 27 28 29 30 30 30 32 33 34 35 37 37
22 24 25 25 25 25 25 26 26 26 26 25 25 24 24 23 22 21 20 19 18 18 18 18 19 20 20 22 24 25 27 28 30 31 31 31 32 33 33 33 35 35

ECMWFNIL_925_spd_078.txt.gz
Wind_Speed
36 36 37 38 39 39 38 38 37 37 37 37 37 38 37 37 37 36 36 36 35 37 40 39 37 37 38 39 39 40 40 40 43 45 41 41 43 44 44 43 42 39
35 36 37 37 38 38 37 37 37 37 37 37 37 37 37 36 35 34 34 34 32 33 38 39 37 36 36 38 40 40 38 38 40 41 40 40 41 42 44 43 42 40
35 36 36 37 37 37 37 36 36 36 36 36 36 35 35 34 33 33 32 32 31 30 33 37 38 36 35 35 37 38 38 39 40 40 39 39 39 41 43 43 42 41
35 36 36 36 36 36 35 35 35 36 35 35 35 34 33 32 32 32 31 31 31 28 29 33 37 38 36 35 35 36 38 39 39 39 38 38 39 41 42 42 41 41
35 35 35 35 35 35 34 34 35 35 35 35 34 32 31 31 30 31 30 31 30 28 28 31 35 37 37 35 35 36 37 38 38 38 37 37 39 40 41 41 41 40
34 34 34 34 34 34 34 35 35 34 34 34 33 32 31 30 30 30 30 31 30 28 29 31 33 37 38 37 36 37 37 38 38 37 36 37 38 38 38 39 39 39
34 34 33 33 33 34 34 35 34 34 33 32 32 31 30 29 29 29 29 30 29 28 29 32 33 35 37 38 38 38 37 36 36 35 35 36 36 35 36 37 38 38
33 33 33 33 34 34 35 35 35 34 32 32 31 31 30 29 28 28 28 29 30 30 29 30 31 33 35 36 37 37 37 36 34 34 35 35 34 34 35 35 35 35
32 33 33 33 34 35 36 35 35 33 32 31 31 30 29 29 28 27 27 28 30 31 30 30 31 32 32 34 35 37 37 37 35 35 34 34 34 34 34 34 33 32
32 32 33 34 35 36 36 35 34 32 31 31 31 30 29 29 28 27 27 28 30 30 29 30 32 32 32 33 33 34 36 37 37 36 36 35 35 34 34 33 32 32
32 32 33 35 36 37 37 35 34 32 31 31 31 31 30 29 28 28 28 29 30 31 30 31 33 32 32 32 32 32 34 35 36 36 36 36 35 34 33 33 32 32
32 32 33 36 37 37 37 36 34 33 32 32 32 31 31 30 30 29 29 30 31 31 31 32 33 33 33 32 32 31 32 33 33 34 34 34 34 33 32 32 32 31
34 34 34 35 36 37 37 36 35 34 33 33 32 32 32 31 31 30 29 29 31 32 32 32 33 33 33 32 31 31 30 31 31 31 32 32 31 30 30 30 30 31
36 37 37 36 36 36 37 37 36 35 34 32 32 32 33 33 32 31 29 29 30 31 31 31 32 32 32 32 31 30 29 30 30 31 31 30 29 29 29 29 29 30
37 38 38 37 36 36 36 37 36 34 33 32 32 33 33 33 32 30 29 29 29 30 30 30 32 32 32 32 31 30 29 29 29 30 30 29 29 28 28 28 28 29
37 37 36 35 34 34 35 34 33 33 32 32 33 33 33 33 32 31 30 30 29 30 31 32 33 33 32 31 30 29 28 28 28 29 28 28 28 28 27 27 27 28
36 36 34 34 33 33 33 33 32 32 32 33 33 34 34 33 32 32 32 31 29 30 31 32 33 32 31 30 29 28 27 27 27 27 27 28 28 28 28 28 28 28
35 34 33 34 34 33 33 33 32 32 33 33 34 35 35 34 33 33 33 31 30 30 31 32 32 31 30 30 28 27 27 26 26 27 27 28 29 29 28 29 29 28
33 33 33 34 34 34 32 31 31 32 34 34 35 35 34 33 33 33 32 32 31 32 32 32 32 30 29 29 28 27 27 26 26 27 28 29 29 29 29 29 29 29
31 31 33 33 32 31 30 29 31 32 33 33 33 33 33 33 33 32 32 32 32 32 32 31 31 30 29 28 28 27 26 26 26 26 27 28 29 29 29 29 30 30
29 30 31 31 30 29 28 29 30 31 31 31 31 32 33 33 32 32 32 32 32 32 31 30 30 29 28 28 27 26 25 25 26 26 27 28 28 28 29 29 29 30
27 28 29 29 28 28 28 29 30 30 30 30 30 31 32 32 32 32 32 32 31 31 31 30 30 28 27 27 25 25 25 25 26 26 26 27 28 27 28 29 30 31
27 26 27 27 27 27 28 30 30 30 30 30 30 31 31 31 31 31 31 31 31 31 30 29 28 27 26 25 23 24 24 25 26 27 27 27 27 27 28 29 30 31
27 26 27 27 27 28 29 30 29 30 30 30 30 31 31 31 31 30 29 29 30 30 29 28 27 26 24 22 22 23 25 27 28 27 26 26 26 26 27 28 29 31
26 26 26 26 27 28 29 29 28 28 28 28 29 29 30 30 29 28 28 28 28 28 27 26 25 24 22 20 21 23 26 28 28 27 26 25 26 25 26 27 29 31
26 26 26 27 27 28 27 27 27 27 26 27 27 28 27 27 26 26 26 26 26 25 25 24 23 22 20 20 20 23 28 29 29 28 27 26 26 26 25 26 28 31

ECMWFNIL_925_spd_081.txt.gz
Wind_Speed
30 32 33 34 35 35 35 34 34 34 35 35 36 37 37 36 35 34 35 36 37 39 41 41 41 41 41 40 38 37 38 41 44 46 46 47 48 48 47 46 46 45
29 30 32 33 34 34 34 34 34 35 35 35 36 36 35 35 34 33 34 34 35 36 37 38 39 39 39 39 38 38 39 41 43 45 46 47 48 47 47 46 46 46
27 29 30 32 33 33 33 33 34 34 35 35 35 35 34 34 33 33 33 33 33 34 34 35 35 36 36 35 34 35 38 40 41 42 42 44 45 45 46 45 44 44
27 28 29 31 32 32 32 33 34 34 34 34 34 34 33 33 33 33 33 33 33 33 33 33 33 33 32 32 31 32 35 37 38 39 39 40 42 43 43 42 42 43
26 27 29 30 31 31 31 33 34 34 34 34 34 33 33 32 32 33 33 33 33 33 32 32 32 31 30 30 29 30 33 35 36 36 36 37 38 39 40 39 40 41
26 27 28 29 29 30 31 33 34 33 34 34 33 32 32 32 32 33 33 33 32 33 32 32 31 30 30 30 30 30 32 34 35 34 34 36 36 37 38 38 39 39
26 26 27 28 29 29 31 33 33 33 33 33 32 33 32 32 32 32 32 32 32 32 31 31 31 30 30 30 30 32 33 33 34 34 34 34 34 35 35 35 37 38
26 26 26 26 28 29 31 32 33 33 32 32 33 33 32 32 33 32 32 31 31 31 31 31 31 30 29 29 30 33 33 33 34 35 35 34 33 34 34 34 35 36
26 26 26 26 27 29 31 32 32 32 32 33 33 33 33 33 33 32 31 30 30 31 30 30 31 30 29 30 31 32 32 31 33 34 36 36 36 36 36 35 35 35
26 27 27 28 28 30 31 31 31 31 32 33 34 34 34 34 33 32 31 30 31 31 30 30 30 30 30 31 32 32 32 31 31 33 35 36 37 37 36 36 35 35
26 27 28 29 30 31 32 32 32 32 32 33 33 34 34 33 33 32 31 31 31 31 31 31 30 30 30 32 32 32 32 33 31 31 33 34 35 36 35 35 35 36
27 27 29 30 31 32 33 33 34 34 34 34 34 34 33 33 33 33 32 32 32 31 31 31 31 30 31 32 33 32 32 33 32 32 33 33 34 34 35 35 35 35
27 28 30 31 31 32 33 33 34 34 34 34 34 33 33 33 33 33 33 32 32 32 32 32 31 31 31 32 32 32 33 34 33 32 33 33 34 34 34 34 35 35
27 28 29 31 31 31 32 33 34 34 34 34 33 32 33 33 33 33 33 32 33 33 32 32 32 32 31 32 33 33 33 34 33 33 33 33 33 33 33 34 34 33
26 28 29 30 30 31 32 33 33 34 34 33 33 33 33 33 33 33 33 33 34 33 33 32 33 33 31 31 32 33 33 34 33 33 32 32 32 32 32 32 32 32
26 27 28 29 30 31 32 32 32 32 32 32 33 33 32 32 32 33 33 34 34 34 33 33 33 34 32 31 32 33 33 33 33 33 32 32 31 32 31 31 31 31
26 26 27 28 29 30 30 30 30 30 30 31 31 31 31 32 32 33 34 34 34 34 34 34 34 33 32 30 31 32 32 32 32 32 32 32 31 31 31 31 30 29
27 27 27 27 28 28 29 29 29 29 29 30 31 31 31 31 32 33 34 34 34 34 35 34 34 33 31 30 30 31 32 32 32 32 31 31 31 31 30 30 29 29
28 28 27 27 27 27 28 28 28 29 29 30 30 30 30 31 32 33 34 34 34 35 35 35 34 33 32 30 30 31 32 32 32 32 31 30 30 30 30 29 28 28
28 28 28 28 27 26 27 27 28 29 30 29 29 29 29 31 32 33 34 34 35 35 35 35 35 33 32 30 29 30 31 31 31 31 30 30 29 28 28 29 28 28
28 28 28 28 28 27 26 27 28 29 29 29 28 29 30 31 32 32 33 34 34 34 35 35 35 33 31 30 29 30 31 30 30 30 29 29 28 27 28 28 28 29
30 30 30 30 29 27 27 28 28 29 29 28 28 29 30 30 31 32 33 33 33 33 34 35 34 32 30 30 30 30 30 29 28 28 28 28 28 27 28 28 28 28
32 32 32 31 30 29 29 29 29 29 28 28 28 30 30 31 32 32 32 32 32 32 33 34 34 31 29 30 30 30 29 28 27 27 27 27 27 27 27 27 27 27
32 31 31 31 30 30 30 30 30 29 28 27 27 29 30 30 30 31 31 31 31 32 32 32 32 30 28 29 30 29 28 26 26 26 26 26 26 25 25 26 25 26
32 30 29 29 30 30 30 30 30 29 28 27 27 28 29 29 29 29 30 30 30 30 30 30 30 28 28 28 28 27 26 26 26 26 25 24 24 23 23 23 24 24
32 30 29 28 29 29 29 29 28 28 27 27 27 27 27 28 27 27 28 28 28 28 28 28 28 27 27 27 27 26 25 25 26 26 24 23 23 23 23 23 23 24

ECMWFNIL_925_spd_087.txt.gz
Wind_Speed
15 17 19 21 23 24 24 25 25 26 27 27 27 27 27 27 26 25 26 26 27 28 28 29 30 30 31 31 32 32 34 35 35 34 33 33 35 37 38 40 40 40
11 13 15 18 20 21 21 22 24 25 26 26 26 26 26 26 25 25 25 25 26 26 26 27 27 28 28 29 31 32 32 33 33 32 30 31 32 34 36 37 37 38
10 11 13 15 17 18 19 20 21 23 24 24 25 25 25 25 24 24 24 24 25 25 25 26 26 26 27 28 29 31 33 33 34 33 31 31 32 32 33 34 34 35
10 11 12 13 14 15 16 18 20 20 22 23 23 23 24 24 24 24 24 24 24 24 24 24 25 25 26 27 28 30 32 33 33 33 33 34 34 34 33 32 32 32
11 11 11 11 12 13 14 16 17 18 20 21 21 22 23 23 24 24 24 24 24 25 24 25 25 25 25 25 26 28 30 31 32 32 33 35 35 35 35 34 32 32
11 10 9 10 11 12 13 14 15 17 18 19 19 20 21 22 23 24 24 24 24 25 26 26 27 26 26 26 26 27 29 30 31 30 32 34 34 34 34 34 33 32
12 11 10 9 10 11 13 14 14 16 16 17 18 18 19 21 22 22 23 24 24 25 26 26 27 27 27 27 27 28 28 29 30 30 31 33 33 33 33 32 31 32
14 13 12 11 11 11 12 12 13 14 14 16 17 16 17 19 20 21 22 23 23 24 25 26 27 27 27 27 28 29 30 30 30 30 32 33 32 33 33 32 32 33
14 15 15 15 14 13 13 13 12 12 13 14 15 15 16 18 19 20 21 22 23 24 25 26 27 27 27 28 29 29 30 31 31 31 32 33 33 34 34 33 32 33
16 16 17 17 17 17 16 15 14 14 13 14 14 15 15 16 17 18 19 21 23 24 25 26 27 28 28 29 30 30 31 32 32 32 33 33 33 33 33 33 33 33
19 20 20 21 21 20 20 19 18 17 16 16 15 16 16 15 16 17 18 20 21 22 24 25 26 27 28 29 30 31 32 33 33 33 33 33 33 33 33 33 33 33
22 23 23 23 24 24 24 23 23 22 21 20 19 19 18 17 17 17 18 19 21 21 23 24 25 26 28 29 30 31 32 33 33 33 33 33 33 33 33 33 33 33
23 23 23 23 23 23 23 23 24 24 24 24 24 23 22 21 19 19 18 19 21 21 22 23 24 25 27 28 30 31 32 33 33 33 33 33 33 33 33 33 34 34
23 22 22 22 22 21 21 22 22 23 23 24 24 24 24 23 22 22 21 21 21 21 22 22 24 25 26 27 29 30 31 33 33 33 33 33 33 33 33 33 34 34
23 23 22 22 22 22 22 22 22 22 22 23 23 24 24 23 23 23 24 24 24 23 23 23 24 25 25 26 28 30 31 32 33 33 33 33 33 33 33 33 34 34
24 24 24 24 24 24 24 24 24 23 23 23 22 23 23 23 24 24 24 24 25 25 24 24 25 25 24 25 26 28 29 31 32 33 33 33 33 34 34 34 34 34
26 26 27 27 27 26 26 26 25 25 24 24 23 23 23 23 24 25 25 25 25 26 26 26 26 25 24 24 25 26 28 29 31 33 33 33 34 34 35 35 34 34
28 29 29 29 29 29 29 29 28 28 27 26 25 24 24 24 24 24 25 25 26 27 28 28 27 26 25 24 25 25 26 28 30 32 33 34 34 34 35 35 34 34
29 30 30 30 31 31 31 31 31 31 30 29 28 27 26 26 26 26 26 26 26 27 29 29 29 28 26 25 25 25 26 27 29 31 32 34 34 34 34 34 34 33
30 31 31 31 31 31 32 32 32 32 32 31 30 29 29 29 28 28 27 27 27 28 30 31 30 30 28 27 26 26 25 26 28 30 32 34 34 34 34 34 34 33
30 31 31 32 32 32 32 32 32 33 33 32 32 31 31 31 30 30 29 29 28 28 30 32 31 29 29 28 27 26 26 26 28 29 31 33 34 34 34 34 34 33
30 31 32 32 32 33 33 33 34 34 34 33 34 34 33 32 32 32 31 31 30 29 29 32 31 29 28 28 27 26 26 26 27 29 31 33 34 33 33 34 33 33
30 31 32 33 33 34 35 35 35 35 35 34 35 36 36 35 34 34 33 33 32 31 29 31 32 29 27 28 27 26 26 26 27 28 30 32 33 33 32 32 32 32
30 31 32 32 33 34 34 35 35 35 35 34 33 35 36 35 35 36 36 34 33 33 31 31 33 30 25 25 26 25 25 26 26 27 29 31 32 32 31 31 31 31
29 30 30 31 32 33 33 34 35 35 34 34 33 33 35 36 35 35 37 37 35 34 32 31 33 32 27 23 23 24 24 25 25 26 28 30 30 30 30 30 30 30
28 29 30 30 31 33 33 33 33 34 34 34 34 34 34 36 35 35 37 39 37 35 34 32 32 32 29 24 22 22 23 23 24 25 28 29 29 28 29 28 28 29

ECMWFNIL_925_spd_093.txt.gz
Wind_Speed
3 3 3 3 4 5 6 6 7 8 8 9 10 10 10 11 11 11 12 13 14 15 17 18 19 20 21 22 22 23 24 25 25 24 24 26 27 28 30 31 31 32
2 3 4 4 5 6 7 8 8 9 8 8 9 10 10 10 10 10 11 12 13 14 15 16 16 17 18 19 19 21 23 23 24 24 24 25 25 25 27 28 30 31
3 4 5 6 6 6 7 7 8 8 8 8 8 9 11 11 10 11 11 12 12 13 13 14 15 15 16 17 18 19 20 21 23 23 23 24 24 25 26 26 27 28
4 4 5 5 5 4 4 4 4 5 5 7 8 9 10 11 12 12 11 11 12 12 13 13 14 14 15 16 17 18 19 20 22 22 22 24 25 26 27 27 27 28
3 2 2 1 1 0 1 1 2 3 4 5 7 8 10 11 12 13 12 12 12 12 13 13 13 14 15 16 17 18 19 20 20 21 22 25 25 26 27 27 28 29
6 6 6 6 6 6 6 5 5 5 6 6 7 7 8 9 10 11 12 13 13 13 14 14 14 14 14 15 16 18 19 20 21 21 22 25 26 26 27 27 27 28
9 9 9 9 9 9 9 8 8 8 8 8 7 8 9 9 10 10 11 12 13 13 14 14 15 14 14 14 15 16 17 19 20 21 22 24 25 26 26 26 27 28
11 11 11 11 11 11 10 10 10 10 9 9 9 9 10 10 11 11 12 12 13 14 14 15 15 16 15 15 16 17 19 19 20 20 21 23 24 25 26 25 26 28
13 13 12 13 13 13 12 12 11 11 11 11 10 10 11 11 12 12 12 13 13 14 15 15 16 17 17 17 18 19 20 21 21 21 21 23 24 26 27 26 26 28
15 14 14 14 15 14 14 13 13 12 12 13 13 13 13 13 13 14 14 15 15 16 16 17 17 18 18 19 19 20 20 21 22 22 21 22 23 24 25 25 26 28
16 16 16 16 16 16 15 15 14 14 14 14 14 15 15 15 16 16 16 17 17 17 18 18 18 19 19 19 20 20 21 21 22 22 22 23 24 25 25 26 27 29
17 17 17 17 18 17 17 16 16 16 16 16 16 16 17 17 18 18 18 19 19 19 20 20 21 21 21 20 20 21 21 22 22 23 24 25 26 27 27 27 27 29
18 17 17 18 18 17 17 17 17 17 17 18 18 18 19 19 19 20 20 21 21 21 22 22 23 23 23 23 22 23 23 24 25 25 26 27 27 28 28 28 29 29
17 17 17 17 17 17 17 17 17 17 17 18 18 18 19 19 20 21 21 21 22 22 22 23 23 24 24 24 25 25 25 26 27 27 28 30 30 31 31 30 30 30
16 17 17 17 17 17 17 17 17 18 17 18 18 18 18 19 19 20 20 20 20 21 21 22 23 23 23 24 25 26 27 28 29 29 29 31 33 34 34 33 33 33
16 16 16 17 17 17 18 18 18 18 18 18 19 18 18 19 19 19 19 20 20 20 21 21 22 22 22 23 24 25 27 29 30 31 31 31 33 34 36 36 35 35
15 15 16 16 17 17 18 18 18 19 19 19 19 19 20 20 21 21 21 22 22 22 23 23 23 23 22 22 22 23 26 28 29 31 32 32 33 34 35 37 37 37
14 14 15 15 16 17 17 18 19 20 20 21 21 21 22 23 23 24 24 24 24 25 26 26 26 26 25 24 23 23 24 26 28 30 31 32 32 33 35 36 37 37
14 15 15 16 17 18 18 20 21 21 22 23 22 23 25 26 26 26 27 27 27 28 29 29 29 30 30 28 27 26 25 25 27 29 31 32 32 32 33 34 35 35
15 16 17 17 18 19 20 22 23 24 24 24 25 26 27 28 29 29 29 29 29 30 31 31 32 32 33 32 31 30 29 27 29 30 31 32 32 31 32 33 33 32
16 16 17 19 20 21 23 24 25 26 27 27 27 28 30 30 30 30 30 31 31 31 32 34 35 34 34 34 33 32 31 30 31 31 32 32 32 32 31 32 32 31
16 17 19 21 22 24 25 26 27 28 28 28 29 30 31 31 31 31 32 33 33 33 34 37 39 38 36 37 36 34 33 33 32 32 32 33 34 34 33 32 32 30
17 18 20 22 24 26 26 27 28 28 29 29 30 32 33 33 34 34 34 34 35 36 36 38 43 43 40 39 39 36 34 34 34 33 33 34 36 36 34 33 33 32
17 19 21 23 24 25 26 27 27 28 29 29 30 32 34 34 34 36 38 37 38 39 39 40 44 46 43 41 41 39 35 34 34 34 34 35 37 38 36 34 33 34
19 20 21 23 24 25 25 27 28 29 29 30 31 33 36 36 35 37 41 42 41 41 41 41 43 47 47 44 42 41 38 36 34 33 34 37 38 38 38 36 35 36
20 21 22 23 24 26 26 28 29 30 31 32 34 35 36 37 38 38 41 44 44 43 43 44 44 46 48 47 45 43 40 37 34 33 35 36 36 37 37 38 38 38

ECMWFNIL_925_spd_096.txt.gz
Wind_Speed
11 9 8 7 6 5 5 5 5 5 5 6 6 6 5 6 8 10 12 12 13 13 14 15 15 16 17 18 18 18 19 20 21 21 21 22 23 23 23 24 24 26
7 6 5 5 3 2 2 2 3 3 3 4 4 5 6 8 9 11 12 13 14 13 14 13 13 14 14 15 16 17 18 20 21 21 21 22 23 23 24 24 23 25
7 6 5 4 3 1 1 2 3 3 3 3 4 4 6 7 8 9 10 11 12 13 12 12 12 12 12 13 14 15 17 18 19 20 20 22 22 23 24 24 24 25
6 5 4 3 2 1 1 1 2 2 2 2 3 4 5 6 7 8 9 11 12 12 13 13 13 13 14 14 14 15 16 17 18 19 20 22 22 22 23 23 25 26
7 6 5 5 5 4 4 4 3 3 3 3 3 4 5 6 7 8 9 10 11 12 12 12 13 13 14 15 16 17 18 18 18 18 19 21 21 22 23 23 24 25
10 10 10 9 9 9 8 8 7 6 6 5 6 7 8 9 10 11 12 12 13 13 13 14 14 14 14 15 15 17 18 19 19 19 19 21 22 22 22 21 22 24
13 13 13 13 12 12 11 11 10 9 9 8 9 10 11 12 13 13 13 14 14 14 15 15 16 16 16 15 15 16 16 17 18 19 19 20 22 23 22 22 22 23
15 15 15 14 14 14 13 13 12 12 11 11 11 12 13 14 14 14 14 14 15 15 15 15 16 16 17 17 17 17 18 18 19 20 20 21 22 23 24 23 22 24
16 16 16 16 16 16 15 15 14 13 13 13 13 13 14 14 14 14 14 14 14 15 15 16 17 17 18 19 19 20 20 20 21 21 21 23 23 24 25 24 24 25
18 18 18 18 18 17 17 16 15 14 14 13 13 13 13 13 13 13 14 15 15 16 17 17 18 19 20 20 20 21 21 22 23 23 23 24 25 26 26 26 26 27
19 19 18 19 18 17 17 16 15 14 13 12 12 12 13 13 14 14 15 16 17 18 19 20 21 21 22 22 22 22 23 24 25 26 27 28 28 28 28 28 28 29
19 18 18 17 16 15 15 14 14 13 12 12 13 13 14 15 15 16 17 18 19 20 21 22 22 23 23 23 24 24 25 26 27 28 29 30 30 31 31 31 31 31
18 17 17 16 15 14 14 14 13 13 13 13 14 14 15 16 17 18 18 19 20 20 21 21 22 22 22 22 23 24 25 26 27 28 29 30 30 31 32 32 33 33
17 16 16 15 14 13 13 14 14 14 14 14 14 15 16 17 18 18 18 19 19 19 20 21 21 21 21 22 23 23 24 25 26 27 29 30 30 31 31 31 32 33
15 15 15 14 13 13 13 14 14 14 15 15 15 16 17 17 18 19 19 20 20 21 21 22 22 22 22 22 23 23 24 25 26 27 29 30 32 32 33 32 32 33
14 14 14 14 13 13 14 14 15 15 15 16 16 16 17 18 19 20 21 22 23 23 24 24 25 25 24 24 24 24 25 26 27 28 29 31 33 34 35 36 35 35
14 14 14 14 14 14 14 15 15 15 16 16 16 17 18 20 21 22 23 23 24 25 25 26 27 27 28 28 28 28 28 28 29 31 32 32 33 35 36 38 38 37
13 13 13 13 13 13 14 15 15 15 16 17 17 19 20 22 23 23 24 24 25 25 26 27 28 29 29 30 30 30 30 30 31 32 34 35 35 35 37 38 39 40
12 13 13 13 13 13 14 15 16 17 18 18 19 21 22 23 24 24 25 25 26 26 27 28 29 30 30 31 31 32 32 31 33 34 35 36 37 37 38 39 39 40
12 13 13 13 13 14 14 16 17 18 19 19 20 22 23 24 24 25 26 26 27 28 29 30 30 31 32 32 33 34 34 33 34 36 37 38 39 39 39 40 40 39
12 12 12 13 13 14 15 17 18 18 19 19 21 22 23 24 25 26 27 28 29 30 31 32 32 32 34 34 34 35 36 36 37 37 39 41 42 42 42 42 41 40
12 12 12 13 13 15 16 17 18 19 19 20 22 23 24 25 26 27 28 30 31 31 32 35 36 34 34 36 37 36 37 38 39 39 40 42 44 46 45 44 43 41
10 11 12 13 14 15 16 17 18 19 20 21 23 25 26 27 28 29 29 30 32 33 33 36 39 38 36 37 39 38 38 39 40 40 41 42 45 47 48 46 45 43
10 11 12 13 14 15 16 17 19 20 21 22 24 26 27 27 29 30 31 31 33 34 35 36 40 41 39 38 39 39 38 38 39 39 40 42 45 47 49 48 47 45
10 11 12 13 14 15 16 18 19 20 22 23 24 25 27 28 29 31 33 34 34 35 36 37 39 42 42 40 39 39 39 38 38 38 39 41 43 46 49 49 48 47
10 11 12 13 14 16 17 18 19 21 22 24 25 26 28 29 30 32 35 36 36 36 38 38 39 42 44 43 40 39 39 38 38 37 38 40 41 43 46 47 48 48

ECMWFNIL_925_spd_102.txt.gz
Wind_Speed
19 18 19 18 17 16 15 15 13 11 9 8 8 8 8 7 6 6 5 4 3 2 1 1 1 2 3 4 5 6 6 5 5 5 5 5 5 6 7 8 8 8
19 19 19 19 18 16 14 13 12 11 10 9 9 8 8 7 6 5 4 3 3 4 5 5 6 7 8 8 8 9 8 8 8 8 8 8 8 8 9 10 10 10
20 19 19 19 18 17 14 12 12 11 11 10 9 9 8 7 6 5 6 6 7 8 8 8 9 9 10 10 10 10 10 11 11 12 11 12 12 13 13 14 14 14
21 19 19 18 16 15 14 13 13 12 11 11 10 9 8 7 7 8 9 9 9 10 10 10 10 11 11 11 11 11 12 12 13 13 13 14 15 15 16 16 16 16
19 18 17 17 16 15 14 14 14 13 12 12 11 10 10 10 10 11 11 11 11 11 11 11 11 11 12 11 11 11 12 12 13 13 13 14 15 15 16 16 16 17
18 17 17 17 16 16 15 15 14 13 13 13 13 13 13 13 13 13 13 12 12 11 11 11 11 11 12 11 11 11 11 12 12 13 13 14 15 15 15 15 15 16
18 18 17 17 17 16 16 16 15 15 15 16 16 16 15 15 14 14 13 12 11 11 10 11 10 10 11 10 10 11 11 12 12 13 13 14 15 15 16 16 17 18
19 19 18 17 18 17 17 18 18 17 17 17 18 17 16 15 14 13 12 11 10 10 10 10 10 10 10 10 11 11 11 12 13 13 14 15 15 16 17 18 19 20
21 20 19 19 20 20 21 21 20 19 18 17 18 17 15 14 13 13 12 11 10 10 10 9 9 10 10 10 11 11 12 12 13 13 14 15 16 17 18 19 20 21
23 22 22 23 23 23 23 22 21 20 18 17 17 16 15 14 13 12 11 10 10 10 10 9 9 9 10 10 11 12 12 12 13 13 14 15 16 17 18 19 20 21
25 25 25 25 25 24 23 22 21 19 18 17 16 15 15 14 13 12 11 10 10 10 9 9 9 9 10 10 11 11 12 12 13 13 14 15 16 17 18 19 20 22
28 27 27 26 25 24 23 21 20 19 18 17 15 15 15 14 13 12 11 10 10 10 9 9 9 9 10 10 11 11 11 12 12 13 14 15 17 18 19 20 21 22
28 28 27 26 25 23 22 20 19 18 17 16 15 15 14 13 13 12 11 10 10 9 9 9 9 9 10 10 10 11 11 12 13 15 16 17 19 20 21 21 23 23
28 27 26 25 23 22 21 20 19 17 17 16 15 14 14 13 12 11 11 10 10 9 10 9 9 9 9 10 11 12 13 14 15 17 19 20 21 22 23 24 25 25
28 27 25 24 23 22 21 20 19 18 17 16 15 14 13 13 12 11 11 10 10 9 9 8 8 9 10 11 13 14 15 16 18 19 20 22 24 24 26 26 27 28
28 26 25 23 22 22 21 20 19 18 17 15 14 14 13 12 11 11 10 9 9 9 8 8 8 10 11 12 14 15 17 18 19 21 22 23 25 26 27 29 29 29
27 26 24 23 23 22 21 20 19 17 16 15 14 14 13 12 11 10 10 9 8 8 8 8 9 11 12 14 16 17 18 20 20 22 23 23 25 26 28 30 31 30
27 26 25 24 23 22 21 19 18 17 16 15 14 13 12 11 10 9 9 8 7 8 8 9 11 13 14 16 18 18 19 21 22 22 23 24 25 26 28 29 31 32
27 26 26 24 23 22 20 19 17 16 16 15 14 13 11 10 9 8 7 7 7 8 9 11 12 14 16 17 18 20 20 21 23 24 24 26 26 27 28 28 29 31
27 26 26 24 22 21 19 18 17 16 15 14 13 12 11 9 8 7 7 7 8 9 10 12 13 15 16 17 18 20 21 22 24 25 25 26 27 27 27 27 27 28
27 26 25 23 22 20 19 18 16 15 15 13 12 11 9 8 8 7 7 8 9 10 11 12 14 15 16 17 19 20 22 23 24 26 27 27 27 26 25 25 26 26
26 25 24 23 22 20 19 17 16 15 14 12 11 10 9 8 7 8 8 9 10 11 12 12 14 15 16 18 19 21 22 24 25 27 28 28 28 26 25 24 24 25
26 25 24 22 21 20 19 17 15 14 13 11 10 9 8 8 7 8 9 9 10 11 12 13 14 15 16 18 20 21 23 25 27 28 29 30 29 27 26 25 24 25
25 24 23 22 21 19 18 17 15 13 12 10 9 7 7 7 7 8 9 10 10 11 12 13 14 15 16 18 20 21 23 24 26 28 29 30 31 31 29 27 26 26
25 23 22 21 20 19 17 16 14 12 10 9 7 7 7 7 7 8 9 10 10 11 12 13 14 15 17 18 20 20 21 22 25 28 29 30 31 34 36 33 30 28
24 23 22 21 20 18 17 15 13 11 9 8 7 6 7 7 7 8 8 9 10 11 12 13 15 16 17 18 19 19 19 21 24 26 28 30 31 33 36 37 36 35

ECMWFNIL_925_spd_105.txt.gz
Wind_Speed
26 26 25 24 23 22 22 21 19 17 16 14 14 13 12 11 10 9 8 7 5 4 3 2 1 1 2 4 5 6 7 8 8 7 6 6 7 8 9 9 9 10
25 25 24 24 23 22 21 20 18 17 16 14 13 13 12 11 10 8 7 5 4 3 3 4 5 5 6 8 8 8 8 8 9 9 9 9 9 10 11 11 11 11
23 24 23 23 24 23 21 18 17 15 15 14 13 12 11 10 9 7 6 5 5 5 7 7 8 8 8 9 8 8 9 9 10 10 9 10 10 10 11 11 11 11
23 23 24 24 23 22 21 19 17 16 15 14 13 12 11 9 8 7 7 7 7 9 10 10 10 9 9 9 9 9 10 10 11 11 10 10 10 10 10 10 10 10
24 23 23 23 22 21 20 19 18 16 16 15 13 12 11 10 9 9 10 10 11 11 11 11 10 10 10 10 9 10 10 11 11 11 10 10 10 10 10 10 10 10
23 23 22 22 21 20 19 18 17 17 16 14 13 13 12 12 12 12 13 13 13 12 12 11 11 12 12 11 10 10 10 10 11 10 10 10 10 9 9 10 11 11
23 22 22 21 20 19 18 18 18 17 16 15 15 14 14 14 15 15 15 14 13 13 12 12 12 12 12 10 10 10 10 10 9 9 9 9 9 9 10 11 12 13
23 22 22 21 21 20 20 20 19 17 17 17 18 17 17 17 17 16 15 14 14 14 13 13 12 12 11 9 9 8 8 8 8 8 8 9 10 10 11 12 13 14
23 23 23 22 22 22 21 20 19 19 19 19 20 20 19 18 17 16 16 15 15 14 13 13 12 11 10 8 7 7 7 7 7 8 9 10 11 12 13 14 15 16
25 25 24 24 23 22 22 22 22 22 21 21 22 21 20 19 17 17 16 15 15 14 13 12 11 9 8 7 6 6 6 7 7 8 9 10 11 13 14 15 16 18
26 26 25 24 24 24 24 25 24 24 23 22 22 21 20 19 18 17 16 15 14 13 12 11 10 8 7 6 5 5 6 6 7 8 9 10 11 13 14 16 17 18
27 26 25 26 26 27 27 27 26 25 24 23 22 21 21 20 19 18 16 15 14 12 11 10 8 7 6 5 5 5 6 6 7 8 9 11 12 13 14 15 16 17
27 27 27 28 29 29 29 28 27 26 25 24 22 22 21 20 19 18 16 14 13 12 10 8 7 5 4 4 4 5 6 7 8 9 10 12 13 14 14 15 16 17
28 29 30 31 31 31 30 29 28 27 26 25 23 22 21 20 18 17 15 14 13 11 9 7 5 4 4 4 4 5 6 8 10 11 12 13 13 14 15 15 16 17
31 32 32 32 32 31 31 29 28 27 26 25 24 22 21 19 18 16 15 14 12 10 8 6 4 4 4 4 5 6 8 9 11 12 13 14 14 14 15 16 17 18
33 34 34 33 32 32 31 30 28 27 26 25 24 22 21 19 17 16 14 12 11 9 7 6 4 4 4 5 6 7 9 10 11 12 13 13 15 15 16 18 18 18
35 35 34 33 32 31 30 30 28 27 26 25 23 22 20 19 17 15 14 11 10 8 6 5 4 3 4 5 7 8 9 10 11 12 13 13 15 16 17 18 19 19
35 35 34 33 32 31 30 29 28 27 25 24 23 22 20 19 16 14 13 11 9 7 5 4 3 3 4 6 7 8 9 11 11 12 13 14 15 16 17 17 18 20
36 35 35 33 32 32 30 29 28 26 25 23 22 21 19 18 16 14 12 10 8 6 4 3 3 3 5 6 7 8 9 11 12 12 13 14 15 15 16 17 18 19
35 35 35 33 32 31 30 29 28 26 25 23 22 20 18 17 15 13 11 9 7 5 3 2 2 3 5 6 7 8 10 11 12 13 14 15 15 15 16 17 18 19
35 35 35 33 32 31 30 29 27 26 25 23 21 20 18 16 14 12 10 8 5 3 2 2 3 4 5 6 7 8 10 12 13 15 15 15 16 16 17 18 19 20
36 35 35 34 33 31 30 28 27 26 25 23 22 20 17 16 14 11 9 7 5 3 1 2 3 4 5 6 8 9 11 13 14 15 16 16 16 16 18 19 19 20
36 36 35 34 33 31 30 28 27 26 25 23 22 20 17 15 13 11 9 6 4 3 1 2 3 4 5 6 8 10 12 14 15 16 17 17 17 17 18 19 19 20
36 36 35 34 33 31 30 29 27 26 24 22 20 19 17 14 12 10 8 6 4 2 1 1 2 4 5 7 8 10 13 14 15 17 17 17 18 19 19 19 19 20
35 35 34 34 33 31 30 29 27 26 24 21 19 18 16 14 12 9 8 6 4 2 1 1 2 4 5 6 8 10 12 14 16 18 18 16 17 19 20 20 19 21
34 34 33 33 32 31 29 28 27 26 24 22 19 17 15 14 12 10 8 6 4 3 1 1 2 4 5 7 8 9 11 14 16 18 17 17 18 18 20 21 21 22

ECMWFNIL_925_spd_108.txt.gz
Wind_Speed
30 30 29 28 26 23 21 20 20 20 20 20 19 20 19 16 16 15 13 12 12 11 10 8 7 6 6 7 8 9 10 11 12 12 11 12 12 12 12 12 11 11
30 29 28 27 25 22 22 22 23 23 23 23 21 20 19 17 16 14 13 12 11 10 9 8 8 9 10 12 12 12 13 13 13 13 12 12 12 12 12 11 10 10
29 29 28 27 25 23 24 24 25 26 25 24 22 20 18 16 15 14 13 11 10 10 10 11 12 12 13 14 13 13 13 13 13 13 11 12 12 11 11 10 9 8
29 29 28 27 25 24 24 25 26 26 25 23 21 19 17 16 15 14 13 11 11 12 13 13 14 14 14 14 13 13 13 13 13 12 10 11 10 9 9 8 7 7
29 28 28 27 27 26 25 26 27 26 23 21 19 18 17 17 15 14 14 13 13 15 15 16 16 15 15 14 13 12 12 13 13 11 9 9 9 8 7 6 6 6
28 28 28 28 27 27 26 27 27 25 22 20 19 18 18 16 16 15 15 16 16 17 18 17 17 16 15 14 13 13 13 12 11 10 8 8 7 6 6 5 5 6
27 27 27 27 28 28 28 28 27 24 22 21 20 19 18 17 17 16 17 18 19 19 18 18 17 17 16 14 13 13 12 11 10 9 7 7 6 5 5 5 6 8
27 27 27 28 29 29 29 28 26 23 22 21 21 20 18 18 19 19 20 21 21 20 19 18 17 17 16 14 12 12 11 10 9 7 6 5 4 4 5 7 8 9
28 28 29 29 30 29 28 26 24 22 21 21 22 21 20 20 21 23 23 22 21 20 20 19 17 16 15 13 11 10 10 9 7 6 5 4 5 5 7 8 9 10
29 29 30 30 29 27 25 23 23 23 23 23 23 23 23 24 24 24 23 22 22 21 20 18 17 16 15 13 11 10 8 7 6 5 4 5 5 6 8 9 10 11
29 29 29 28 27 25 24 24 25 25 25 24 26 26 27 27 26 25 24 23 22 21 19 18 16 15 14 13 11 9 7 6 5 4 4 5 5 7 8 9 10 11
27 28 27 27 26 26 26 27 27 27 27 27 28 29 29 28 27 25 24 23 22 20 19 18 16 15 13 12 10 8 6 5 4 3 3 4 5 7 8 9 10 10
27 27 27 27 27 28 28 28 28 29 29 30 30 30 30 29 27 26 24 22 21 20 18 17 16 14 12 10 9 7 5 4 3 2 3 4 5 6 7 8 9 9
27 28 28 28 29 29 29 30 30 31 31 31 31 30 30 28 28 26 24 22 21 19 18 16 15 13 11 10 8 6 4 3 2 2 3 4 5 6 7 7 8 9
29 29 29 29 30 31 31 32 32 33 32 32 31 30 29 28 27 25 24 23 21 19 18 16 14 12 11 8 7 5 3 2 2 3 3 5 5 6 7 7 8 9
30 30 30 30 31 32 33 34 34 34 33 33 31 30 29 28 26 25 23 22 21 19 17 16 13 11 9 7 5 4 2 2 2 3 4 5 5 6 7 7 8 9
30 30 31 32 33 34 35 35 35 35 34 33 32 30 29 27 26 25 23 21 20 19 17 15 13 10 8 6 4 3 2 2 3 4 5 5 6 6 7 7 8 9
31 31 32 33 35 35 35 36 35 35 34 33 31 30 28 27 26 25 23 21 20 18 16 14 12 9 7 5 3 3 2 2 3 4 4 5 6 6 7 8 9 9
32 33 34 35 35 36 36 36 35 35 34 32 31 30 28 27 26 24 22 21 19 18 16 13 11 9 7 4 3 2 2 2 3 4 4 5 6 6 8 9 9 10
33 34 35 35 35 36 36 36 35 34 33 32 31 30 28 27 25 23 22 20 18 16 15 13 11 9 6 4 3 2 1 2 3 4 4 5 6 7 8 9 10 11
34 35 35 35 35 36 36 35 35 34 33 32 30 29 28 27 25 23 22 19 17 15 14 12 10 8 6 3 2 1 1 2 3 4 4 5 6 8 8 9 10 11
36 36 36 36 36 36 36 35 35 34 33 32 31 29 27 26 24 22 21 19 17 14 13 12 10 8 6 3 2 0 1 2 3 4 5 6 7 8 8 9 9 10
37 38 38 38 38 37 37 36 35 35 33 32 31 30 27 25 23 21 20 18 16 14 12 11 10 8 6 3 2 1 1 2 3 5 5 6 8 9 9 9 9 10
38 39 39 40 39 39 38 37 36 35 33 32 31 30 28 25 23 21 19 17 15 14 12 10 10 8 6 3 2 2 1 2 4 5 6 7 9 10 10 10 9 10
38 39 40 40 40 39 38 37 36 34 33 31 30 29 27 25 23 21 19 17 15 13 12 10 9 8 6 3 2 2 2 3 4 5 6 7 9 10 10 10 9 10
38 39 39 40 39 38 37 36 35 34 33 31 29 28 26 24 22 20 19 17 15 13 12 10 9 7 6 4 2 1 3 3 4 5 6 8 9 9 9 9 9 10

ECMWFNIL_925_spd_111.txt.gz
Wind_Speed
37 37 36 35 34 32 31 29 28 27 25 23 20 20 22 23 22 19 13 12 15 14 12 12 13 13 12 11 11 11 11 13 15 15 15 15 15 13 12 11 10 10
36 36 35 34 33 32 31 29 28 26 24 22 20 20 24 24 22 20 15 15 17 15 13 14 14 12 12 12 13 15 17 18 18 17 16 15 14 13 11 10 10 9
35 35 34 34 33 32 30 28 27 25 23 22 21 21 24 24 22 20 17 16 17 15 15 15 13 13 14 16 18 19 19 19 19 18 16 15 13 12 11 10 9 8
35 34 34 33 32 31 29 28 27 25 24 25 24 24 25 23 21 21 18 17 18 16 16 15 15 17 19 20 20 20 20 19 19 17 15 14 13 11 10 9 8 8
33 33 33 32 31 30 30 30 29 26 27 28 28 29 28 25 23 20 19 19 18 17 17 18 19 21 21 21 21 20 20 19 18 16 14 14 13 11 10 8 7 7
31 32 31 31 31 31 31 31 29 27 28 30 30 31 29 26 22 20 21 21 19 18 20 22 23 23 22 22 21 20 19 18 17 16 14 13 12 10 9 8 6 5
30 31 31 31 31 31 32 32 29 27 29 30 31 31 29 24 20 21 22 21 20 21 23 24 25 24 24 22 21 20 18 17 16 15 13 12 11 10 9 7 5 4
30 30 31 32 32 33 33 32 29 28 30 31 32 30 26 21 21 22 23 22 23 25 25 26 26 25 24 21 20 19 18 17 16 14 12 11 10 9 8 6 4 4
29 30 31 32 33 34 33 32 30 30 31 33 31 27 23 22 23 24 24 24 26 28 28 28 26 25 23 20 18 18 17 17 15 12 11 10 9 8 6 5 4 4
29 30 31 32 33 33 32 33 33 33 33 33 29 25 24 25 25 25 26 28 29 30 29 28 26 25 23 20 18 16 16 16 15 13 11 9 7 6 6 4 3 3
29 31 32 33 33 32 33 35 36 34 33 32 28 26 27 27 27 27 29 31 32 31 30 29 26 25 23 21 19 17 15 15 14 12 10 8 7 6 5 4 3 3
30 31 32 32 32 33 34 35 35 33 33 31 29 29 29 29 29 31 32 33 32 31 30 28 26 24 23 21 20 17 16 14 13 11 9 7 7 5 4 3 3 2
30 31 32 31 31 32 33 34 33 32 32 30 29 30 31 32 33 34 34 33 32 30 29 27 26 24 22 20 19 17 16 14 12 10 8 7 7 5 5 4 3 2
29 30 31 32 32 32 33 33 32 31 30 30 30 31 33 35 36 36 34 33 31 30 28 26 25 24 22 20 19 17 15 12 11 9 9 8 7 6 5 4 3 2
30 30 31 32 32 33 33 32 31 30 30 30 31 33 35 36 36 36 35 33 31 29 28 26 24 23 21 19 18 16 14 12 10 10 9 8 8 7 5 4 3 2
29 30 30 30 31 31 30 30 30 30 31 32 33 35 37 37 36 35 34 33 32 30 28 26 24 22 20 18 16 14 13 11 11 10 9 8 7 7 6 4 3 2
27 28 28 28 29 29 29 29 30 31 33 34 36 37 37 37 36 35 33 32 31 30 28 26 24 22 20 18 15 13 12 11 11 10 9 8 7 6 6 5 3 2
25 26 27 27 28 28 29 30 32 33 35 36 37 38 37 37 35 34 33 31 30 29 27 25 24 22 19 17 15 14 12 11 10 9 9 8 7 6 5 4 3 2
26 26 27 27 28 29 31 32 34 35 37 38 38 38 37 37 35 34 33 31 30 28 27 25 23 21 19 17 15 14 12 11 10 9 8 7 7 6 5 4 3 2
27 28 29 29 30 31 32 34 35 36 37 38 38 38 38 37 35 34 33 31 29 28 27 25 23 21 19 17 15 14 12 11 9 8 8 7 7 6 5 5 4 3
29 30 30 31 32 33 34 35 36 37 38 38 38 38 38 37 36 34 33 31 29 28 26 24 22 20 18 16 15 14 12 11 9 8 8 7 7 6 5 4 4 3
32 32 32 33 34 35 36 37 38 38 39 38 38 37 36 36 35 34 33 32 29 27 25 24 22 20 19 17 15 14 12 11 10 9 8 8 7 6 5 4 3 2
33 34 35 35 36 37 38 39 39 39 39 39 39 37 36 36 35 33 32 31 29 27 25 24 22 20 18 17 15 14 12 11 11 10 9 9 8 6 5 4 3 2
34 35 36 37 39 40 41 40 40 40 40 39 39 38 37 36 35 33 32 30 28 26 24 23 21 20 18 16 15 13 12 11 11 10 10 9 8 7 5 3 3 2
35 36 37 38 40 40 41 41 40 40 39 38 37 37 36 35 34 33 32 29 27 25 23 22 21 19 17 16 15 13 12 11 11 10 11 10 8 7 5 4 3 3
35 36 37 39 40 39 39 40 39 39 38 37 36 36 35 35 33 32 31 29 27 25 23 21 20 18 16 15 14 13 11 11 11 10 9 9 8 7 6 5 5 4

ECMWFNIL_925_spd_114.txt.gz
Wind_Speed
28 28 29 29 24 21 24 28 26 26 32 33 31 31 29 26 26 26 27 26 24 21 20 18 18 16 15 15 15 15 14 15 15 15 15 15 15 15 14 14 13 11
28 27 27 25 22 21 25 28 26 26 32 34 32 32 31 28 27 28 30 27 23 20 19 19 17 15 15 16 17 18 17 16 15 16 17 18 18 17 16 15 13 11
26 25 26 25 23 24 27 27 25 27 32 33 33 33 32 29 27 30 31 27 24 21 19 19 17 15 16 18 19 19 18 18 19 20 20 19 19 17 16 14 12 10
26 25 24 25 24 23 27 28 26 28 32 33 34 34 33 28 26 31 32 29 26 22 19 20 17 16 18 19 20 20 20 21 22 22 22 21 19 17 15 13 11 9
29 28 25 26 24 22 27 31 31 32 33 34 35 35 33 28 26 33 35 31 27 23 20 20 18 18 20 21 21 23 24 25 24 23 23 21 19 17 15 13 11 9
31 32 31 30 28 26 29 32 34 34 34 35 35 35 33 28 27 34 36 31 28 23 20 20 19 20 22 23 24 26 26 26 25 24 23 21 19 16 14 12 10 9
31 33 33 33 31 30 32 33 34 34 34 35 35 35 33 28 28 33 33 29 27 23 20 21 22 23 24 26 27 28 27 27 26 24 22 20 18 16 14 12 10 10
31 31 32 33 32 31 32 33 34 35 35 36 36 35 34 31 31 34 32 30 27 22 21 23 24 26 28 29 29 28 28 27 26 24 22 20 18 16 14 12 11 10
30 31 31 32 33 33 33 33 34 35 36 37 38 36 35 35 36 37 34 30 26 23 24 25 27 30 31 30 29 29 28 27 26 25 22 20 18 16 14 13 12 11
30 31 32 33 34 34 34 34 35 36 37 39 39 37 36 37 38 37 34 30 26 25 27 28 31 33 32 30 30 29 28 27 26 24 21 19 17 15 14 14 12 10
29 31 32 33 35 35 35 35 36 37 38 39 38 37 36 37 38 35 31 28 26 26 29 32 34 34 32 31 30 29 28 27 26 23 21 18 16 15 14 13 11 10
28 30 32 33 34 35 35 36 37 37 38 39 38 35 35 38 37 33 29 26 25 27 31 34 35 34 33 31 30 29 28 27 25 22 20 17 16 15 14 12 11 10
28 29 31 32 33 34 34 35 36 37 38 39 37 34 35 38 36 32 29 26 26 30 34 36 36 35 33 32 31 30 28 26 24 22 19 17 16 15 13 12 11 10
27 28 29 30 31 32 33 33 34 35 36 37 36 36 38 38 35 31 29 28 29 34 36 36 36 35 34 33 32 30 28 25 23 21 19 18 17 15 13 12 11 10
25 26 27 28 29 30 32 33 34 34 35 36 37 38 38 36 32 30 29 30 33 36 37 37 36 35 34 33 32 30 27 24 22 20 19 18 17 15 14 13 12 10
25 25 26 27 28 30 31 32 33 33 35 36 37 37 36 33 31 30 31 34 37 38 38 38 36 35 34 32 30 28 26 23 21 20 19 18 17 16 15 14 12 11
24 25 26 27 28 29 30 31 32 33 35 36 35 34 33 32 32 33 35 37 39 40 39 37 36 34 32 30 28 26 24 23 21 20 19 18 16 15 15 14 13 11
24 25 26 26 27 29 30 31 32 33 33 33 32 32 32 33 34 36 38 39 40 40 39 37 35 34 31 29 27 24 22 21 20 20 19 18 16 15 15 14 13 12
25 25 25 26 27 28 29 30 32 32 32 32 31 32 33 35 36 38 39 40 40 39 38 36 35 33 30 28 26 24 22 20 20 19 18 17 17 16 15 14 13 12
25 24 25 26 27 28 28 29 30 31 31 31 31 33 35 36 38 39 40 40 40 39 37 36 34 32 30 28 26 24 22 21 20 19 18 17 17 16 15 14 13 13
25 25 25 26 27 28 28 29 30 30 30 31 32 34 36 38 40 40 40 40 39 38 37 36 34 32 30 28 26 25 23 21 21 20 19 18 17 16 15 14 14 13
26 26 26 27 27 28 29 29 30 30 31 32 33 35 37 39 40 40 40 40 39 38 37 35 33 31 30 28 27 25 24 22 21 20 19 18 18 17 16 15 14 13
26 26 27 28 29 30 30 30 31 32 33 34 35 37 38 39 40 39 39 39 38 37 36 35 33 32 30 29 27 25 24 23 22 21 20 19 19 18 17 16 15 14
29 29 29 30 31 32 32 32 32 33 35 36 37 39 39 39 40 39 38 38 38 37 35 35 34 32 30 29 27 25 24 23 22 21 21 20 20 19 18 16 15 14
30 30 31 31 32 32 32 32 33 34 35 36 37 38 39 39 39 39 38 37 36 35 34 33 33 32 30 29 27 25 24 23 22 21 21 21 20 19 18 17 15 14
29 30 31 31 32 31 31 31 32 33 35 35 35 36 38 38 38 38 38 36 35 34 32 31 32 31 30 28 27 25 24 22 22 21 21 21 21 20 18 16 15 14

ECMWFNIL_925_spd_117.txt.gz
Wind_Speed
31 31 31 30 30 29 28 31 31 28 30 30 25 29 34 32 32 32 30 29 26 23 23 23 24 25 24 23 20 17 14 14 15 15 15 15 15 15 15 16 18 18
30 30 31 29 29 30 29 29 30 28 29 29 23 25 33 34 32 33 32 31 28 26 27 26 26 26 24 23 21 17 16 18 19 19 18 17 14 14 16 19 19 18
28 28 30 30 29 30 30 29 29 28 27 28 24 25 32 35 34 34 34 34 33 31 31 31 29 26 24 23 21 20 21 21 20 18 18 17 16 17 20 21 20 19
28 27 28 29 28 28 30 30 30 29 28 28 27 27 32 35 35 35 35 35 35 33 33 32 29 25 24 22 22 22 22 20 19 19 20 21 22 22 22 22 20 19
28 28 28 28 27 26 29 32 32 30 29 30 28 28 32 36 36 36 37 35 34 35 35 32 28 25 24 22 22 22 22 20 20 22 25 25 25 24 23 22 21 19
26 28 28 27 27 27 28 32 33 30 29 30 29 29 33 36 37 38 39 37 35 36 36 32 28 26 24 22 20 21 23 23 23 24 26 27 26 25 24 22 21 19
28 28 28 27 28 27 27 30 31 29 29 30 30 30 33 36 37 38 39 37 35 37 37 34 30 26 23 22 22 23 24 25 26 27 28 28 27 26 24 22 20 19
28 28 28 29 29 28 27 28 29 30 31 31 31 32 34 35 37 38 39 37 36 37 37 34 31 27 25 24 25 26 26 26 29 30 29 29 28 26 24 22 20 18
27 28 29 29 30 29 29 29 30 30 32 32 32 32 33 35 36 38 39 37 36 37 37 35 32 29 26 25 26 27 28 29 31 32 30 29 28 27 25 22 20 18
26 27 29 30 30 30 30 30 30 30 30 31 31 32 33 34 35 37 39 37 36 37 37 35 32 28 25 24 25 27 29 32 33 32 30 29 28 26 24 22 20 18
24 26 28 30 31 31 31 30 30 30 30 30 31 32 34 35 36 37 38 36 35 36 36 34 30 26 24 24 25 28 31 33 33 32 30 28 27 25 23 21 19 18
24 26 28 30 31 31 31 31 31 31 31 31 32 33 35 35 37 39 38 35 33 35 36 34 30 26 25 25 27 30 33 33 32 31 30 27 25 23 21 20 19 17
24 26 27 28 29 29 30 31 31 31 31 31 32 34 35 36 37 38 37 34 34 36 37 35 30 27 26 27 30 32 34 33 32 31 28 26 24 22 21 20 19 18
23 23 24 26 27 28 28 29 30 30 31 31 32 34 35 36 38 39 38 35 35 36 36 33 30 27 27 29 32 34 34 33 32 30 28 26 24 23 22 21 19 18
20 21 22 23 24 25 26 27 28 28 29 30 31 33 34 35 37 38 38 36 35 34 32 30 29 28 29 32 35 36 35 34 32 29 28 26 25 24 22 21 20 18
18 19 20 21 22 23 24 24 25 26 27 28 30 31 32 33 33 35 36 36 36 34 31 30 30 29 31 34 36 36 35 34 31 29 28 27 26 25 23 22 20 19
17 18 18 19 20 21 22 23 24 25 26 27 28 29 30 31 32 34 35 35 36 33 30 30 31 30 33 36 36 36 35 33 31 29 28 27 26 25 24 23 21 19
17 17 18 19 20 20 21 22 23 24 25 26 28 29 30 31 32 33 34 34 33 30 30 31 32 33 35 37 36 35 33 31 30 29 28 27 26 25 25 23 21 19
16 17 18 19 20 21 22 23 23 24 25 27 28 29 30 32 32 33 33 32 30 30 31 32 33 35 37 37 35 34 32 31 30 29 28 27 27 26 24 23 21 20
16 17 17 18 19 21 22 23 24 25 26 27 29 30 31 32 32 33 32 31 30 31 32 34 35 37 37 36 35 33 32 30 29 28 28 27 27 25 23 22 20 19
17 18 19 19 20 21 21 22 24 25 26 27 29 30 31 33 33 33 32 30 30 32 33 35 36 37 37 36 35 34 32 30 29 28 28 27 26 24 22 21 20 19
20 20 21 21 21 21 22 22 23 25 26 27 28 29 30 31 32 31 31 30 31 33 34 35 37 37 37 36 35 34 32 30 28 28 27 26 25 24 22 21 20 19
22 22 22 23 23 23 23 24 24 25 26 26 27 29 29 30 29 29 30 32 33 34 35 36 37 38 37 36 35 34 32 30 29 28 27 26 25 24 23 22 21 20
23 23 24 24 24 24 24 25 25 26 26 27 28 29 29 29 29 29 30 32 33 35 36 38 38 38 37 37 36 34 33 31 31 29 28 26 25 24 23 23 22 21
23 23 24 24 25 25 25 25 25 25 25 26 26 27 28 28 28 29 30 31 32 34 35 37 38 38 38 37 36 34 33 32 31 30 29 27 26 25 24 23 23 21
22 23 23 23 23 23 23 24 24 24 24 24 24 24 25 27 28 29 30 30 31 31 32 35 37 38 38 37 36 35 33 33 32 31 30 28 27 26 26 25 24 23

ECMWFNIL_925_spd_123.txt.gz
Wind_Speed
41 40 39 39 39 39 38 37 36 37 37 38 39 40 40 40 39 38 39 39 39 40 40 40 40 40 39 38 37 37 37 36 36 34 32 31 30 30 29 28 29 29
41 41 40 39 40 40 40 39 38 38 39 40 39 39 39 39 39 39 39 39 39 39 39 38 39 40 40 39 38 37 37 36 35 33 31 31 30 30 30 30 31 29
40 40 41 42 42 41 41 39 38 38 39 39 39 39 39 39 39 39 39 39 39 40 39 38 38 39 40 40 39 38 38 36 34 32 32 32 31 30 31 32 32 30
41 41 42 43 43 42 40 38 38 39 39 39 39 39 39 39 39 38 38 38 38 39 39 39 39 40 40 40 39 39 37 36 34 32 33 33 33 31 32 33 32 30
42 42 42 42 42 41 39 38 39 39 38 39 39 38 39 39 38 38 37 37 37 38 39 40 40 41 41 40 39 38 36 35 33 33 34 34 34 33 34 34 32 29
41 42 42 41 40 39 38 39 39 39 39 39 39 38 38 39 39 39 38 37 38 38 39 40 40 41 42 41 39 37 36 35 34 33 33 32 32 32 33 34 32 29
39 40 40 39 38 38 38 39 39 39 38 38 38 38 38 38 39 39 39 38 38 39 39 39 39 40 41 41 40 38 38 37 35 34 33 33 33 33 33 32 31 29
37 36 36 36 37 37 38 38 38 38 37 36 36 37 37 38 39 39 39 38 38 39 39 39 40 40 41 41 41 40 39 37 36 35 36 36 36 35 33 31 29 29
31 32 32 33 34 35 37 37 37 37 36 36 37 37 37 38 38 38 37 37 38 38 38 39 40 41 43 43 43 42 41 38 37 38 39 40 38 36 33 30 29 29
25 26 28 29 31 32 34 35 35 35 35 36 36 37 37 38 38 38 37 37 37 37 37 39 40 42 44 45 45 44 42 40 39 40 41 41 40 38 35 33 32 32
23 23 24 26 28 29 30 31 32 32 33 33 34 35 36 36 37 37 37 37 38 37 37 39 41 42 43 44 44 43 42 41 40 41 41 42 40 38 35 33 33 34
23 23 23 24 25 26 26 27 28 29 30 31 31 32 33 34 35 37 37 37 38 37 36 38 39 41 43 43 43 43 42 41 40 41 42 41 38 34 31 31 33 35
23 23 23 23 24 24 23 24 24 25 25 26 28 30 31 31 33 34 35 36 36 36 36 36 38 40 42 43 43 44 43 40 40 41 39 36 33 30 29 31 33 35
23 23 24 24 25 24 24 24 23 23 22 22 23 26 29 30 32 33 34 33 32 32 33 35 38 40 42 43 43 42 40 40 40 40 36 32 30 28 29 30 32 34
22 22 23 23 23 22 22 23 23 23 23 23 23 24 26 28 30 32 33 33 30 30 33 36 39 41 43 45 44 40 39 39 38 36 34 31 29 28 29 30 31 33
17 18 18 19 19 19 19 20 20 20 21 23 24 26 27 28 28 29 31 32 32 32 35 38 39 40 43 45 44 41 41 38 35 34 33 31 30 30 30 31 32 33
16 16 16 16 16 17 18 19 20 20 20 21 22 23 24 25 27 28 31 32 33 34 36 37 38 40 42 42 41 40 40 39 37 36 34 32 31 31 31 33 34 34
14 15 15 16 15 15 16 17 18 19 20 22 23 23 24 24 25 27 28 29 30 32 34 36 37 38 39 39 39 39 39 39 39 37 34 32 32 31 32 35 37 36
12 12 13 14 14 14 14 14 14 16 16 18 20 22 23 24 25 26 27 28 29 30 32 33 34 35 36 36 37 37 37 36 36 35 34 33 32 31 34 37 37 37
13 12 12 12 12 13 13 13 13 14 15 15 16 18 19 21 23 24 25 26 27 28 30 30 31 32 33 34 35 34 32 31 31 32 32 31 30 32 36 38 39 38
14 14 13 13 12 12 12 13 14 14 15 15 15 17 18 19 20 22 23 25 25 26 27 28 29 29 30 31 31 32 32 32 32 31 30 29 30 33 36 39 40 39
16 15 15 14 14 13 13 13 13 13 13 13 14 15 16 17 18 20 21 23 24 25 25 26 27 28 27 27 28 30 32 31 30 29 29 29 31 34 37 38 39 38
17 17 16 15 15 15 15 15 14 14 14 14 14 15 15 16 17 18 19 20 21 22 23 25 26 26 26 27 28 31 32 31 30 29 29 30 32 35 37 38 38 37
18 17 16 16 15 15 14 15 15 15 15 15 15 15 15 16 16 17 17 18 19 20 21 23 24 25 25 27 29 31 32 31 30 29 29 30 32 34 35 37 36 35
17 16 15 15 14 13 13 13 13 13 13 13 13 13 14 14 15 16 16 16 18 19 20 22 24 24 24 26 28 30 31 31 31 30 31 32 33 34 34 34 35 34
16 15 15 14 13 13 13 12 12 11 11 11 12 12 12 12 13 13 14 15 16 17 19 20 22 22 24 26 28 31 32 32 32 32 33 34 35 36 35 34 34 34

ECMWFNIL_925_spd_129.txt.gz
Wind_Speed
44 43 42 42 42 43 42 40 39 38 38 38 38 40 40 40 39 38 39 40 40 41 42 41 41 41 41 41 40 39 39 39 39 39 38 38 39 39 38 39 39 38
44 43 42 41 41 42 42 41 39 38 38 39 39 40 40 39 38 38 38 39 39 40 40 39 39 40 39 40 39 38 38 39 39 39 38 38 38 38 39 39 39 40
43 42 42 42 42 43 43 41 39 38 39 40 40 40 40 38 37 37 37 37 37 38 38 38 38 38 38 38 38 38 38 38 39 39 37 38 38 38 39 39 40 40
42 42 42 43 44 44 43 39 38 40 40 40 41 40 39 38 37 36 36 36 36 37 37 37 37 37 37 37 36 37 38 39 39 38 37 38 38 38 39 39 39 40
42 43 43 43 44 44 41 38 39 41 40 41 41 39 37 37 36 36 36 35 35 35 35 36 36 36 36 36 36 36 37 38 39 38 38 38 39 39 40 39 38 38
40 41 42 42 42 41 39 39 41 41 40 40 39 38 37 37 36 35 35 34 34 35 35 35 35 35 36 36 37 37 38 38 38 37 37 38 38 39 39 40 39 39
38 39 40 40 40 39 39 40 41 40 40 39 38 38 37 36 35 35 35 34 34 34 35 35 35 35 35 36 37 38 39 39 39 38 38 38 38 38 38 38 39 41
38 38 38 38 38 38 38 39 40 40 39 38 37 37 36 35 36 36 35 35 35 35 35 35 35 36 36 36 37 38 39 39 38 38 38 38 38 38 38 37 38 41
36 37 37 36 36 37 38 39 39 39 38 36 37 37 36 36 37 36 36 36 36 36 36 36 36 36 36 36 37 37 38 38 37 37 36 36 36 35 36 36 37 38
35 36 35 35 36 37 38 38 38 37 36 36 36 36 36 37 37 36 36 36 36 36 36 35 35 35 35 36 37 37 37 37 36 37 36 36 37 37 37 37 37 38
33 33 34 35 36 37 37 37 36 36 35 35 36 36 36 36 35 35 35 36 36 35 35 35 34 34 35 36 36 36 37 39 38 38 39 39 40 39 37 35 34 37
32 32 33 34 35 35 35 35 34 34 34 34 34 34 34 34 33 34 34 34 35 34 34 34 33 33 34 34 35 36 37 39 39 39 39 39 38 37 36 32 29 32
31 31 32 32 32 33 32 32 32 32 32 32 31 31 31 31 31 31 32 32 32 32 32 32 32 32 32 33 34 35 36 37 37 38 36 33 32 31 30 29 28 30
28 28 29 29 30 30 29 29 29 29 29 28 28 28 29 29 29 29 29 29 30 30 30 30 30 30 30 32 33 33 34 35 36 36 34 32 29 26 26 27 27 29
26 26 26 26 26 25 25 24 24 23 23 22 23 23 24 24 24 24 25 26 26 26 27 28 29 29 29 31 31 31 32 32 32 32 31 31 28 24 25 27 27 29
25 25 25 24 24 23 22 20 19 19 18 19 19 19 19 19 19 20 21 22 22 23 24 26 27 28 29 29 29 30 31 31 30 29 27 27 26 24 24 25 26 28
25 25 25 24 24 23 22 21 21 20 20 19 19 18 18 17 18 19 19 20 20 22 23 24 25 26 27 27 28 27 26 26 28 28 26 24 24 24 24 24 24 23
24 23 23 23 23 22 22 22 22 22 22 22 22 21 20 19 19 19 18 18 19 19 19 20 20 21 20 21 23 24 23 23 26 26 24 23 24 23 23 23 22 21
23 22 22 22 21 20 20 20 20 21 21 21 21 21 21 20 20 19 19 19 19 19 19 18 17 16 16 17 18 20 21 22 23 23 22 22 22 22 22 22 22 22
23 22 22 21 20 19 18 18 18 18 18 18 18 18 19 19 19 19 18 19 19 18 18 18 17 16 15 16 17 18 19 20 21 21 20 20 19 20 21 22 23 24
25 24 23 22 21 20 19 18 18 17 17 17 17 18 18 18 18 18 18 18 17 16 15 15 15 14 14 15 17 17 17 17 17 17 17 17 18 20 22 22 23 23
26 25 24 22 21 21 21 21 20 18 17 16 17 17 17 17 17 16 16 15 15 14 14 14 13 13 13 13 14 15 14 14 14 15 16 18 19 20 22 23 23 24
26 25 23 22 21 21 22 22 21 20 18 17 17 17 16 16 15 14 14 14 14 14 13 13 13 13 13 12 12 13 14 14 15 16 17 19 20 21 22 23 24 24
26 25 23 22 22 22 21 20 19 19 19 18 17 17 16 15 14 13 13 12 13 13 13 13 13 13 13 13 13 13 13 14 15 17 18 19 19 20 21 22 23 24
26 24 23 22 22 22 20 18 16 17 18 19 18 16 16 16 15 15 14 13 13 14 14 14 14 13 13 13 12 12 12 13 15 16 18 18 19 19 20 21 22 23
26 25 25 25 24 22 20 18 17 16 17 19 19 18 17 17 17 16 15 15 14 13 13 14 14 12 12 11 11 12 12 14 16 17 19 20 20 20 20 21 22 23

ECMWFNIL_925_spd_132.txt.gz
Wind_Speed
43 42 41 41 41 42 41 40 39 39 38 38 39 41 42 41 40 38 38 39 38 39 40 40 40 40 40 40 40 39 39 40 40 39 37 36 37 37 36 37 36 36
42 42 41 40 41 41 41 41 40 39 39 40 41 42 41 39 38 37 37 37 37 38 38 38 39 39 39 39 39 38 39 39 39 38 36 35 36 36 37 37 37 38
42 41 41 41 42 42 42 41 40 39 40 41 41 41 40 38 37 36 36 36 36 37 37 36 37 37 37 37 37 37 38 38 38 37 35 35 35 36 37 38 39 39
41 42 42 43 43 42 41 39 39 40 40 40 41 41 39 37 36 36 36 35 35 36 35 35 36 36 36 36 35 36 36 37 37 35 34 35 36 37 38 38 39 39
40 41 41 42 42 41 39 38 40 40 40 41 41 39 38 37 36 36 35 35 34 34 34 34 35 35 35 35 34 34 34 35 35 35 35 36 37 38 38 38 38 38
38 39 40 41 40 40 39 40 40 40 39 40 40 38 38 37 36 35 35 34 33 33 33 34 34 34 34 34 33 33 34 34 34 35 35 37 37 37 37 38 38 38
37 37 38 39 39 39 39 40 40 39 39 39 38 38 38 36 35 35 34 33 33 33 33 33 33 33 33 33 33 33 34 34 35 35 35 36 36 36 36 36 36 36
37 37 37 37 37 38 39 39 39 39 39 38 38 38 37 36 35 35 34 33 33 33 33 33 33 33 33 32 33 34 34 34 35 35 36 37 37 37 37 37 36 37
35 36 36 35 36 38 39 40 40 39 38 38 38 37 36 35 35 34 34 33 33 33 33 33 33 33 32 33 33 34 34 34 35 36 36 37 36 36 35 35 34 35
34 35 35 36 37 39 39 40 40 39 38 37 37 36 36 36 35 34 33 33 33 33 33 33 33 33 33 33 33 34 34 34 35 36 36 36 35 34 33 33 33 32
33 34 35 37 38 39 39 39 39 38 37 37 36 36 36 35 34 34 33 33 33 33 33 33 33 33 33 33 33 34 34 34 35 35 34 34 34 34 34 34 33 32
33 34 36 37 38 38 38 37 36 36 36 36 35 35 35 34 34 33 33 33 33 33 33 33 33 32 33 33 33 33 33 33 33 32 31 31 31 32 33 33 33 32
33 34 35 36 36 36 36 35 35 34 34 34 33 33 33 33 33 33 33 32 33 33 33 32 32 32 32 32 31 30 31 31 31 30 30 31 30 31 32 31 31 29
32 32 32 33 33 33 33 33 33 33 33 32 32 32 32 32 32 32 31 31 31 32 32 31 31 31 31 30 29 29 29 29 28 29 30 31 31 31 31 30 28 26
31 30 30 30 30 31 32 32 32 31 30 30 30 30 31 31 30 30 30 30 30 30 30 30 30 30 30 29 28 27 27 27 27 28 29 30 30 29 29 30 28 27
29 29 28 28 28 29 30 30 30 29 28 28 28 28 28 28 27 27 28 29 29 28 28 28 28 29 28 26 25 25 26 27 27 27 27 28 28 27 27 27 28 27
29 28 27 27 27 27 27 27 27 26 25 26 25 25 25 24 24 24 25 25 25 25 25 25 25 24 22 22 22 24 25 26 25 25 26 26 26 25 25 25 25 27
27 27 27 28 27 27 26 25 23 22 23 23 22 22 21 21 22 23 23 22 22 22 22 22 21 20 20 20 21 22 23 24 24 24 24 24 25 24 23 23 23 25
25 25 26 27 27 26 25 23 22 23 23 23 22 22 21 21 22 22 21 21 21 21 22 21 20 20 20 20 20 20 21 21 22 22 22 23 24 24 23 22 22 23
24 24 25 25 25 24 24 23 24 25 26 25 25 24 24 24 23 22 22 22 22 21 21 21 21 20 19 18 18 18 19 19 19 19 20 22 23 23 22 22 22 23
25 24 24 23 23 22 22 23 24 25 26 26 26 27 27 27 25 24 23 23 23 23 22 22 23 23 22 22 21 18 18 19 18 17 18 20 21 21 21 22 23 24
28 26 25 23 22 22 23 24 25 25 24 24 24 25 25 25 25 25 24 24 23 22 22 22 23 24 25 26 24 21 20 19 18 17 17 19 20 21 22 23 23 22
30 28 27 26 24 24 26 26 26 25 24 22 22 22 22 23 24 24 24 24 23 23 23 23 24 24 25 25 24 23 21 19 18 17 17 19 20 21 22 22 20 19
33 31 29 28 28 28 29 28 26 25 24 22 23 23 23 23 23 23 23 24 24 24 24 24 24 24 23 23 23 22 21 20 19 18 18 18 19 20 20 19 18 17
34 32 31 31 31 31 30 29 27 25 24 22 22 22 22 22 22 23 24 24 24 24 23 23 23 23 23 22 22 22 22 21 20 19 18 18 18 18 18 17 17 17
34 33 33 33 33 32 29 27 26 25 24 23 23 22 21 22 23 24 24 24 24 23 23 23 23 23 23 22 22 22 22 21 21 20 19 18 18 18 18 18 18 18

ECMWFNIL_925_spd_135.txt.gz
Wind_Speed
42 41 41 41 41 42 41 40 39 39 39 39 39 40 41 40 39 38 37 38 38 38 38 38 37 37 37 36 35 35 37 38 38 37 35 36 38 37 38 38 37 36
41 41 40 39 40 41 41 40 39 39 39 39 40 41 40 38 36 36 36 36 36 37 37 37 37 36 36 36 36 36 37 38 38 36 34 36 37 37 38 38 36 36
40 40 40 40 41 42 41 40 38 38 38 39 39 39 38 37 36 35 35 35 35 35 35 35 36 36 36 36 36 36 37 37 38 37 35 36 37 37 37 36 35 34
39 40 41 42 43 42 40 38 38 38 38 38 39 39 38 37 36 35 34 34 34 34 34 34 35 35 35 36 35 36 37 37 37 36 35 35 36 36 35 34 33 34
39 40 41 42 42 41 39 37 38 39 39 40 40 38 38 37 36 35 35 34 34 34 34 34 34 35 35 35 35 36 36 37 37 35 34 35 35 35 35 34 33 34
38 39 40 40 40 39 38 38 40 40 40 40 39 38 38 37 37 36 36 35 34 34 34 34 34 34 34 34 35 35 36 36 36 35 34 35 35 34 34 34 34 34
36 36 36 37 37 37 37 39 40 40 40 39 38 38 38 38 38 37 36 36 35 34 34 34 34 34 34 34 34 35 35 35 35 35 35 35 35 34 34 34 35 35
34 34 34 34 35 36 38 39 40 40 39 38 38 39 39 38 38 38 37 36 35 35 35 34 34 34 34 34 34 35 35 35 35 35 35 36 35 35 35 34 35 36
32 33 34 34 35 36 38 39 39 39 38 37 38 39 38 38 38 37 36 35 35 35 34 34 34 34 34 34 35 35 35 35 35 36 36 36 36 35 35 35 36 36
31 33 34 34 36 37 38 38 38 38 37 37 37 37 37 37 37 36 35 35 34 34 34 34 34 34 34 35 35 35 35 35 36 36 36 36 37 36 36 36 36 36
29 31 33 35 36 38 38 38 37 37 36 36 36 36 36 36 36 35 35 35 34 35 35 34 35 34 34 35 35 35 35 36 36 36 36 37 36 36 36 36 36 36
30 31 32 34 36 37 37 37 36 35 35 35 35 35 35 35 35 35 35 35 35 35 35 35 35 35 35 35 35 35 35 36 36 36 36 36 36 36 36 36 36 35
31 31 32 33 34 35 36 35 35 35 34 34 35 34 34 35 35 35 35 35 35 35 35 35 35 35 35 35 35 35 35 35 36 36 36 35 36 36 35 35 34 34
31 31 30 30 31 32 34 34 34 34 34 34 33 34 35 35 35 35 35 35 35 35 35 35 35 35 36 36 35 35 34 35 35 35 35 34 34 34 33 32 32 31
31 31 29 28 29 30 32 33 33 33 33 32 33 33 34 34 34 34 33 34 34 35 35 35 35 36 36 36 35 35 34 35 35 34 34 33 32 31 31 31 30 30
30 31 28 27 28 30 31 32 32 32 31 31 32 33 33 32 32 32 33 33 34 34 34 35 36 37 37 36 35 34 33 33 33 34 33 32 30 30 30 30 29 28
31 30 28 26 27 29 30 30 30 30 30 31 31 31 32 31 31 32 33 33 33 33 34 35 36 37 36 35 34 33 31 32 33 33 32 30 30 29 29 28 27 27
32 30 28 28 28 28 29 29 28 28 29 30 31 31 30 30 30 32 33 32 33 33 34 35 36 35 34 32 32 31 32 34 34 33 30 30 30 28 27 26 26 27
31 30 29 29 29 28 28 27 27 28 29 30 30 30 29 29 30 31 31 32 32 33 34 34 33 32 31 31 31 32 32 33 33 32 30 29 29 28 27 26 26 27
30 29 30 30 29 27 26 26 27 29 30 30 29 28 28 29 29 29 29 29 30 30 31 32 31 30 30 30 31 31 31 31 30 29 28 27 27 27 26 26 26 27
30 30 30 30 29 27 26 27 28 29 30 29 28 27 28 28 27 27 27 27 27 28 29 29 30 28 28 28 28 27 27 27 28 27 27 27 26 25 24 23 24 26
31 30 30 30 28 26 26 27 29 30 31 29 28 27 27 27 27 27 27 27 26 27 27 29 28 26 27 29 28 27 26 27 28 28 29 28 26 24 23 23 24 26
32 30 30 30 28 26 28 29 29 30 30 29 29 29 29 30 30 29 29 28 28 28 28 29 28 26 27 28 28 27 26 27 27 27 27 27 25 24 24 23 24 26
31 30 30 30 29 30 31 31 30 29 29 28 29 30 31 32 31 30 30 30 30 31 30 31 30 28 28 29 29 29 28 27 26 26 25 25 25 25 25 24 24 25
30 30 30 30 31 34 34 33 31 29 28 28 29 29 30 30 29 29 30 30 31 32 31 31 31 30 29 30 29 29 30 29 28 27 26 26 26 26 25 23 24 24
31 31 31 32 34 36 36 33 31 29 28 28 28 29 28 27 26 27 28 28 29 29 30 31 30 29 29 29 28 29 30 31 30 29 29 27 26 26 25 23 24 24

ECMWFNIL_925_spd_138.txt.gz
Wind_Speed
39 36 31 30 30 31 32 29 27 28 31 30 28 29 33 36 37 34 32 28 23 22 23 22 21 21 21 22 22 23 25 26 27 26 26 27 27 27 28 29 28 26
37 35 33 31 31 32 33 31 28 27 29 31 31 32 33 35 36 36 36 34 28 23 23 23 23 22 21 21 22 23 23 25 26 25 24 27 28 28 28 29 29 28
35 34 36 37 36 34 32 30 28 28 28 29 33 35 34 35 36 36 36 36 33 26 22 23 24 22 22 22 22 23 23 24 25 24 23 26 27 27 27 27 28 30
35 36 37 39 38 35 31 28 29 31 29 29 34 36 36 37 36 36 35 35 35 30 23 22 24 22 22 23 22 23 23 23 24 23 22 24 25 26 27 26 27 30
35 36 36 36 36 35 32 30 33 35 33 34 36 34 35 37 36 35 35 34 35 34 28 23 23 24 22 22 23 23 23 23 23 23 23 24 25 24 24 26 28 29
32 33 34 34 34 33 32 33 36 37 36 37 35 31 33 35 35 34 35 35 35 36 34 26 23 25 23 22 24 23 23 23 22 23 24 25 25 24 23 25 28 30
30 30 32 33 33 32 33 34 37 37 37 37 34 33 34 35 35 35 36 36 36 36 37 30 26 26 24 23 25 24 23 23 23 24 25 25 26 27 26 26 28 31
28 28 29 31 32 33 35 37 38 38 38 36 35 36 37 36 36 36 36 37 36 36 38 34 31 30 27 24 24 24 24 23 23 24 25 26 27 28 29 29 29 32
26 27 28 29 30 32 34 36 38 38 37 36 37 38 37 36 37 37 36 36 35 35 35 34 31 29 28 27 25 25 25 24 24 25 25 28 31 32 32 31 31 32
26 27 27 28 30 32 34 36 35 34 34 35 36 36 32 31 34 34 30 28 29 30 29 29 29 26 28 30 27 25 25 26 28 31 31 32 34 34 33 32 33 34
24 25 26 28 30 31 33 35 31 25 25 27 28 28 25 23 25 27 25 23 25 26 25 25 26 26 26 28 27 27 28 30 32 35 35 35 36 35 34 34 34 35
23 24 25 25 28 29 31 33 29 22 20 22 24 25 23 22 23 25 27 27 26 26 27 27 26 28 28 29 30 32 33 34 35 36 36 36 36 36 36 36 36 36
22 23 23 24 25 26 27 29 30 26 23 23 24 26 28 29 29 30 32 32 30 30 32 32 31 33 33 34 35 36 36 36 36 36 36 37 36 37 36 36 37 38
23 23 23 23 23 24 25 27 29 29 28 26 26 29 32 34 33 34 34 34 35 35 36 36 35 35 36 36 37 37 37 37 37 37 37 36 36 36 37 36 37 38
23 24 24 24 23 23 25 26 27 29 30 31 32 33 34 34 34 34 33 34 35 36 36 36 37 37 38 38 38 37 37 37 37 36 36 36 35 35 36 37 37 37
21 23 24 24 23 24 26 27 27 27 29 32 34 35 34 34 33 33 33 34 35 35 36 36 37 38 39 40 39 38 37 36 36 36 36 36 35 35 35 37 38 37
20 21 22 23 24 26 28 28 27 27 29 31 33 33 33 33 32 32 34 35 35 35 35 36 38 39 39 40 40 39 38 37 35 35 35 35 35 35 35 36 37 37
22 23 24 25 27 29 30 29 28 27 29 30 32 33 32 31 32 33 35 35 34 35 35 37 38 39 39 39 39 39 39 38 37 35 35 35 35 36 36 36 36 36
22 24 26 27 28 30 31 29 28 29 30 31 33 32 31 31 32 33 35 35 35 36 37 37 38 38 38 39 39 38 38 39 39 37 35 35 36 36 36 35 34 34
21 23 25 27 28 29 30 29 29 30 30 31 32 31 30 31 32 33 34 35 36 37 37 38 39 39 38 38 38 38 37 37 39 38 36 35 35 34 34 34 34 33
20 21 23 24 26 27 28 28 29 30 31 30 30 30 31 31 31 32 33 35 36 36 37 38 40 40 38 37 37 36 36 36 37 38 36 35 35 35 35 36 35 32
18 19 21 22 23 25 26 27 28 30 30 28 28 29 30 30 31 31 32 34 34 34 35 38 40 39 37 37 35 34 34 33 34 35 35 35 36 35 35 34 33 30
19 19 20 21 21 23 25 27 28 29 28 26 26 28 28 29 31 31 31 31 32 33 35 37 39 37 35 34 33 31 31 31 33 35 35 35 36 35 34 33 30 28
23 22 22 22 22 24 26 27 27 28 27 25 25 26 28 29 28 28 30 30 31 33 34 34 36 35 31 30 30 30 30 32 34 35 33 33 32 32 31 30 28 27
25 25 24 24 25 26 26 27 27 27 26 25 24 25 27 27 27 27 29 31 32 33 33 33 35 35 32 30 29 29 30 32 32 32 31 31 31 29 29 28 28 29
26 26 26 26 26 27 28 28 27 26 26 25 25 25 25 26 26 27 30 32 33 33 34 35 36 35 34 32 31 31 32 32 32 33 34 33 31 29 29 28 29 30